GFSSW_925_thetae_000.txt.gz
Theta_e
313 313 314 314 314 314 314 315 315 316 316 316 316 317 318 318 319 326 329 327 323 322 322 326 326 327 324 324 325 323 323 322 325 326 328 329 329 328 325 325 325 324 327 331 333
312 312 313 313 313 313 313 313 314 314 315 315 315 317 318 318 320 323 327 328 324 323 323 325 326 326 326 326 326 325 326 322 322 324 329 328 329 327 326 326 326 324 327 334 333
312 312 310 312 312 313 313 313 313 313 313 314 315 317 318 319 320 322 327 329 328 323 323 325 326 327 328 327 326 326 327 324 321 326 326 326 326 328 326 328 328 325 326 329 334
311 309 309 312 312 311 312 312 312 313 314 315 316 316 315 319 321 318 326 329 329 330 326 324 326 328 329 329 326 327 324 323 323 325 324 325 326 326 326 326 325 324 325 328 332
309 308 308 309 311 311 312 312 312 313 314 314 315 314 317 320 319 324 324 327 328 332 325 325 326 328 330 328 326 326 323 323 322 323 325 323 323 325 326 326 325 324 324 328 329
311 311 311 310 310 310 311 311 311 313 312 312 315 314 317 321 317 321 325 327 329 332 326 324 326 327 328 327 323 323 324 323 323 324 325 324 323 325 325 326 326 323 323 324 327
311 311 310 310 311 310 310 311 312 313 313 315 316 317 318 319 317 321 329 331 330 328 327 324 325 327 327 324 322 322 322 324 324 324 323 322 323 323 322 325 325 325 322 323 323
309 309 309 311 310 310 310 312 313 313 314 315 316 316 318 317 323 324 328 330 327 326 327 325 326 325 325 321 323 323 323 325 324 324 323 322 324 322 323 325 324 324 323 322 322
310 311 308 307 309 308 307 310 312 314 313 312 311 315 316 319 323 325 328 328 326 325 325 327 323 322 321 321 324 323 321 323 323 324 324 323 324 325 324 322 322 321 322 322 322
307 307 308 310 311 309 308 310 312 311 309 309 309 314 315 317 323 324 327 327 327 325 323 325 322 321 321 320 326 324 321 321 322 324 323 322 322 321 321 321 320 320 320 319 317
309 309 311 312 311 312 311 314 314 312 310 317 316 316 316 324 326 328 327 326 325 327 331 325 323 321 320 321 321 323 322 321 322 323 323 321 321 323 320 317 320 316 316 315 316
311 311 311 314 315 314 314 316 315 314 321 319 320 320 320 320 324 321 323 325 328 335 328 325 322 319 320 323 324 323 322 322 324 323 323 321 324 321 319 318 317 316 317 318 317
310 311 311 314 315 315 316 315 314 313 323 323 321 321 322 323 325 323 323 324 330 335 329 322 320 320 325 325 324 323 323 324 325 324 323 323 324 320 320 319 317 318 318 318 318
308 311 311 314 315 317 317 316 315 315 322 324 322 321 322 322 323 321 322 323 325 332 322 319 320 323 324 324 323 324 323 324 324 324 327 322 325 321 320 321 319 318 319 319 317
308 312 316 315 316 318 317 315 315 316 331 324 322 321 321 322 321 321 321 319 321 321 320 320 320 323 324 324 322 325 323 322 322 321 322 323 324 320 320 322 321 319 320 319 317
308 312 314 316 317 316 314 315 318 332 330 327 322 325 324 325 322 319 324 322 318 318 318 318 318 320 322 320 321 321 321 321 321 320 325 322 322 320 321 321 321 320 320 319 318
308 310 313 315 317 316 313 318 333 332 324 328 326 325 323 325 326 326 320 319 321 320 319 318 317 314 316 318 317 319 321 327 328 327 327 320 321 320 319 320 320 320 320 320 317
309 310 314 316 315 314 317 326 332 328 328 325 327 326 326 326 325 324 320 324 322 323 321 324 323 317 316 319 321 319 323 328 335 331 325 320 324 324 317 317 317 319 319 319 317
311 317 318 319 317 316 325 332 331 329 326 328 328 327 329 329 328 329 324 326 327 326 327 327 324 316 316 316 315 323 325 320 325 325 326 325 326 321 316 316 315 318 319 318 318
311 317 321 317 318 321 331 330 328 326 326 326 332 329 331 330 329 329 330 327 330 326 324 327 325 320 316 315 314 315 315 321 323 327 328 325 324 322 317 316 316 319 319 318 318
316 323 319 319 323 330 332 329 326 323 323 326 329 331 330 331 331 329 328 325 325 326 324 325 328 324 319 321 321 317 318 318 317 320 324 325 323 319 319 317 316 318 319 318 316
320 325 318 321 328 327 327 327 322 324 324 324 326 327 327 328 328 327 329 327 324 326 328 325 328 328 327 319 319 318 320 319 322 323 320 317 318 318 316 318 319 320 319 315 315
321 321 320 322 327 325 324 322 323 325 324 325 326 327 326 327 330 329 326 324 323 324 325 326 328 330 328 324 322 325 323 320 320 321 325 321 319 318 317 318 320 319 318 315 316
320 325 325 322 320 323 324 324 323 321 323 324 324 325 325 328 327 329 325 323 323 322 320 322 325 326 325 322 322 325 324 323 322 322 322 321 320 319 319 319 319 317 317 315 315
318 318 317 324 320 320 321 321 322 324 323 322 324 324 325 327 326 325 323 322 321 318 321 323 324 321 321 320 319 319 320 319 321 321 322 319 319 319 317 317 317 318 315 316 315
319 317 316 317 317 317 318 320 319 319 319 323 325 323 323 323 324 326 324 323 323 320 321 319 321 319 318 315 314 315 314 314 316 318 319 319 319 317 317 319 319 318 317 316 314
314 313 316 314 317 317 318 317 318 317 317 318 321 322 322 316 313 313 316 319 320 320 319 319 317 315 316 315 316 317 316 316 316 315 315 317 316 316 317 319 319 318 318 316 312

GFSSW_925_thetae_003.txt.gz
Theta_e
314 314 314 314 315 315 315 315 315 316 316 316 317 316 317 316 317 318 320 327 330 323 323 324 325 325 327 322 321 320 321 317 318 321 322 324 325 324 322 324 323 322 326 328 330
313 313 313 313 314 314 314 314 314 315 315 315 316 316 316 316 318 319 317 326 330 325 324 323 325 324 322 322 322 321 321 321 317 320 319 324 323 323 325 323 324 326 331 331 331
312 312 312 312 312 313 313 313 313 314 314 314 314 315 315 317 317 316 316 326 329 330 324 324 324 323 325 325 324 322 324 323 324 322 321 322 322 323 324 325 324 322 329 330 330
312 310 311 309 310 311 311 313 313 313 313 313 313 314 314 316 317 313 311 323 329 332 328 323 324 325 326 327 325 326 323 323 324 322 322 323 321 321 323 324 323 322 324 330 330
311 308 307 309 310 311 312 313 313 312 313 313 314 315 314 316 317 314 314 315 327 331 331 326 325 325 328 326 325 325 324 323 320 319 319 322 322 320 321 321 321 322 325 328 330
311 311 311 310 310 310 310 311 312 312 312 313 314 314 314 317 313 315 321 326 329 331 331 325 324 323 327 326 326 321 321 320 321 320 320 323 321 320 321 320 322 320 322 324 327
312 311 310 309 310 311 310 310 311 311 313 312 315 314 313 314 313 314 315 325 328 331 328 325 324 325 326 328 323 321 321 320 321 321 321 320 321 320 319 320 323 321 318 319 323
311 310 309 309 309 311 311 311 311 312 313 312 315 314 314 314 313 316 318 322 327 329 329 330 326 325 325 321 319 322 321 323 321 321 321 320 322 320 318 318 321 320 318 317 318
308 309 307 308 307 308 307 308 310 310 314 314 314 314 316 314 317 316 320 327 329 330 330 328 326 324 322 321 320 320 321 320 320 319 321 320 321 319 318 320 320 318 316 315 313
310 310 309 309 312 311 308 309 311 313 314 310 310 315 315 317 318 320 323 328 329 326 328 329 327 324 320 319 323 322 320 318 318 322 320 321 320 319 318 317 317 314 312 313 314
311 312 311 312 311 311 309 313 311 313 311 312 312 315 316 317 316 324 326 329 326 326 330 329 329 329 322 317 318 319 320 318 319 321 322 321 319 318 317 314 313 313 314 314 315
309 311 312 313 313 313 312 314 314 312 312 310 313 315 319 319 323 323 327 329 328 331 328 328 330 321 317 319 319 318 320 319 321 321 320 319 321 319 316 315 314 316 316 315 316
308 310 311 312 314 315 315 315 313 313 317 318 313 319 321 323 326 325 325 327 329 332 332 331 326 320 320 321 322 321 321 323 324 321 321 322 321 318 316 315 316 316 316 316 316
309 311 312 311 314 315 316 314 312 312 319 320 320 321 322 322 324 322 321 326 329 334 329 325 318 321 321 323 320 321 321 322 323 320 323 319 323 318 317 318 317 316 315 315 315
309 310 314 314 315 316 315 316 314 314 326 318 321 318 322 322 323 323 319 323 332 332 325 321 319 319 322 322 319 324 322 321 320 320 319 321 321 318 318 319 318 317 316 315 314
308 309 314 315 316 316 317 314 315 325 327 320 322 325 323 323 321 320 321 321 322 324 317 317 317 318 320 319 320 319 319 319 319 318 323 319 320 319 320 319 317 317 316 315 314
308 309 310 315 317 317 315 317 327 330 321 323 326 324 323 322 322 322 324 324 323 318 317 316 315 313 316 317 315 317 318 324 325 324 325 318 318 317 317 319 319 317 316 315 313
308 309 311 314 315 315 316 324 331 327 326 324 323 324 325 324 325 323 322 321 316 317 317 320 320 315 315 317 318 315 318 325 334 329 326 319 320 320 316 318 317 317 316 314 313
309 315 315 319 315 314 323 330 331 327 324 325 324 326 328 328 324 323 322 326 327 321 325 322 322 315 315 314 316 320 322 319 322 322 323 323 322 317 314 316 317 317 316 315 313
312 315 319 319 316 319 326 330 328 325 325 327 328 328 329 327 327 328 329 325 329 325 324 323 322 318 316 315 314 315 315 321 320 325 326 322 322 320 316 314 315 317 316 315 313
315 317 320 320 319 322 327 326 325 323 324 328 330 330 328 329 328 327 327 325 325 326 324 325 324 323 319 319 319 318 317 315 316 317 322 322 320 316 316 313 314 316 316 314 313
314 317 320 321 322 320 324 325 323 324 323 325 327 327 327 328 327 327 328 326 323 326 327 325 322 325 325 318 318 317 319 316 319 323 317 315 318 315 316 313 317 318 316 313 313
314 317 320 321 322 321 321 322 322 324 324 325 327 326 325 327 330 327 324 322 323 324 326 325 325 327 325 321 320 323 322 319 318 318 322 320 318 315 315 317 317 316 314 313 314
313 318 316 312 314 319 322 323 323 321 323 323 324 323 325 326 325 326 324 323 321 321 319 320 321 322 324 321 320 324 323 322 319 319 319 320 320 317 318 319 319 317 314 312 313
310 313 314 317 315 315 317 320 322 324 322 321 323 323 325 326 324 323 322 322 319 318 319 319 319 318 318 318 317 318 318 318 321 320 320 318 317 317 315 314 314 315 312 312 311
313 312 311 312 314 314 315 317 319 318 320 324 324 321 319 320 322 324 322 322 322 319 319 316 318 315 315 314 313 313 312 312 314 316 317 317 318 316 314 313 317 314 313 312 309
312 311 309 311 313 314 316 317 317 316 316 316 318 319 317 313 311 311 313 315 318 318 317 316 313 313 314 314 315 318 316 314 313 313 313 314 314 313 316 317 318 317 313 311 306

GFSSW_925_thetae_006.txt.gz
Theta_e
314 315 315 314 314 315 316 316 316 317 316 317 317 317 317 316 316 317 319 318 329 326 324 325 324 324 326 322 320 317 319 318 316 318 320 318 320 323 322 322 321 323 324 325 326
312 313 313 313 314 314 314 315 315 315 316 316 315 317 316 315 316 318 316 315 327 331 324 323 324 324 322 321 320 319 320 322 318 318 321 319 320 321 323 322 323 327 330 328 329
311 312 312 313 313 313 314 313 314 314 315 314 315 316 316 315 316 314 314 318 322 332 329 326 323 322 324 322 322 320 323 321 322 322 321 321 320 320 322 324 323 323 329 329 328
311 311 312 311 312 312 313 311 313 313 314 314 314 315 314 315 315 313 315 312 321 330 332 329 323 324 325 326 324 326 322 321 323 323 321 321 321 321 319 321 321 319 321 328 328
311 311 310 310 310 309 311 312 313 314 313 313 314 314 313 314 313 313 318 318 315 330 332 327 324 324 326 324 325 325 325 323 322 321 318 318 319 321 320 318 317 318 325 329 328
311 312 311 311 311 310 310 311 312 313 313 313 312 312 314 314 311 313 315 318 323 330 332 326 324 323 324 325 325 324 322 320 319 319 319 320 320 320 319 318 317 320 322 326 328
311 310 308 309 311 311 311 310 311 312 312 312 313 313 313 312 311 311 312 320 325 330 330 327 324 325 324 327 324 321 322 320 319 319 320 320 320 319 317 316 316 318 316 319 322
311 308 309 310 309 311 311 311 310 311 311 312 313 313 312 311 311 312 316 317 323 329 330 328 325 325 326 323 318 320 319 322 319 320 319 319 321 319 317 315 316 317 314 314 313
310 310 310 309 308 308 310 311 311 311 312 313 312 312 311 313 315 311 313 317 318 326 330 328 326 326 324 325 321 319 321 320 319 318 320 319 321 319 317 317 317 316 313 313 314
310 311 313 311 311 310 308 309 310 310 311 312 312 313 313 316 316 316 313 315 324 326 331 331 330 327 321 321 328 322 321 319 318 318 317 318 319 317 316 315 315 310 311 313 314
308 310 311 312 312 312 310 311 309 310 312 313 312 314 314 315 318 319 320 320 325 328 333 332 333 333 329 321 319 319 319 318 316 316 319 318 319 318 316 312 311 312 313 314 315
308 309 310 312 313 312 310 314 312 310 313 310 311 313 317 316 318 321 324 326 327 330 330 332 335 329 325 321 318 318 318 317 317 319 321 319 318 317 313 314 314 314 314 316 316
308 309 311 312 313 313 312 313 313 310 312 314 314 313 317 318 322 323 325 327 326 329 331 333 332 328 323 320 322 319 318 318 322 320 319 321 320 317 316 316 316 316 315 315 316
309 311 313 312 312 314 315 313 312 314 318 315 316 316 318 321 324 322 323 327 328 328 330 330 322 326 325 321 317 319 317 320 322 320 322 319 322 316 316 317 317 315 314 314 315
309 310 313 313 315 314 314 314 313 312 325 316 317 317 319 322 323 322 320 325 329 327 325 329 323 324 322 320 317 320 320 321 319 318 318 319 320 317 315 318 317 315 314 313 313
311 310 314 314 314 313 314 315 314 322 323 321 321 323 319 322 323 321 323 323 326 324 321 320 317 317 318 318 318 319 318 316 315 316 321 318 320 319 318 318 317 315 313 313 313
310 312 311 315 316 314 315 316 321 329 320 324 325 322 322 324 324 325 327 328 329 326 325 321 315 313 316 316 315 316 317 322 324 322 323 317 318 319 316 316 318 316 313 312 312
309 312 312 311 315 315 315 322 330 324 324 322 323 322 325 323 324 324 325 324 321 317 319 322 321 313 313 316 317 316 317 322 329 326 325 317 319 318 313 315 315 315 313 312 312
309 314 312 311 314 316 319 328 327 325 322 324 322 323 328 325 323 324 323 322 319 318 321 319 320 315 315 313 316 317 320 318 322 320 322 321 319 317 315 316 316 315 313 312 312
312 313 316 316 315 315 324 329 327 323 320 323 326 324 328 323 322 323 323 325 327 321 321 319 319 317 315 314 313 317 315 320 318 326 325 321 320 320 318 318 317 316 314 312 311
313 316 316 314 315 321 328 328 327 321 323 329 327 326 322 323 322 326 327 325 326 325 322 319 318 321 316 317 318 316 316 314 316 318 322 322 320 314 314 315 317 316 314 313 311
311 317 315 315 320 319 326 327 324 326 325 326 322 322 326 329 327 327 328 326 322 324 326 324 319 321 322 317 316 316 317 314 317 319 315 314 318 313 314 311 313 315 314 312 311
312 316 316 317 325 321 321 323 323 326 325 327 328 327 325 327 329 326 325 322 322 324 324 322 323 324 326 321 319 321 318 316 315 316 320 320 319 313 314 311 315 315 314 312 312
311 318 315 311 312 319 322 323 324 322 324 323 325 325 325 325 323 325 324 322 320 320 319 319 319 322 327 323 320 323 323 318 317 318 317 318 319 317 316 317 317 316 314 311 312
308 312 314 318 315 316 318 321 322 324 322 321 323 323 325 325 323 323 322 321 319 318 317 317 319 318 318 317 317 319 320 320 320 318 318 317 317 316 314 312 312 310 311 312 309
311 311 309 312 312 315 314 317 319 318 320 323 321 317 317 320 320 324 322 321 322 318 318 315 318 315 313 313 313 314 313 313 315 318 318 317 317 314 313 311 315 315 311 311 307
309 309 307 310 311 313 315 316 317 317 315 313 318 316 313 312 311 311 314 314 317 318 317 315 313 312 313 313 315 317 315 313 311 310 311 312 311 312 314 315 314 314 311 309 305

GFSSW_925_thetae_009.txt.gz
Theta_e
311 314 315 315 315 315 316 317 317 317 317 318 317 317 318 317 316 316 318 316 322 327 326 328 327 325 324 323 319 313 319 320 318 316 317 317 320 319 319 321 320 323 324 324 325
312 312 313 314 314 314 314 315 316 317 317 316 315 316 317 316 316 316 315 316 320 328 330 324 323 323 323 322 319 319 320 323 318 316 319 320 320 319 321 319 322 322 328 327 327
312 312 312 313 313 314 314 314 315 315 314 316 316 314 315 315 314 313 311 316 318 324 332 325 323 322 324 320 320 319 322 321 321 319 321 321 320 319 321 321 322 322 320 328 328
312 312 312 312 312 312 313 314 314 313 314 314 313 315 315 314 313 315 315 315 311 321 327 331 325 322 324 325 323 324 321 320 322 322 322 321 319 319 318 319 319 318 317 327 327
311 312 312 311 310 308 311 313 312 313 314 313 313 313 313 314 312 313 315 318 317 321 327 329 322 322 325 323 324 324 324 323 322 321 320 318 317 317 318 317 316 316 318 324 326
312 312 310 312 311 311 310 311 312 312 311 312 311 312 313 313 311 311 313 317 320 321 329 329 323 321 323 324 324 324 323 323 319 319 318 319 318 318 319 316 316 315 316 320 326
312 312 309 308 311 312 311 310 310 312 310 311 312 311 312 311 310 311 311 314 319 323 330 330 324 324 323 326 323 322 322 319 319 320 319 318 320 318 317 315 314 313 313 314 318
310 311 310 309 311 310 311 311 311 310 310 311 313 312 312 310 311 311 314 316 318 325 329 329 325 324 325 323 318 319 319 322 319 319 318 319 321 318 316 316 315 314 312 310 311
312 311 311 312 310 308 307 309 310 311 311 312 311 311 312 311 310 310 311 314 318 322 327 328 325 326 325 326 324 319 321 320 318 316 318 319 319 318 316 315 314 313 311 313 314
306 309 310 311 312 311 309 308 310 310 309 310 310 311 310 313 314 313 310 313 322 321 328 330 329 326 324 327 336 324 322 319 318 317 317 318 317 318 316 314 312 310 312 313 314
306 308 309 310 312 313 310 309 309 311 310 310 312 313 313 312 314 314 313 313 321 324 332 332 333 333 327 325 325 321 319 319 315 314 316 316 317 317 315 314 310 311 313 314 314
308 308 309 311 312 313 312 311 310 309 312 311 311 312 312 316 318 318 315 318 322 325 330 334 333 330 326 322 319 319 319 319 316 317 316 318 317 315 314 313 311 312 313 315 315
309 309 312 313 312 313 310 311 310 311 313 312 311 312 313 316 317 321 318 321 321 322 330 332 332 330 329 329 324 320 319 319 318 318 317 318 319 318 315 315 315 315 314 314 314
309 310 313 313 312 312 311 311 310 311 313 313 315 314 313 315 318 320 319 322 323 322 327 331 328 331 329 325 328 331 317 318 319 319 322 317 322 316 314 317 316 314 313 314 314
309 310 313 313 315 314 314 311 312 311 315 314 316 315 317 316 319 322 321 324 323 323 328 329 329 332 333 327 318 322 317 317 318 318 317 318 319 318 314 317 316 313 312 312 313
309 310 312 314 313 313 313 312 310 315 324 318 317 316 318 318 321 322 324 323 322 325 323 323 323 328 329 321 316 317 317 315 315 315 320 317 319 319 315 317 316 314 312 312 313
308 309 311 314 314 313 312 314 320 321 316 320 318 318 319 319 323 324 326 329 326 328 329 320 321 317 316 317 315 315 317 322 323 322 323 315 317 320 316 313 316 315 312 311 312
309 310 311 312 315 314 313 315 322 323 321 321 321 319 319 321 324 325 327 331 324 322 327 324 327 315 312 316 316 315 318 321 325 324 321 314 318 317 313 311 314 314 311 310 311
309 312 312 312 313 314 316 319 326 325 324 323 320 320 325 324 326 325 325 326 323 322 325 322 322 313 313 313 315 316 319 316 321 319 321 319 317 316 315 315 314 313 312 311 311
311 311 314 313 312 315 319 323 326 322 321 321 324 324 325 325 326 323 325 323 321 317 315 317 318 316 314 313 312 315 313 320 317 326 325 319 318 320 319 318 315 314 312 311 311
311 314 313 313 313 318 327 326 323 320 323 326 324 325 323 324 324 325 325 323 324 322 320 315 316 319 315 316 315 313 314 313 315 316 321 321 319 313 315 315 316 315 312 311 310
308 316 314 315 322 322 325 327 321 321 325 326 322 321 321 321 324 327 327 324 322 321 324 320 315 319 319 316 314 315 314 312 317 318 313 313 317 311 312 312 314 314 313 311 310
310 316 314 314 325 324 324 325 325 327 327 326 322 323 325 325 328 324 325 322 322 322 324 321 321 324 324 320 318 319 316 313 313 314 316 318 318 311 309 310 313 314 313 312 310
309 315 315 316 313 321 322 325 326 324 324 323 326 325 324 324 322 324 324 321 319 320 319 318 319 319 322 322 319 321 320 315 316 317 317 316 318 317 315 316 317 315 314 311 310
306 311 312 315 315 318 319 322 325 327 324 323 325 326 325 325 323 323 322 320 319 318 316 315 319 317 316 316 318 319 321 317 316 315 318 317 316 316 315 314 312 312 311 311 311
310 310 308 310 312 315 315 318 320 318 324 326 325 321 323 323 321 324 321 321 322 318 317 313 317 314 313 313 313 314 314 318 318 318 316 317 316 312 312 312 314 314 311 311 308
307 307 306 310 310 313 315 316 318 315 314 317 317 316 317 312 310 312 312 312 315 317 315 313 312 311 314 313 315 314 313 311 310 310 312 312 311 312 314 314 314 314 310 310 306

GFSSW_925_thetae_012.txt.gz
Theta_e
312 313 314 315 315 315 316 316 318 318 319 318 318 317 319 318 317 316 317 315 316 327 332 328 328 326 324 323 317 312 319 321 320 315 315 316 320 319 318 318 318 320 322 322 326
312 312 312 313 314 314 315 315 315 315 316 316 317 317 316 318 317 316 314 315 318 320 327 327 325 322 322 324 318 318 320 322 318 314 317 319 320 320 319 317 319 320 323 327 326
312 312 312 313 313 313 314 315 315 315 316 316 315 314 315 317 314 312 313 314 317 319 324 328 324 321 324 320 319 318 322 320 321 317 317 321 321 319 319 319 318 320 318 320 326
312 311 312 312 312 312 313 314 314 315 315 314 313 313 314 315 316 316 317 316 318 319 322 329 326 322 324 324 321 322 320 320 321 321 322 322 319 319 317 318 317 316 315 316 324
311 312 312 312 312 311 311 312 313 314 314 314 312 311 313 314 312 315 312 314 318 319 321 328 322 321 325 322 323 324 324 323 321 321 320 319 318 317 317 316 315 314 314 314 319
312 312 312 312 313 312 312 311 311 312 313 312 312 311 312 314 310 311 311 311 317 319 322 327 322 320 322 323 324 323 323 323 321 321 318 319 319 317 317 316 315 314 313 312 316
313 313 312 310 310 311 312 311 311 312 312 310 311 311 312 311 309 311 312 310 312 319 322 327 326 323 322 325 321 323 324 320 318 318 319 316 320 318 316 315 314 312 310 312 311
313 312 311 311 309 311 311 312 311 310 311 310 310 310 310 310 309 310 312 314 314 319 319 328 328 324 324 321 317 320 318 321 321 318 317 318 319 316 315 315 316 312 309 312 312
312 310 310 311 312 311 309 308 310 310 311 309 310 310 311 309 310 310 310 311 317 319 323 327 325 326 325 325 322 318 323 319 319 316 317 318 318 315 315 314 314 310 312 313 313
312 308 309 310 311 313 311 307 308 308 309 309 310 310 308 311 311 310 309 310 317 318 324 328 328 327 325 325 334 324 322 320 320 318 316 316 315 316 314 315 313 311 313 313 313
311 308 308 309 310 312 311 309 308 309 309 310 309 310 311 309 313 311 312 311 315 320 328 329 332 332 328 328 324 321 320 322 316 314 315 314 314 315 314 314 312 310 313 313 313
311 311 309 310 311 312 311 309 309 310 310 308 310 309 310 312 316 314 312 315 319 316 325 334 332 328 325 324 325 320 320 319 318 316 315 315 316 315 313 313 311 310 312 314 313
309 308 310 312 313 313 310 309 309 309 312 310 309 312 311 311 315 316 313 316 319 315 323 332 331 327 327 323 326 322 322 323 323 316 315 315 317 316 314 314 312 312 312 313 313
308 309 310 313 313 313 311 310 309 308 314 312 312 312 312 312 315 316 313 317 319 316 321 330 329 330 329 330 326 330 320 319 319 319 321 316 321 316 313 315 314 312 313 313 313
308 309 310 313 313 312 312 310 309 311 314 311 313 312 312 314 316 318 314 316 321 318 325 330 331 332 332 331 326 330 320 320 319 317 316 317 318 316 313 316 315 312 312 312 312
308 308 310 313 313 313 313 310 310 315 316 314 315 315 315 314 317 318 318 319 321 319 324 325 324 329 331 326 322 319 317 315 313 314 320 317 318 317 315 314 315 313 310 312 312
307 308 309 310 313 313 311 311 316 319 312 317 315 315 315 317 317 319 320 320 324 324 326 322 326 322 320 324 316 318 319 323 323 322 323 315 316 317 314 313 314 314 311 310 311
309 310 310 310 313 312 311 314 321 319 314 317 315 315 317 317 319 321 321 323 325 319 322 327 329 320 314 325 323 319 317 320 326 323 320 313 318 316 314 311 310 313 311 310 311
310 311 311 311 313 312 310 317 321 323 318 320 317 316 318 317 322 320 322 323 326 319 321 325 326 314 316 314 322 315 320 316 319 317 320 319 315 315 315 313 313 311 311 311 310
310 309 311 312 314 313 314 318 320 322 319 318 320 319 319 319 324 322 323 324 325 319 316 318 317 315 312 312 311 314 313 320 317 326 326 320 317 319 316 317 315 312 311 310 310
309 311 313 313 314 315 317 316 323 320 318 322 322 320 321 319 323 323 322 323 321 319 315 313 314 317 313 314 314 313 315 313 315 316 321 321 318 312 313 312 314 312 311 310 310
307 314 314 312 318 319 317 324 321 323 324 325 322 322 320 323 324 324 325 324 320 320 319 316 313 316 316 315 311 311 313 313 318 318 312 313 317 311 310 310 312 312 311 309 309
309 316 314 314 324 325 324 324 323 324 324 325 321 321 320 323 327 327 326 321 321 321 320 318 318 322 323 320 317 317 313 311 311 312 313 317 317 311 308 311 313 312 311 310 309
308 316 317 316 316 320 325 325 326 324 325 323 323 322 323 324 323 325 324 321 320 320 320 319 317 318 323 321 318 320 316 312 314 316 315 314 317 316 314 315 314 313 313 311 308
306 310 313 318 318 317 320 324 326 328 324 323 325 323 323 324 322 324 321 319 318 320 316 315 320 318 314 317 318 318 319 314 315 315 319 318 315 315 314 314 313 311 312 311 309
309 309 306 310 312 317 315 322 324 319 323 326 325 322 321 324 322 323 320 321 320 317 316 312 317 314 313 312 313 317 318 314 314 314 315 315 315 312 311 311 313 313 312 311 310
305 306 306 310 311 314 316 319 319 317 318 315 320 320 315 314 311 312 311 311 315 316 314 312 311 313 316 313 314 313 311 316 315 314 315 317 314 311 315 314 314 314 312 312 308

GFSSW_925_thetae_015.txt.gz
Theta_e
312 312 313 313 314 315 315 316 317 319 319 319 318 318 317 319 318 317 316 314 312 321 323 325 328 329 323 324 316 313 322 324 323 317 321 315 322 320 318 320 319 319 322 323 325
313 313 312 313 313 314 314 315 315 315 315 315 316 316 316 317 317 316 316 315 316 317 321 326 326 324 323 324 319 320 324 324 320 316 317 318 321 322 322 320 320 320 319 322 324
312 312 312 312 312 313 313 315 314 315 315 315 315 315 316 317 315 315 314 315 318 319 320 324 327 323 324 320 320 319 325 321 321 319 317 320 322 321 320 323 320 321 321 318 322
311 312 311 312 312 312 313 313 315 313 314 315 314 314 314 315 316 316 316 317 318 320 319 323 328 324 326 325 320 322 320 320 322 321 322 323 321 322 319 323 320 319 316 315 317
312 311 312 312 313 312 311 311 313 314 314 314 313 312 313 314 314 315 312 311 316 319 319 322 327 323 328 324 321 322 323 321 321 321 321 321 322 322 320 319 317 315 316 316 315
312 312 313 312 311 312 312 312 311 313 314 313 313 311 312 314 310 311 312 311 311 317 319 321 326 320 323 324 326 323 324 324 322 324 320 321 323 318 323 317 317 315 315 313 312
313 313 313 310 312 311 312 312 312 311 313 313 311 311 311 311 309 310 311 311 310 314 318 320 324 322 322 324 321 322 326 322 321 320 321 318 321 319 320 316 317 316 312 312 313
313 313 311 310 311 311 312 312 312 312 311 312 311 311 311 309 309 310 310 311 313 313 317 319 322 325 323 320 320 324 320 329 323 318 318 318 327 319 314 315 316 314 312 314 314
313 312 310 306 310 312 312 310 309 311 311 311 310 310 310 308 310 309 309 309 312 317 318 318 323 327 325 323 323 320 330 322 324 318 320 319 321 318 314 315 316 313 314 315 315
312 312 311 307 308 311 313 310 307 309 310 309 309 310 309 311 310 310 309 308 313 318 320 320 326 328 327 328 333 326 324 320 323 319 316 317 318 316 315 314 316 313 314 315 315
311 311 310 309 309 310 313 308 307 308 309 309 310 309 310 308 312 310 310 310 311 319 320 321 331 332 329 327 325 319 322 326 322 316 316 317 316 317 316 314 314 311 314 315 315
310 310 310 309 311 311 312 309 307 307 309 308 309 309 309 311 314 313 310 312 314 318 318 325 332 328 325 325 323 321 323 321 319 315 316 318 319 318 315 315 314 312 314 315 314
309 310 309 309 312 313 312 308 308 309 310 310 308 310 311 310 312 314 311 314 318 315 319 326 327 327 327 327 328 322 323 321 325 318 316 316 320 317 315 313 311 311 314 314 315
307 309 309 310 313 313 311 308 309 306 312 312 309 309 312 312 312 310 311 314 318 315 316 324 328 328 328 327 327 330 321 322 322 325 328 316 325 318 317 314 313 313 314 314 314
309 308 309 309 312 312 312 310 308 307 317 312 310 310 312 312 313 315 312 314 318 315 318 327 331 329 330 328 325 328 323 324 323 321 316 317 321 320 313 315 316 314 314 314 314
309 307 309 310 312 312 312 310 310 314 315 315 313 314 314 313 314 315 313 314 320 316 317 326 327 328 329 325 325 315 317 317 315 317 322 318 321 322 317 316 314 313 313 314 313
310 309 308 309 314 312 311 309 314 317 313 316 314 314 313 314 314 315 316 315 319 318 319 323 331 327 327 323 319 319 326 331 326 324 325 314 317 320 315 313 315 315 313 313 313
311 310 309 309 311 312 310 314 319 315 313 314 314 313 315 315 316 317 316 317 317 321 316 325 329 324 321 327 326 326 326 325 328 325 322 313 321 319 313 313 311 313 313 313 313
312 310 310 310 311 311 311 315 317 316 312 316 314 313 315 315 316 318 318 317 318 318 317 323 325 318 316 317 325 321 327 317 319 316 322 321 318 316 314 314 312 312 313 314 313
309 308 311 311 311 309 309 316 317 316 315 315 313 313 314 316 318 319 317 320 319 320 315 319 319 316 312 313 312 320 317 326 318 326 327 322 318 322 316 314 314 312 313 313 312
308 311 314 312 312 310 314 314 316 316 315 315 318 317 313 314 319 320 319 322 322 321 314 312 315 316 313 316 315 316 319 315 317 318 324 322 321 312 313 311 313 313 312 312 312
306 316 313 312 316 314 316 316 316 321 318 319 319 319 316 314 318 321 322 321 321 320 316 312 313 320 316 314 313 313 316 315 321 318 313 315 320 310 310 309 310 312 311 311 311
309 316 313 312 320 317 317 317 316 323 321 324 323 320 316 316 323 323 322 319 320 322 318 316 317 321 322 319 316 315 311 312 312 312 314 319 320 311 311 313 312 312 311 310 310
307 320 316 314 316 319 324 324 324 323 324 324 321 319 320 322 322 323 325 322 320 319 320 317 316 319 325 321 317 319 314 311 315 317 316 315 316 315 315 315 313 312 312 310 309
305 310 315 318 318 318 322 324 323 326 323 324 323 321 321 324 324 324 323 319 319 321 317 317 320 317 314 317 317 317 317 312 315 316 320 318 315 314 314 314 313 312 311 311 309
308 307 306 311 311 319 320 324 324 323 323 325 324 320 322 321 322 323 320 320 322 316 316 313 318 313 313 314 316 319 316 315 314 313 314 314 315 311 310 311 312 312 310 310 310
305 305 306 311 311 317 317 320 322 320 320 314 319 319 324 315 312 317 315 314 316 315 314 315 311 315 318 312 312 317 313 315 315 312 315 317 317 310 314 313 312 311 311 311 309

GFSSW_925_thetae_018.txt.gz
Theta_e
313 313 313 313 313 313 313 314 316 318 319 319 320 319 318 318 319 319 318 317 316 316 320 324 329 331 329 327 323 321 327 328 327 327 327 321 326 326 324 325 324 324 325 325 326
313 313 313 313 313 313 313 314 314 315 316 317 317 317 317 317 319 319 317 318 316 319 318 324 329 330 331 328 327 327 329 328 326 326 326 325 326 327 327 326 326 324 324 323 322
312 313 313 313 313 312 314 314 315 314 314 315 314 315 316 317 317 316 316 318 320 320 319 321 327 329 332 328 328 327 329 327 326 324 323 325 327 326 327 329 326 325 324 324 322
312 312 311 312 313 312 312 313 314 314 313 314 315 315 315 315 315 317 317 317 318 320 320 318 324 329 332 332 327 328 327 326 326 324 326 327 326 328 328 328 327 326 326 323 323
313 312 312 313 313 311 310 309 312 314 314 314 314 314 314 315 314 316 312 312 313 318 320 318 325 329 332 331 328 328 327 326 325 325 325 326 327 328 328 327 327 326 324 322 322
313 313 312 313 313 311 311 310 312 312 314 313 313 312 313 314 311 312 314 313 312 317 319 318 323 325 329 330 330 327 327 327 326 326 327 327 328 325 327 327 326 324 323 322 319
314 313 313 313 311 312 309 312 312 312 311 312 313 312 313 313 310 310 310 311 311 312 317 318 320 326 326 330 327 328 329 328 328 327 328 325 328 328 326 322 320 321 321 319 319
313 313 312 311 310 310 311 312 312 311 311 312 311 312 311 310 311 310 311 312 312 311 315 316 319 323 326 326 326 330 330 333 328 328 327 325 330 326 323 321 321 320 319 320 319
313 312 311 310 307 309 311 312 311 311 311 311 311 311 311 309 310 310 310 311 313 313 313 316 317 324 327 326 329 330 333 332 329 327 327 326 328 325 320 321 321 322 320 320 320
312 311 312 312 308 308 310 312 310 310 310 310 310 311 310 310 310 309 310 309 311 316 316 319 319 327 329 329 335 331 331 328 330 327 323 327 326 324 323 321 322 322 320 321 320
310 311 311 311 309 309 310 309 309 309 309 309 309 309 310 310 311 310 310 310 310 316 318 320 321 327 329 328 327 327 326 329 328 326 324 326 328 324 324 324 322 321 320 321 320
309 310 310 311 309 310 311 309 308 308 310 309 309 309 310 310 313 311 311 311 313 317 317 320 323 325 327 328 326 327 327 328 327 322 322 327 328 327 326 324 322 322 320 321 319
309 310 310 309 309 312 312 309 307 308 308 309 308 310 310 309 311 313 312 310 313 315 317 320 321 323 328 327 328 328 327 327 328 324 326 325 329 327 321 318 317 317 320 320 319
310 308 309 309 310 312 313 311 308 307 310 312 310 308 309 311 312 309 311 310 314 316 317 318 321 325 329 328 326 330 326 326 328 332 334 324 333 328 324 322 319 318 320 320 319
310 308 308 309 312 312 311 310 307 306 317 312 310 309 309 311 312 311 312 311 315 317 315 319 324 328 330 328 327 326 327 327 329 331 327 330 330 328 320 322 320 320 320 319 319
311 310 309 310 311 312 311 309 307 313 317 315 312 312 312 312 310 313 314 312 314 317 315 318 322 327 328 326 326 325 327 323 321 322 333 329 327 328 323 321 320 319 320 319 318
313 310 309 310 313 312 310 308 313 317 312 316 315 312 312 313 313 314 315 314 314 321 320 316 318 328 327 328 323 326 329 336 335 334 332 320 323 327 322 319 320 320 320 319 318
314 311 310 310 311 311 308 311 319 315 315 313 313 313 313 314 313 315 315 315 316 318 318 322 330 329 328 328 326 327 329 332 333 333 330 319 327 324 318 317 317 319 320 319 319
314 312 311 311 311 311 310 314 317 316 314 316 313 314 313 314 314 315 315 314 315 317 320 321 325 323 325 323 325 327 331 322 324 322 326 326 324 321 319 319 317 317 320 320 319
311 309 309 310 310 311 310 316 316 315 312 314 314 313 315 315 316 317 315 314 315 317 318 318 326 322 319 324 320 327 325 329 324 329 329 326 326 326 322 320 318 317 320 320 319
309 312 312 310 311 310 313 314 314 314 313 315 313 313 313 315 315 317 316 318 316 318 319 320 322 319 316 327 328 325 326 325 323 324 328 327 326 320 320 319 318 318 319 320 318
310 317 312 311 312 311 313 314 314 315 314 314 315 312 313 314 315 320 317 320 316 318 322 321 320 325 327 316 320 325 327 328 330 326 323 323 325 316 317 316 315 318 318 319 318
313 316 313 312 317 316 313 315 314 315 316 315 319 313 313 313 314 319 318 316 320 321 321 319 322 325 324 322 317 323 326 327 325 320 324 327 326 316 318 320 317 318 318 318 317
314 319 315 313 315 318 317 317 318 317 319 319 321 318 313 313 316 317 322 320 322 321 321 318 321 322 326 324 322 324 324 323 326 327 325 323 324 320 320 321 319 318 317 317 316
311 317 316 317 315 316 317 319 321 324 322 323 323 319 316 314 321 322 324 323 322 322 322 321 323 322 321 321 321 322 323 321 324 325 326 326 323 321 321 320 321 319 317 317 316
312 314 311 317 316 319 317 320 322 321 322 322 325 321 319 318 322 324 325 324 325 323 323 320 324 319 319 318 321 321 321 322 324 325 324 322 323 319 318 317 316 319 318 317 316
307 307 310 314 314 320 321 321 325 321 321 317 323 322 322 320 321 321 322 321 322 323 324 323 323 322 325 316 319 323 322 320 319 320 321 323 322 317 316 316 317 317 316 316 315

GFSSW_925_thetae_021.txt.gz
Theta_e
313 314 314 313 313 313 312 312 315 318 319 320 321 321 320 319 320 320 320 320 318 317 322 322 322 329 330 331 328 327 329 330 328 328 327 326 326 326 327 327 326 325 326 327 325
313 313 314 313 313 314 313 314 314 314 316 318 318 319 319 318 319 320 320 320 319 321 319 320 323 325 333 331 329 329 329 328 327 327 327 327 327 328 328 328 328 327 326 325 325
313 313 313 313 313 313 313 313 313 315 314 314 315 316 316 317 318 318 318 320 321 322 321 319 322 329 331 332 330 330 330 328 327 327 326 326 327 328 329 330 329 328 326 327 326
314 313 313 312 313 313 311 312 312 314 314 313 314 315 314 315 316 318 316 317 319 321 321 320 319 326 331 334 330 331 328 327 328 327 327 327 326 328 328 329 328 328 328 328 327
314 314 313 312 313 313 313 310 309 313 315 315 314 314 314 316 315 317 315 314 315 317 321 321 320 322 326 328 331 330 328 327 327 327 326 326 327 327 328 328 328 328 328 328 327
313 314 314 312 313 313 311 313 312 308 311 313 314 313 314 314 311 312 316 315 315 317 319 320 319 320 323 325 329 329 328 327 327 327 327 327 327 327 327 327 327 327 326 325 325
313 314 312 312 313 312 314 313 313 310 307 311 314 313 313 313 311 312 312 312 313 314 318 319 319 321 323 326 325 329 330 328 328 328 328 327 329 328 327 327 325 322 322 323 322
313 313 313 312 312 310 312 313 313 313 311 310 313 312 314 311 311 312 312 312 312 312 313 316 319 319 323 325 327 328 332 333 328 327 328 328 331 327 327 325 324 323 322 322 323
314 312 312 312 310 309 309 311 313 312 312 312 311 312 312 310 311 311 311 312 312 314 312 314 317 319 322 329 331 331 335 333 331 327 328 329 330 327 326 324 323 323 322 323 323
315 312 310 312 311 309 308 310 313 311 311 311 310 311 310 311 310 310 311 311 312 313 314 314 318 321 323 328 333 331 334 332 332 328 328 329 329 327 326 324 325 323 323 323 323
315 312 309 311 311 311 309 311 309 309 311 312 312 311 311 310 310 311 310 311 311 312 317 317 320 322 321 327 326 328 330 330 330 327 328 329 328 326 325 325 326 325 323 323 323
315 312 310 310 310 311 310 310 310 310 312 311 311 310 309 311 313 312 311 312 312 314 314 318 320 319 318 322 329 327 329 330 327 326 327 327 326 326 326 326 327 326 323 323 322
312 312 310 310 310 310 311 311 309 307 310 308 311 312 310 309 311 312 311 312 312 313 314 317 317 317 317 324 329 328 330 327 327 327 326 326 328 328 327 327 327 324 323 323 322
312 311 309 310 310 311 313 313 309 308 311 312 311 310 309 310 312 309 311 312 312 313 313 316 315 314 319 323 329 332 326 326 326 330 332 329 331 328 327 325 322 321 322 323 322
314 311 308 309 313 314 311 311 308 307 319 313 311 309 309 311 311 312 309 313 313 313 313 314 317 316 322 321 327 328 326 325 327 329 331 332 333 329 328 326 324 322 322 323 321
315 311 309 310 311 312 310 308 307 312 318 315 311 312 312 312 312 312 311 312 311 312 315 314 316 320 321 322 326 326 326 327 327 329 334 330 331 329 328 325 324 322 322 322 320
315 312 310 310 312 312 309 308 313 318 313 316 314 313 313 312 313 312 314 314 317 316 318 316 314 318 321 327 328 327 330 335 334 334 331 327 331 329 322 321 322 322 322 321 320
315 314 311 309 311 310 308 309 318 316 315 313 314 313 314 311 312 312 313 317 314 314 318 322 323 319 319 330 330 331 329 329 333 331 329 323 327 326 322 320 320 321 322 321 320
314 315 312 311 311 309 311 313 317 317 315 315 314 316 315 312 313 314 315 316 314 313 319 323 323 315 324 328 327 329 330 325 327 327 330 328 326 322 321 321 320 321 322 321 320
315 312 311 312 311 310 312 315 316 315 314 314 319 314 315 313 314 315 316 316 314 314 312 320 324 315 325 324 323 328 326 330 327 330 330 328 327 327 323 322 320 320 322 321 320
309 311 312 312 312 312 312 313 314 313 313 314 316 315 313 313 314 316 315 315 313 314 316 321 318 319 324 329 329 328 330 330 327 328 330 330 327 324 322 321 321 320 322 322 321
310 314 312 311 313 312 313 311 313 314 313 314 316 315 313 313 314 316 316 315 314 316 321 321 324 323 325 319 325 328 328 329 330 330 326 326 326 320 320 320 319 321 321 321 320
313 316 312 311 315 313 312 312 312 315 317 315 317 316 313 313 315 317 317 315 318 318 320 322 324 329 325 322 322 328 328 329 328 326 329 328 327 320 322 321 319 320 321 321 320
313 318 315 312 313 316 315 316 316 314 315 316 316 316 314 313 314 317 320 318 319 317 321 321 322 324 328 328 326 328 329 328 329 330 329 327 325 322 323 323 321 320 320 321 320
311 317 315 316 315 316 317 317 319 320 317 317 320 318 316 314 314 317 318 320 319 321 320 323 324 323 322 323 325 327 328 328 330 330 329 327 325 324 323 323 322 321 320 320 319
312 313 316 318 315 316 316 318 319 318 322 321 322 319 317 313 314 320 320 322 323 322 322 323 324 323 323 322 322 323 324 326 326 327 326 325 326 325 323 321 322 321 320 320 319
309 309 313 316 319 319 320 318 318 318 319 321 320 322 319 314 315 321 321 321 323 324 323 323 324 324 326 321 322 325 323 323 323 323 324 326 325 325 320 320 320 321 320 319 318

GFSSW_925_thetae_024.txt.gz
Theta_e
313 314 314 314 314 314 314 314 314 316 319 321 322 322 321 320 320 321 320 320 321 318 315 319 321 321 328 331 331 328 331 331 329 328 328 325 325 325 326 325 325 324 324 325 326
314 314 314 314 314 313 314 314 314 314 314 317 319 319 320 319 320 320 320 321 322 320 319 319 321 321 324 332 332 330 332 330 327 326 326 326 326 327 328 327 325 326 325 325 325
314 314 313 314 313 314 313 314 314 314 314 313 315 317 317 317 319 318 318 321 323 322 321 320 319 321 329 329 331 331 332 329 326 325 326 326 326 325 326 329 327 326 326 326 327
314 314 314 313 313 314 314 313 314 314 315 314 313 314 314 316 317 319 315 318 319 322 322 321 321 321 327 330 328 332 329 328 327 327 327 327 326 326 325 326 326 326 326 326 325
314 314 315 314 313 314 313 313 312 313 315 315 313 314 314 315 314 316 314 314 315 319 320 321 322 320 323 325 329 331 330 328 326 326 326 326 326 326 325 324 324 325 326 325 325
314 314 315 313 313 314 313 312 313 313 312 314 313 313 314 315 312 312 315 315 315 315 317 319 321 320 320 322 323 329 330 330 328 326 326 327 326 325 325 324 324 325 324 322 324
315 313 313 312 312 314 312 313 312 313 313 312 313 314 313 312 311 311 312 314 314 314 315 318 318 321 319 321 322 323 327 330 329 327 327 325 327 327 325 324 324 324 321 319 322
314 313 311 313 312 312 311 310 312 312 313 312 313 313 313 311 311 312 312 312 312 312 312 313 316 319 322 321 324 327 327 332 329 329 326 326 329 327 325 324 324 323 320 320 321
314 314 311 311 313 311 308 308 310 312 312 312 311 312 310 311 312 311 312 312 312 312 313 312 313 319 319 322 326 327 331 329 331 328 327 326 328 326 325 324 323 322 319 319 320
314 315 313 310 312 311 310 308 309 313 312 312 311 311 310 311 311 311 311 311 312 312 314 315 315 319 321 322 325 328 331 328 332 331 328 328 327 326 325 324 321 320 320 319 320
313 313 315 309 311 312 311 311 311 309 311 312 312 311 311 311 310 311 311 311 311 312 314 315 317 320 319 319 321 323 326 329 327 328 328 328 326 326 325 324 322 322 321 319 319
313 312 314 309 310 311 311 311 311 310 312 311 311 311 311 311 312 311 311 312 313 314 313 314 317 315 316 318 320 323 328 329 328 327 328 327 328 326 324 323 322 322 321 319 319
314 311 314 309 311 311 312 311 310 308 310 311 311 312 312 311 313 313 312 312 312 313 314 314 315 315 315 317 319 320 326 328 328 327 326 325 327 325 323 322 322 322 323 319 319
315 312 312 310 310 310 311 312 312 309 312 312 310 312 311 310 312 310 310 312 313 313 312 313 313 314 317 317 318 321 321 327 328 330 332 325 328 325 324 324 324 322 320 319 318
315 313 311 309 313 313 312 311 309 309 318 313 312 309 311 311 311 312 309 312 314 313 313 314 314 314 316 317 317 320 322 326 328 330 331 332 332 328 325 325 325 319 318 319 318
315 314 311 310 310 312 310 309 308 313 316 315 311 312 312 312 312 311 311 311 312 313 313 313 313 314 314 315 316 316 322 325 329 330 335 329 332 328 326 324 321 318 318 319 317
315 315 311 310 311 311 310 308 313 317 313 317 314 312 312 313 312 312 313 313 314 317 316 313 313 312 314 316 315 318 324 328 335 337 336 327 328 328 320 320 321 319 319 318 317
315 315 311 310 312 311 308 310 314 314 315 313 314 313 316 312 312 312 314 315 313 313 314 315 313 316 313 315 321 322 319 331 335 334 327 324 329 325 320 318 319 319 319 318 317
315 315 313 311 311 310 311 312 315 315 315 315 314 317 317 313 312 312 313 313 312 314 316 320 318 316 315 316 321 321 321 324 328 323 327 324 325 318 319 319 318 319 319 318 317
315 315 313 311 311 309 313 314 313 313 314 314 317 316 316 313 313 314 313 314 312 314 312 313 319 317 318 320 323 325 324 331 328 329 333 328 325 323 320 319 318 320 319 318 317
312 313 312 312 310 312 313 313 313 312 313 315 317 318 315 313 313 316 317 315 314 314 313 313 314 321 317 322 322 328 331 328 327 328 332 328 325 319 319 319 318 317 319 318 317
310 316 312 312 315 313 314 313 311 313 313 314 314 316 316 313 313 314 317 315 314 314 316 313 317 321 322 321 323 327 328 328 327 332 328 324 322 318 317 318 317 316 320 318 317
312 315 313 312 315 314 313 313 311 314 315 314 315 316 315 316 314 313 315 315 316 315 319 318 322 326 325 326 327 329 328 327 327 326 328 326 322 319 317 317 318 317 319 318 317
313 317 314 312 313 314 314 314 313 312 313 315 316 315 316 317 313 316 316 318 317 313 319 322 322 322 332 330 327 330 328 327 327 329 327 325 320 321 320 318 317 317 318 318 317
311 316 314 315 313 315 315 315 316 315 313 314 317 316 318 315 313 314 317 319 320 316 319 321 327 325 326 326 327 327 328 328 329 328 328 326 320 319 320 318 317 316 317 318 317
311 313 314 317 313 314 315 317 317 317 318 320 317 318 318 315 313 314 318 319 319 320 317 318 325 323 323 326 327 328 327 327 327 327 327 326 324 320 319 317 317 316 317 318 317
309 309 312 315 317 317 318 317 317 316 316 317 317 318 321 319 312 318 315 316 320 320 321 322 324 325 324 322 322 324 322 326 327 325 326 327 324 322 318 319 318 316 316 317 316

GFSSW_925_thetae_027.txt.gz
Theta_e
314 314 314 314 314 314 314 315 315 313 317 320 322 323 323 322 320 321 320 320 321 321 318 316 318 320 320 327 329 328 328 330 329 326 325 323 323 323 322 324 324 323 322 324 328
314 314 314 314 314 314 313 314 314 314 313 315 318 319 321 320 320 320 319 320 323 323 320 319 320 319 318 327 329 329 330 331 326 324 323 323 322 325 327 326 325 323 322 323 328
314 314 315 314 314 313 314 313 314 314 314 312 313 316 317 318 319 318 318 322 323 324 322 321 321 319 321 321 327 331 334 328 327 325 324 324 324 323 324 325 326 325 323 324 324
314 314 315 314 313 313 314 314 312 314 314 314 312 313 314 316 320 316 315 318 321 322 323 322 320 320 321 326 325 331 330 330 328 327 326 325 324 324 324 323 323 322 322 323 323
315 314 314 314 314 313 314 313 313 312 313 314 314 313 313 316 316 316 314 314 315 318 322 321 321 321 319 320 322 327 327 328 328 327 326 324 324 324 324 322 321 321 322 321 321
316 314 313 313 313 312 313 313 312 313 311 310 312 313 314 315 311 312 312 314 315 317 319 320 320 319 320 318 320 321 324 326 328 328 325 325 324 323 323 322 321 321 321 320 319
315 315 311 311 312 312 314 313 314 313 311 309 312 313 313 311 310 312 313 315 314 315 313 315 318 319 320 320 318 321 324 322 322 328 328 326 325 324 322 322 322 322 320 321 317
314 315 312 309 313 312 312 311 309 313 312 312 312 313 312 310 310 311 311 312 312 312 312 312 312 314 319 320 320 323 324 326 323 325 327 326 330 325 322 321 322 321 318 316 318
315 314 313 309 309 312 310 308 309 309 312 313 311 312 311 309 311 311 311 312 312 312 312 311 312 315 318 322 322 322 326 326 326 325 327 327 329 324 322 322 322 318 317 315 317
316 314 314 313 309 312 311 309 309 310 313 313 312 312 310 310 311 311 311 311 312 311 313 314 312 313 317 321 322 320 323 324 326 324 326 329 329 323 322 322 323 319 317 315 317
315 315 314 314 309 312 312 310 310 311 312 312 312 311 310 311 309 310 311 311 311 311 313 313 314 315 314 317 317 317 319 322 324 323 326 327 327 326 323 322 319 318 315 315 316
314 315 312 315 310 311 312 310 311 310 312 312 312 311 310 311 312 311 311 311 311 313 312 313 316 313 314 314 319 319 320 321 322 324 325 327 328 326 324 322 323 320 318 316 316
314 315 312 314 310 311 311 310 310 309 311 311 312 312 312 311 312 313 311 311 311 312 313 313 312 312 314 315 317 318 320 320 321 323 324 326 329 327 323 322 320 320 319 318 317
314 315 313 312 311 310 311 311 311 310 314 312 310 312 311 311 313 311 311 312 312 313 313 314 312 312 315 316 315 318 316 316 319 324 329 326 335 324 324 322 319 317 316 318 316
314 315 313 309 309 310 310 311 311 310 315 311 311 309 311 312 312 312 311 313 316 313 313 314 313 313 313 314 315 316 315 317 318 323 328 328 332 326 321 323 323 321 315 317 316
315 315 313 309 312 312 311 310 308 313 312 314 311 310 313 312 313 311 311 311 312 314 314 313 312 313 312 312 313 314 315 317 319 322 329 328 332 327 325 324 321 319 317 316 316
315 315 313 311 309 311 310 307 313 313 311 315 314 312 310 313 313 312 313 313 313 313 311 313 314 312 313 315 313 315 316 319 322 324 326 325 330 329 321 317 320 316 317 316 316
315 315 313 310 310 310 308 312 314 312 313 313 313 311 315 312 313 312 314 314 311 312 315 312 312 313 312 313 314 315 315 317 320 323 324 328 331 324 325 316 317 318 317 316 317
315 315 313 310 311 309 310 313 311 312 314 315 314 317 316 313 313 311 311 313 311 310 313 315 315 314 313 312 312 315 317 314 322 322 328 328 322 317 316 316 318 318 317 317 316
315 315 313 310 310 309 312 312 312 314 314 314 318 315 316 314 314 312 312 311 311 311 310 313 315 312 311 314 313 317 316 318 320 325 334 326 321 320 319 317 319 318 317 316 316
314 315 313 310 310 311 312 313 311 312 313 315 316 317 316 316 312 313 314 312 312 313 311 313 314 316 313 318 319 319 321 319 321 320 330 327 324 316 317 317 319 318 317 316 316
312 316 312 310 313 312 314 312 312 313 313 314 313 315 316 315 315 312 315 315 313 313 314 314 317 318 318 320 319 321 322 321 320 328 326 321 320 315 314 315 317 317 317 316 315
314 315 312 310 315 314 313 313 312 313 313 313 315 314 314 315 318 312 312 314 314 314 315 314 316 324 324 323 322 322 322 321 323 328 330 323 320 316 313 314 314 317 316 316 314
313 316 314 313 313 314 314 315 314 311 312 313 314 314 317 316 315 316 312 314 313 314 316 314 318 320 330 329 322 323 326 328 328 330 329 323 321 319 316 316 314 317 316 316 315
313 315 313 315 314 314 314 315 315 313 311 313 313 317 317 318 316 315 316 316 316 316 318 320 321 323 323 321 324 326 328 328 329 329 329 321 321 319 316 315 315 316 316 316 315
312 314 312 313 312 314 315 317 317 315 315 315 315 316 315 317 315 311 316 318 320 317 317 318 322 323 328 326 325 327 327 327 327 327 327 326 326 316 315 313 314 316 317 316 315
309 309 314 316 314 315 315 315 315 315 314 315 315 317 318 315 314 313 315 315 317 318 316 319 322 328 324 325 326 327 326 326 326 324 325 328 323 316 317 316 315 314 317 316 315

GFSSW_925_thetae_030.txt.gz
Theta_e
313 314 314 314 314 314 314 315 314 312 314 318 321 324 324 323 322 322 320 320 321 322 321 318 318 319 319 322 328 326 328 329 328 325 325 321 323 321 320 322 323 322 320 321 326
314 314 314 314 314 314 314 313 315 313 312 313 317 319 321 321 320 320 321 320 320 324 322 319 319 319 317 322 326 329 331 331 325 324 324 323 323 321 325 325 325 324 322 324 328
314 314 314 315 314 314 314 313 312 313 313 312 313 315 317 318 318 317 317 321 323 324 323 320 320 319 319 319 323 329 334 328 327 325 324 324 323 322 323 324 324 325 323 323 323
315 315 315 315 314 313 314 313 311 311 313 314 312 312 314 316 312 316 315 320 323 324 323 322 320 320 319 324 323 326 328 329 329 327 327 327 323 323 321 322 322 322 321 321 320
314 315 314 315 314 312 312 313 313 313 311 313 313 311 313 315 315 314 316 313 321 323 322 321 320 320 320 318 319 322 324 325 326 328 328 326 325 323 322 320 319 319 320 320 319
315 314 314 313 314 312 311 312 313 312 311 309 312 313 313 311 310 310 313 313 314 317 320 320 320 319 320 319 318 318 319 321 324 324 326 327 326 322 322 320 320 320 320 319 319
316 315 315 312 312 311 312 313 314 313 312 311 312 312 313 310 308 311 311 313 314 316 315 319 319 319 319 321 318 319 321 320 320 320 323 326 330 329 321 320 320 320 319 318 318
316 316 315 313 310 312 312 312 309 310 312 312 311 312 311 310 310 310 310 311 312 314 312 312 311 313 316 317 319 321 320 324 321 320 322 327 332 327 321 319 320 319 318 317 316
315 316 314 313 310 312 312 310 307 309 309 313 312 310 308 308 310 309 310 311 311 311 311 311 311 312 315 320 321 319 321 322 324 320 324 326 329 326 322 319 320 319 317 317 314
314 315 315 313 311 310 312 309 308 310 312 314 311 312 310 310 310 311 309 311 311 311 312 312 311 312 315 318 320 320 319 320 322 322 322 325 326 325 322 320 321 321 321 315 314
313 314 316 314 313 310 312 310 309 310 312 314 312 311 310 310 310 311 311 311 310 311 313 313 314 314 313 315 316 317 316 317 318 319 322 323 324 323 323 321 319 318 317 314 314
313 313 315 314 314 311 312 308 310 310 311 311 312 311 310 311 312 311 311 311 311 313 311 313 316 313 311 312 316 318 319 318 316 316 320 322 324 323 323 323 322 322 318 314 315
313 313 314 313 314 312 311 309 310 310 311 312 311 312 312 312 313 313 311 310 311 312 312 313 311 311 313 314 315 315 318 317 317 316 316 316 321 323 323 323 321 321 320 314 316
313 313 315 313 311 311 309 309 310 310 313 313 310 312 312 312 313 312 311 312 312 313 312 313 311 312 313 314 314 316 315 317 316 317 319 321 327 323 323 324 322 322 317 316 317
313 314 315 314 309 310 309 310 310 310 304 309 311 310 311 313 313 312 311 312 315 313 312 313 312 313 313 312 314 315 313 314 316 316 318 317 322 324 323 324 324 322 318 316 316
312 313 314 310 309 309 310 311 310 305 307 314 310 310 312 313 313 312 312 312 312 315 313 313 311 312 312 311 312 314 315 316 316 318 323 317 320 321 325 323 322 321 315 315 316
312 313 314 310 311 310 311 308 310 303 310 314 313 311 311 313 312 313 314 314 315 315 312 313 313 311 313 314 313 312 315 318 319 319 317 314 320 318 321 321 320 320 316 315 315
311 312 314 309 311 311 308 311 310 309 312 312 312 311 313 311 312 312 313 314 311 311 312 306 307 312 312 313 314 314 314 318 315 313 313 323 326 322 320 319 319 315 316 315 316
309 313 313 309 311 309 309 312 308 310 313 313 312 314 315 313 313 313 312 311 312 310 312 309 310 312 311 311 312 313 316 312 316 317 322 321 323 320 320 316 315 315 316 316 316
310 312 312 308 310 309 310 312 310 313 313 313 313 314 315 313 314 314 310 309 311 310 309 311 311 313 312 312 312 312 312 314 316 313 322 326 323 317 318 317 316 316 317 317 316
309 315 311 309 309 309 312 314 310 313 312 313 314 317 316 315 313 311 311 310 309 310 309 310 314 313 313 313 315 314 313 314 312 315 322 330 327 318 319 317 317 316 317 316 316
311 311 310 309 313 311 313 312 311 311 313 313 313 315 317 317 317 311 312 311 310 311 312 312 316 316 314 314 312 312 313 313 315 313 317 321 320 315 313 317 317 316 316 316 315
313 313 310 310 311 312 312 312 312 313 313 313 314 313 314 315 318 312 312 311 312 312 315 314 316 317 321 316 317 314 316 314 315 319 317 321 319 314 311 314 316 315 315 315 314
312 314 313 312 312 313 313 313 314 312 313 312 313 313 315 316 314 316 313 312 313 314 315 313 316 317 323 324 322 322 317 318 316 319 316 321 322 318 314 314 315 314 315 314 314
312 314 312 313 313 313 313 315 315 316 312 312 312 313 315 317 315 315 314 314 315 316 316 314 319 315 315 316 319 322 323 322 320 318 319 317 320 321 315 313 315 315 315 314 314
313 314 311 312 313 314 314 315 316 315 313 313 313 314 315 317 315 312 313 315 318 315 317 317 318 316 321 326 322 325 323 322 322 320 317 325 326 316 312 311 313 314 315 315 314
309 309 312 313 314 314 316 314 315 315 314 313 313 314 316 315 313 313 312 313 317 319 317 318 319 320 328 324 325 328 320 327 320 325 328 330 322 316 316 314 314 314 315 315 314

GFSSW_925_thetae_033.txt.gz
Theta_e
313 313 314 314 314 314 314 313 315 314 314 317 320 323 325 324 324 323 321 321 320 320 322 320 318 319 318 320 326 321 327 328 326 324 324 321 323 320 319 320 322 321 321 320 325
314 313 314 314 314 315 314 314 313 313 313 312 317 319 321 322 321 321 322 321 323 324 324 319 318 319 316 319 324 329 331 329 324 322 322 323 321 321 323 323 324 322 321 324 329
315 314 314 314 315 314 314 314 311 313 313 313 311 315 318 318 317 316 317 321 324 325 323 320 319 319 319 318 322 328 332 327 327 325 323 323 323 322 323 323 322 324 323 321 327
316 315 314 314 315 314 313 314 313 311 313 313 311 311 314 316 313 315 318 320 323 324 323 322 319 320 318 322 322 323 324 328 328 327 327 327 323 323 320 320 319 319 320 320 320
317 316 314 314 314 314 313 314 313 312 311 313 313 312 313 315 315 314 316 313 322 324 323 321 320 319 320 317 317 320 322 323 323 325 326 326 327 324 323 320 318 318 318 318 318
317 316 315 314 312 313 312 312 313 313 311 309 311 313 313 309 308 309 312 314 314 323 322 321 320 318 319 319 319 317 318 318 318 321 321 324 325 325 323 319 318 318 318 318 317
316 316 316 314 313 311 312 313 313 313 312 310 309 312 312 310 309 310 310 312 313 317 317 320 320 319 318 320 318 319 320 319 318 319 319 322 324 325 323 321 319 318 317 318 317
315 316 316 316 314 310 312 314 312 312 312 312 311 312 309 309 309 309 310 310 311 313 314 313 313 315 314 316 317 320 319 322 318 318 319 321 324 324 322 324 321 318 316 316 316
313 315 315 316 314 309 311 312 310 308 309 313 312 309 307 307 309 308 309 310 311 311 311 311 311 311 313 318 318 318 320 319 319 319 321 322 324 321 322 320 319 317 316 316 316
314 314 314 316 314 309 312 311 308 309 310 313 311 311 309 311 310 311 310 310 310 310 311 311 311 314 315 317 316 316 319 318 319 320 319 320 322 321 320 321 320 319 317 316 316
315 314 314 315 314 310 312 310 308 309 312 314 313 312 310 310 310 311 310 310 309 310 312 312 313 313 312 313 315 315 316 315 316 315 316 318 320 320 319 319 321 319 318 317 315
311 314 314 314 314 311 312 307 308 309 311 311 312 311 310 311 312 310 310 311 311 312 311 312 314 312 310 311 314 316 317 316 315 315 314 315 316 316 313 315 319 320 320 318 314
310 311 314 313 314 313 311 310 310 309 309 311 311 312 312 311 313 313 310 309 311 312 312 313 311 310 311 313 313 313 314 314 315 314 314 315 315 312 313 316 319 320 320 319 317
309 310 314 313 314 313 311 309 309 310 312 312 310 312 312 313 314 312 311 312 312 312 311 313 311 311 311 312 312 314 312 313 315 317 316 315 317 314 315 317 319 320 320 319 314
308 308 314 313 311 311 310 309 310 308 306 309 310 310 312 313 313 312 312 312 314 313 311 313 312 312 313 312 313 313 313 314 316 316 314 314 314 313 315 316 319 319 320 316 313
307 307 313 313 311 311 309 309 310 310 309 312 310 312 313 313 314 311 312 312 312 314 313 312 311 311 311 311 311 313 314 315 317 316 317 314 316 313 311 316 319 319 318 316 315
307 307 311 310 310 309 310 310 312 310 309 312 311 309 310 311 312 313 313 315 316 317 314 313 314 312 311 313 311 311 316 317 318 320 316 312 315 314 310 315 318 318 316 315 312
307 306 310 311 308 309 310 311 311 308 311 311 311 310 311 311 312 312 314 315 312 313 311 309 308 310 311 313 312 313 313 317 318 317 314 314 316 314 312 312 311 312 314 312 313
307 305 310 310 307 309 311 312 308 308 312 312 311 312 312 312 312 313 313 312 310 311 313 310 308 309 310 310 311 313 315 311 314 316 319 316 314 310 313 314 314 314 313 313 314
307 309 310 310 309 309 311 310 308 310 311 311 312 312 313 313 313 314 313 309 310 309 307 307 308 310 312 311 311 311 310 314 315 315 317 314 317 314 311 311 310 313 314 313 314
305 309 310 310 309 310 312 314 309 312 311 312 312 314 313 314 313 312 310 309 309 310 309 308 312 312 313 313 314 314 314 313 310 312 314 314 316 316 314 311 310 313 314 315 315
307 308 310 310 306 310 312 311 310 312 312 312 313 313 315 314 315 310 310 309 308 309 311 310 314 314 312 312 312 312 313 313 313 310 311 317 316 313 311 310 314 316 316 315 314
305 311 310 308 309 309 312 312 312 312 312 312 313 313 314 316 319 312 310 309 309 309 311 312 314 315 316 315 313 315 314 313 312 311 311 311 310 313 310 313 314 317 317 316 313
305 308 311 308 310 311 313 313 313 312 313 312 313 313 314 316 314 315 314 312 310 310 313 313 315 316 318 318 316 318 316 313 312 314 314 313 312 311 311 314 314 315 316 315 314
306 308 308 309 310 311 311 311 313 315 312 313 314 314 315 317 315 315 313 313 312 314 315 314 316 316 315 315 317 318 315 314 314 312 314 313 314 313 313 315 316 316 314 314 314
309 313 311 311 312 312 311 313 314 314 313 314 315 312 313 316 314 313 313 313 313 316 316 315 317 315 317 317 317 320 318 314 316 312 315 318 317 315 313 314 313 314 315 315 314
309 308 311 313 313 314 314 314 314 314 313 312 312 314 315 314 313 312 311 312 313 315 317 316 316 319 323 320 322 324 322 316 317 315 314 320 317 314 314 314 315 314 315 315 314

GFSSW_925_thetae_036.txt.gz
Theta_e
316 314 314 314 314 315 315 314 314 314 314 314 318 322 323 325 324 323 322 321 320 320 321 322 318 318 318 319 324 318 326 327 325 323 322 320 321 320 318 318 320 320 321 320 324
318 315 314 314 314 314 315 314 313 314 313 311 315 319 322 323 323 323 321 321 324 325 324 319 317 318 316 319 323 327 328 327 322 320 322 321 321 321 322 320 322 322 321 323 327
318 317 314 314 314 315 314 314 313 311 311 312 310 315 318 318 316 317 318 323 325 325 324 319 318 318 318 317 321 326 330 326 326 325 325 323 322 321 323 324 321 322 320 321 327
318 318 317 314 314 315 313 314 313 311 311 313 312 311 314 316 315 315 320 320 322 324 323 321 318 318 318 320 320 323 322 326 327 327 327 327 324 324 321 321 319 318 318 318 319
315 317 317 315 314 315 314 313 314 313 311 312 313 312 313 313 313 313 315 312 323 323 322 321 319 318 319 316 317 319 320 321 320 319 322 324 325 326 324 320 320 320 318 317 316
316 315 317 316 314 313 313 312 313 313 312 310 311 312 312 306 308 309 311 313 321 324 322 320 319 317 319 319 318 317 317 317 317 318 318 321 321 322 322 320 319 318 318 317 316
316 315 316 316 315 313 314 312 312 313 312 311 311 312 312 308 309 310 310 311 312 320 319 320 319 318 318 320 317 318 319 317 317 317 317 318 321 321 319 320 322 321 318 317 316
312 315 314 315 315 314 312 313 315 313 312 312 312 312 308 308 310 309 309 310 312 313 314 315 317 317 315 314 315 319 317 320 316 317 317 319 322 319 317 319 321 320 317 317 317
310 312 314 315 315 315 311 312 313 309 308 312 313 308 308 308 308 309 309 309 311 311 312 312 310 311 312 316 315 316 317 317 318 316 318 319 321 321 318 318 319 318 317 317 316
308 309 313 314 314 315 310 312 310 308 310 312 311 311 309 310 309 310 309 310 310 310 311 311 312 312 313 315 314 314 315 315 317 317 315 316 318 317 316 316 317 317 316 315 315
306 308 309 313 314 315 312 309 307 307 310 313 313 311 310 310 310 310 310 310 309 310 312 311 312 314 313 311 311 314 315 315 314 313 314 315 315 315 314 315 316 317 317 316 316
306 307 308 313 314 314 312 308 307 307 310 309 311 311 311 311 312 310 310 310 311 312 310 312 313 310 309 310 312 313 315 315 312 312 314 314 314 313 312 313 314 315 317 317 317
305 306 309 309 314 313 310 309 309 309 308 308 310 312 312 311 313 312 309 309 310 311 311 312 310 310 312 312 312 312 313 313 312 311 312 313 313 309 309 310 311 311 312 316 317
304 305 307 309 313 313 311 309 310 308 304 309 311 311 311 311 312 311 310 310 310 310 310 311 311 311 311 311 311 313 311 312 312 313 313 312 315 310 311 309 308 310 313 316 316
304 305 306 308 312 312 311 309 309 305 304 308 310 310 312 311 312 312 310 312 313 312 311 312 311 312 313 311 310 312 311 312 313 314 313 313 313 309 309 310 311 312 313 314 316
302 304 306 307 311 312 311 309 309 303 310 313 310 312 314 313 314 311 313 312 312 313 313 312 310 311 310 310 310 311 312 313 314 317 318 313 313 312 309 308 309 311 312 315 315
304 304 306 307 312 311 309 309 312 312 308 312 311 311 312 313 314 313 314 316 315 317 315 313 314 312 311 313 310 310 314 314 314 316 314 311 313 312 308 308 309 310 312 313 313
304 305 306 307 311 309 309 309 309 309 310 311 309 309 310 310 311 313 314 314 313 314 312 312 308 312 312 312 311 311 312 311 310 314 313 311 314 311 309 309 309 309 309 312 312
305 305 306 307 309 309 310 312 308 308 310 312 310 310 310 311 311 312 313 313 311 313 315 312 308 307 309 310 311 313 314 310 313 311 314 314 312 310 309 308 308 310 308 307 310
305 304 307 308 309 309 310 310 308 309 310 310 311 310 312 313 312 314 313 309 311 309 309 307 305 307 310 309 310 312 311 315 314 315 314 312 311 311 310 309 307 308 309 311 311
304 306 308 307 309 309 311 311 308 311 310 311 310 311 312 313 313 313 310 309 308 308 308 307 308 309 312 313 312 314 314 314 312 313 310 310 309 308 312 313 315 311 305 309 312
306 308 309 309 308 306 312 311 311 312 311 311 311 312 312 312 313 312 310 309 307 308 311 309 312 312 310 310 311 311 313 313 315 311 310 308 310 312 312 312 314 313 311 311 312
306 308 309 308 307 308 311 311 311 312 312 311 311 312 312 314 316 314 312 309 307 308 309 310 313 311 309 315 312 314 313 313 313 314 312 309 309 307 308 309 313 315 314 312 310
305 309 309 307 308 311 312 312 312 311 311 311 312 312 313 316 314 314 314 312 308 308 310 311 314 313 315 315 315 315 315 313 313 315 312 311 309 307 308 312 312 314 315 313 310
304 306 306 308 307 311 312 311 312 313 312 311 313 312 312 317 314 315 314 312 311 311 312 313 316 315 315 315 315 316 317 314 314 313 312 311 310 310 311 312 312 313 315 316 311
308 309 309 307 310 311 312 310 311 313 311 313 313 311 311 315 315 314 312 313 313 313 313 314 317 316 317 317 317 317 317 317 315 315 312 311 311 310 312 312 312 311 314 316 312
307 306 306 308 311 312 312 312 312 312 312 310 312 313 313 313 313 312 311 312 312 314 317 316 316 318 320 319 320 325 318 318 316 313 313 313 312 310 313 315 314 313 315 316 313

GFSSW_925_thetae_039.txt.gz
Theta_e
317 319 317 314 314 314 315 314 314 314 314 312 314 318 322 323 324 322 321 321 321 320 321 321 317 317 317 319 323 318 330 330 326 323 323 320 321 320 318 320 320 320 321 320 324
318 317 318 315 314 314 315 314 313 314 314 313 311 317 320 322 323 324 322 322 322 325 323 319 317 317 317 319 324 328 331 328 323 321 323 321 321 321 323 322 323 322 320 323 326
318 319 317 316 314 313 315 315 313 312 313 313 312 311 317 318 316 317 320 323 325 325 324 319 317 317 318 318 322 327 329 325 325 325 326 326 325 322 323 326 323 324 322 320 327
316 318 318 317 316 313 314 315 314 312 311 313 313 310 313 316 318 317 320 319 322 325 323 320 317 317 318 320 319 324 322 325 326 325 326 327 325 328 323 324 320 319 319 319 321
314 315 317 316 316 315 312 314 313 314 312 311 313 311 312 311 315 313 314 314 322 322 322 321 319 316 318 316 317 321 320 320 320 317 318 322 325 326 326 324 321 322 323 322 321
311 312 314 315 316 315 313 312 312 314 313 310 310 312 311 305 307 309 313 313 321 323 321 319 320 316 317 318 318 316 318 318 317 318 318 321 321 322 322 322 323 322 323 322 320
308 310 311 315 315 316 314 311 311 313 312 311 310 311 311 308 308 310 310 311 319 322 320 320 318 317 317 319 317 317 320 318 318 318 318 317 320 320 319 319 322 322 322 322 322
307 308 310 312 315 316 315 313 311 312 313 312 312 312 307 308 309 309 310 310 312 317 317 321 320 317 316 314 314 318 316 319 316 317 317 318 318 318 316 318 320 320 320 321 321
305 306 308 309 313 315 315 312 312 313 311 311 312 307 309 308 307 308 309 309 311 312 312 316 312 312 312 315 315 314 316 317 317 316 317 319 321 319 318 317 318 318 319 319 320
305 306 307 307 309 314 315 313 312 308 309 310 312 310 309 310 308 309 309 310 310 309 311 310 312 313 314 315 316 314 315 315 317 314 314 315 316 315 314 315 317 316 316 317 318
304 306 306 307 308 314 315 311 309 309 310 309 312 310 310 309 310 309 309 309 309 309 313 311 314 315 314 312 311 313 315 315 314 313 313 314 315 314 314 313 314 314 315 316 317
303 305 305 307 308 311 312 309 307 306 308 308 310 310 310 310 311 310 309 310 311 312 309 312 314 311 310 310 311 312 313 313 312 311 312 313 313 312 311 312 312 312 313 314 315
303 303 304 305 308 308 311 309 308 308 306 308 308 311 311 310 312 311 309 308 310 311 311 312 310 310 311 311 312 312 314 313 312 311 311 311 312 310 309 309 309 311 311 312 314
302 303 304 304 306 307 311 309 308 308 303 307 310 310 311 311 312 311 309 309 310 311 310 311 311 311 311 312 311 313 310 312 312 313 313 310 314 310 309 309 309 308 309 311 311
302 303 303 304 306 309 310 309 309 306 302 308 311 310 311 312 310 312 309 311 312 311 311 311 311 312 312 311 310 312 310 311 312 314 313 313 315 313 309 310 309 309 309 308 310
301 302 303 304 305 306 309 309 307 308 303 313 310 314 314 311 313 312 312 311 312 312 312 311 309 310 310 310 310 310 311 313 314 316 317 313 314 313 311 310 310 308 309 310 311
301 303 304 304 306 306 309 309 310 309 307 312 311 313 313 313 314 313 315 314 315 316 315 314 314 313 311 312 311 311 315 314 313 315 313 310 314 313 309 308 308 308 308 308 311
302 303 304 304 304 308 309 308 312 309 309 309 310 311 312 312 312 314 313 315 314 313 313 313 310 312 312 313 311 312 313 313 310 311 312 310 315 312 308 309 309 309 308 308 310
304 305 305 304 306 309 307 313 309 308 310 310 309 311 310 310 311 311 314 314 313 313 314 312 311 306 309 310 311 312 313 311 311 310 312 311 310 309 309 308 308 308 309 310 308
305 304 305 305 307 309 308 313 307 308 310 310 312 309 311 310 311 311 312 309 311 312 310 310 312 305 308 309 310 310 310 313 313 315 315 312 311 310 309 308 309 313 314 311 308
304 303 304 306 309 305 311 311 309 309 309 310 310 311 310 312 311 312 310 309 308 308 310 309 308 307 310 311 310 312 312 314 314 315 315 313 310 306 307 309 314 313 314 312 307
304 306 305 308 305 302 310 309 312 311 310 310 310 310 311 311 312 312 312 308 306 307 311 309 311 309 308 308 309 310 312 312 315 316 314 314 312 310 311 313 313 315 315 313 311
303 304 308 306 307 308 310 311 312 312 311 310 311 311 312 312 314 312 312 309 307 308 309 309 313 312 307 311 310 313 312 312 313 313 315 314 311 307 307 307 310 313 315 311 308
304 306 305 305 305 308 311 311 313 311 311 310 311 311 312 314 313 313 313 312 308 308 310 309 312 309 312 311 313 315 315 312 313 315 313 314 311 308 307 308 310 311 315 311 308
304 305 306 308 308 310 311 311 313 312 310 310 311 311 312 314 313 314 312 311 310 310 311 311 315 313 312 313 314 315 315 315 314 313 315 312 312 310 309 311 310 311 314 313 308
306 305 307 307 308 311 312 311 312 311 311 312 311 312 312 313 312 314 312 312 312 312 311 312 316 316 316 316 316 318 318 316 317 314 314 313 313 310 308 311 312 312 315 315 309
303 305 306 309 309 312 312 310 311 311 310 309 311 311 312 312 311 311 312 311 312 315 314 315 316 318 318 317 319 325 321 318 317 314 314 315 313 310 310 311 313 315 315 316 310

GFSSW_925_thetae_042.txt.gz
Theta_e
318 319 319 318 315 314 313 315 314 315 314 315 315 316 320 323 324 323 323 322 322 321 320 321 319 318 319 321 326 326 325 324 324 323 323 323 323 323 322 323 325 324 325 326 326
316 317 318 319 317 315 313 313 314 314 312 314 314 313 318 322 324 324 323 322 322 324 322 321 321 318 320 322 325 327 326 324 323 324 323 323 323 324 325 325 325 325 324 325 328
314 315 317 318 318 316 315 314 313 314 312 312 312 311 316 319 320 322 322 325 325 325 324 321 319 319 321 321 324 325 328 324 326 324 326 327 327 325 325 325 326 326 325 325 326
309 313 315 316 317 317 315 316 314 313 313 311 312 311 312 317 317 320 320 320 323 325 322 322 321 321 321 322 321 325 324 324 325 326 327 328 326 327 325 324 325 325 324 325 326
307 309 312 313 315 316 316 316 315 314 314 310 312 311 313 314 317 315 316 315 320 324 322 321 323 322 323 321 321 322 321 321 321 322 322 321 323 324 325 325 325 326 326 326 327
306 306 309 311 312 315 317 314 315 314 313 312 309 311 311 309 308 310 314 316 322 321 323 321 321 320 321 321 320 319 320 320 320 320 320 321 321 321 321 321 321 322 323 324 325
304 306 307 308 311 313 316 315 314 313 313 311 309 312 312 311 309 310 310 313 320 322 322 321 319 320 321 321 320 319 321 319 319 319 320 319 321 320 320 319 320 321 321 322 322
304 305 306 306 309 310 315 316 313 313 313 313 312 311 312 309 310 309 310 311 317 319 321 320 319 319 318 317 317 318 319 321 319 318 318 318 320 318 318 320 320 320 320 321 321
303 304 305 306 308 308 312 316 313 313 313 313 312 311 314 308 309 309 310 311 314 314 316 320 318 316 316 317 317 317 318 319 318 317 319 320 321 319 320 319 320 320 320 321 321
303 304 304 306 307 307 310 316 313 313 312 312 312 312 311 312 309 309 309 311 312 314 315 315 315 316 315 317 320 318 317 316 317 316 316 317 318 317 318 318 319 319 320 321 321
302 303 304 305 306 307 308 315 309 310 310 311 311 311 311 310 310 310 310 311 312 314 315 314 316 317 316 316 316 315 316 317 315 314 314 314 314 314 313 314 314 315 316 317 318
302 303 303 304 305 306 307 311 310 310 311 310 312 311 311 311 312 311 310 312 313 315 314 315 315 314 313 314 314 315 316 316 314 312 313 313 314 313 313 313 314 314 314 313 314
302 303 303 304 304 304 305 307 309 308 311 310 310 312 312 311 313 312 310 311 313 315 315 315 313 311 313 314 314 315 315 315 314 313 312 314 316 316 313 312 312 312 312 313 313
302 302 303 303 304 305 305 307 308 307 317 312 310 310 312 312 313 311 310 311 312 314 314 314 313 312 313 313 313 315 312 313 314 314 317 313 318 315 314 314 314 313 313 313 313
302 303 303 303 303 304 307 308 307 307 321 311 311 310 311 311 312 312 310 311 313 313 313 314 313 314 313 313 312 313 311 312 313 314 314 315 316 314 313 313 313 313 313 313 313
303 301 301 303 304 303 305 307 306 312 317 313 311 313 314 311 312 312 312 311 311 312 312 312 311 312 312 312 312 312 313 313 313 315 317 313 316 314 312 311 312 312 312 312 312
302 303 303 303 304 304 304 306 311 319 309 312 312 314 313 312 314 314 314 314 316 316 316 314 314 312 312 313 312 312 316 317 317 317 316 311 314 314 312 312 312 312 311 312 312
301 302 304 303 305 304 305 304 316 312 312 310 312 313 315 312 314 313 315 315 313 313 315 316 318 314 313 313 314 314 313 315 316 314 311 312 314 312 312 311 312 311 311 313 314
302 304 303 305 305 303 308 311 315 311 310 310 312 313 313 312 313 312 313 313 313 313 316 316 314 309 312 312 312 312 315 312 315 313 314 311 311 311 311 311 310 311 313 314 314
304 305 305 305 304 305 308 312 311 311 310 310 313 311 312 312 312 312 313 312 312 313 312 313 316 309 310 311 312 312 311 313 315 314 316 314 313 313 312 311 311 311 313 313 315
303 306 305 304 305 302 311 313 311 310 310 311 312 312 312 311 312 312 313 311 311 312 313 311 311 312 310 311 312 312 313 313 313 315 316 317 315 312 310 309 310 313 313 314 316
303 305 304 305 306 304 312 309 311 310 311 312 311 312 312 312 313 313 314 312 309 311 314 311 311 312 312 310 310 310 312 312 316 317 315 316 317 311 310 311 313 312 311 313 315
304 302 306 306 310 310 310 312 312 312 312 312 313 313 312 312 315 313 312 310 309 310 312 311 312 315 316 314 310 312 312 312 314 314 317 318 317 310 310 313 312 310 311 313 315
304 306 305 306 307 311 312 313 314 312 311 312 312 312 313 313 313 314 314 312 310 310 310 310 313 315 318 314 314 316 315 314 313 317 316 318 315 313 310 311 311 310 310 315 315
301 304 306 310 309 310 312 312 313 313 312 311 312 313 313 315 314 314 313 312 311 309 311 311 316 313 313 313 314 316 316 316 316 314 316 316 315 313 312 311 310 310 312 316 315
302 303 305 308 309 310 312 313 313 312 312 313 313 312 312 313 313 314 312 312 314 312 312 312 315 315 316 314 316 318 319 320 320 320 317 316 316 313 313 311 311 313 313 315 315
302 303 305 308 309 312 312 312 312 312 311 312 312 312 313 312 312 311 312 312 313 314 313 314 313 316 318 316 318 325 322 321 320 316 316 319 315 313 313 314 312 313 314 315 313

GFSSW_925_thetae_045.txt.gz
Theta_e
314 316 318 318 319 319 316 316 315 316 315 315 315 314 317 321 323 323 324 324 323 321 321 321 320 320 320 322 323 326 328 326 325 322 323 323 324 324 323 323 324 324 325 328 329
311 312 315 317 317 319 318 316 316 316 315 313 314 313 315 319 323 323 323 324 322 324 323 322 321 320 322 323 324 327 325 324 321 322 323 323 324 324 324 324 323 325 325 326 328
307 309 311 313 315 317 319 317 316 316 315 311 314 311 312 318 322 323 324 325 325 324 324 322 322 321 321 321 324 326 326 323 323 326 325 324 323 324 325 326 324 324 325 326 328
305 306 308 310 313 315 317 318 317 316 315 311 312 312 309 318 322 321 321 326 326 325 325 323 322 323 323 323 322 324 323 323 324 325 326 327 325 325 324 325 324 325 327 326 327
304 305 306 308 310 312 314 317 317 316 315 312 310 312 312 317 318 318 319 319 320 323 325 324 324 324 324 323 322 323 323 322 322 323 324 324 324 325 325 325 324 324 325 327 327
304 303 305 306 307 308 312 314 317 316 315 313 309 311 313 313 311 314 315 316 320 322 323 323 323 322 323 323 322 321 321 322 322 321 322 322 322 321 321 321 322 323 324 324 326
303 303 304 305 307 307 310 312 316 316 314 314 309 312 313 313 310 310 313 316 320 320 323 323 321 321 321 322 321 321 323 321 320 320 321 321 322 322 321 321 321 321 321 321 322
303 302 304 304 306 307 309 310 314 316 313 314 311 312 315 311 311 311 312 315 321 321 320 320 320 320 320 318 318 320 320 322 320 319 319 319 322 320 320 320 321 321 321 321 321
303 302 303 304 305 306 308 308 310 316 313 314 313 314 315 310 311 311 310 313 318 320 321 320 319 320 318 318 318 319 321 321 320 319 319 320 322 321 320 321 320 320 320 320 321
303 302 302 303 304 305 307 308 309 316 314 314 313 314 312 313 311 311 311 312 315 316 318 318 317 317 318 318 321 320 320 319 318 319 318 318 319 319 319 319 320 320 321 321 321
303 302 303 303 304 305 306 306 314 314 314 314 314 313 313 311 310 311 311 312 314 315 317 315 317 318 318 317 318 317 318 319 318 317 316 316 316 316 316 316 316 317 317 317 318
302 302 302 303 304 305 305 306 307 309 313 312 312 312 312 311 313 312 311 314 314 317 315 316 318 316 316 316 317 318 318 318 316 316 314 315 316 315 316 316 316 316 316 316 316
302 302 303 301 303 304 305 305 302 306 312 313 312 312 313 312 313 313 312 313 314 315 315 318 316 314 315 316 316 316 317 317 317 315 314 315 317 318 317 317 316 316 316 316 316
302 302 302 303 303 304 305 305 303 308 313 313 313 312 313 313 315 312 312 313 314 315 316 316 314 313 314 315 315 317 315 314 315 316 319 315 321 317 316 316 315 315 315 315 315
301 302 303 303 303 304 304 305 304 306 322 313 312 310 313 313 314 313 311 312 314 314 314 316 315 315 314 314 313 315 313 313 314 314 315 316 318 316 315 314 314 315 314 314 314
301 302 302 301 303 303 304 303 304 309 322 314 312 312 313 312 313 313 312 311 312 312 313 314 312 313 314 313 313 313 313 313 313 315 319 316 317 316 313 313 313 313 313 313 313
301 301 301 302 302 303 304 305 309 314 312 313 313 313 313 312 314 314 313 314 315 316 316 314 314 312 312 314 313 313 315 319 321 319 318 313 314 314 313 313 313 313 313 312 312
302 302 304 304 304 303 304 305 313 315 313 311 313 313 314 312 314 313 313 314 313 313 315 316 319 314 313 313 315 314 315 318 320 318 316 313 314 313 313 313 312 313 313 312 312
302 304 304 305 304 304 306 309 315 314 311 313 314 315 315 313 315 315 314 314 313 313 318 317 317 312 314 313 313 315 316 313 315 313 315 312 311 312 313 313 312 312 312 312 313
303 304 306 305 305 305 308 309 312 311 311 313 314 312 315 314 315 313 315 314 313 313 313 315 318 312 312 312 313 313 312 314 315 316 316 315 315 316 315 314 313 312 312 312 313
304 305 306 305 305 305 310 312 312 310 311 313 312 312 312 313 313 313 314 313 313 313 313 313 314 313 311 313 314 314 314 313 313 315 317 319 317 315 313 313 311 311 312 313 313
303 306 306 305 307 307 311 311 311 311 312 312 312 312 312 312 313 314 314 314 312 313 314 312 313 315 314 311 311 312 313 313 316 316 316 317 318 313 313 312 311 311 312 312 312
305 302 306 306 312 312 311 312 312 312 312 313 313 313 312 313 314 314 314 312 311 313 314 312 314 316 318 314 312 312 312 312 314 315 318 319 318 313 313 313 312 312 312 311 311
302 308 306 306 309 310 312 313 315 312 312 313 314 313 314 315 314 315 315 312 311 311 311 312 313 316 320 317 315 316 315 315 314 317 317 318 316 314 314 315 314 311 312 312 311
300 305 305 311 311 312 312 313 314 313 313 313 313 314 315 315 315 315 314 314 312 311 311 312 316 314 314 313 313 315 317 317 318 316 317 316 316 316 316 316 314 313 311 311 314
304 304 304 310 310 311 311 315 314 313 313 313 314 313 313 314 313 315 315 313 314 312 312 312 315 314 315 314 315 319 318 318 320 321 320 320 319 316 315 313 314 312 311 313 313
302 302 305 309 310 312 311 312 312 313 312 312 313 313 313 313 312 312 312 313 314 314 314 314 314 316 317 316 317 324 323 322 321 320 320 320 318 315 314 314 315 314 314 314 315

GFSSW_925_thetae_048.txt.gz
Theta_e
308 310 312 314 316 317 318 319 317 317 316 316 315 315 314 316 321 322 322 323 324 323 319 324 321 320 321 322 322 323 326 327 326 324 323 321 323 323 323 322 322 323 323 327 335
305 306 308 311 313 314 316 318 318 317 316 316 315 315 311 315 320 321 320 324 325 324 321 322 321 320 322 322 322 325 329 329 325 322 323 323 323 323 323 322 322 322 322 328 329
305 305 305 307 310 312 314 316 319 317 316 315 314 313 310 314 320 320 322 323 326 325 324 322 321 320 322 321 323 324 327 324 322 321 325 325 324 323 323 324 323 321 322 324 328
305 305 305 305 307 309 311 313 316 319 317 315 313 312 309 316 320 322 324 324 325 324 324 324 323 322 323 322 320 324 324 323 324 323 325 325 324 325 322 322 322 321 322 325 325
305 304 304 304 305 306 308 310 313 317 317 315 312 312 311 316 318 320 320 324 325 324 325 325 323 322 324 322 321 321 321 322 322 322 322 324 325 324 324 322 321 322 322 325 325
305 305 304 303 305 306 308 308 312 315 318 315 312 311 313 313 312 316 316 316 319 323 325 325 324 322 323 323 323 322 322 322 321 321 321 322 321 321 320 319 320 321 321 321 323
305 305 304 304 304 305 306 307 311 312 315 315 313 312 313 313 311 311 314 314 319 319 324 324 322 322 322 323 321 321 322 321 321 320 321 320 321 321 319 319 319 318 319 319 320
305 304 304 303 304 304 305 307 308 310 312 315 314 312 314 313 313 311 311 314 318 319 322 322 322 321 322 318 319 322 322 323 319 320 319 319 321 319 318 318 318 318 318 318 318
304 304 304 303 303 304 305 306 307 309 311 315 314 313 314 312 312 312 311 314 318 319 320 322 320 321 319 320 321 319 319 320 320 319 319 318 320 319 318 319 318 317 317 317 318
304 304 303 303 303 304 305 305 306 308 310 314 314 315 313 314 312 312 311 313 318 320 321 321 321 320 319 319 320 319 319 318 318 319 318 318 318 317 316 316 317 317 317 316 317
303 303 303 303 302 304 304 305 308 312 313 315 315 314 313 313 312 312 311 312 315 319 320 320 321 320 318 318 318 317 318 318 317 316 315 315 315 314 314 314 314 315 315 316 317
303 303 303 303 303 303 302 305 305 306 310 314 314 313 312 311 313 313 312 314 316 317 316 316 317 316 316 316 317 316 318 318 316 315 315 314 314 314 314 313 313 313 313 314 314
302 302 302 301 302 303 304 304 305 302 305 312 314 313 312 312 313 314 312 314 315 317 317 317 315 315 315 316 316 317 317 316 315 314 313 313 315 314 315 314 313 314 313 313 313
302 302 302 302 303 303 304 305 304 302 310 313 315 313 313 313 314 312 313 314 314 316 314 315 314 313 315 316 315 317 315 315 315 315 317 313 317 314 313 313 314 312 312 312 313
301 302 302 302 302 303 303 303 303 302 313 314 314 312 313 314 314 313 312 313 315 315 315 316 315 314 315 315 314 315 313 314 314 314 313 314 314 314 314 313 312 311 311 311 311
301 302 302 301 302 302 303 303 303 308 313 315 312 315 315 314 314 312 313 312 313 313 314 315 313 314 314 313 313 313 313 314 313 314 317 314 314 314 313 312 310 309 311 311 311
301 302 303 303 302 302 302 303 308 311 311 315 314 315 314 315 315 314 314 314 315 315 316 313 314 312 313 314 313 314 314 315 319 317 314 313 315 314 312 311 311 310 312 311 311
302 302 304 304 304 302 304 305 309 314 314 312 313 314 314 314 314 314 315 315 313 312 315 315 317 314 312 313 314 315 315 316 317 317 316 313 313 310 311 310 312 312 312 311 310
302 303 304 303 304 303 305 307 310 315 312 315 314 316 314 313 314 314 314 312 312 312 317 316 318 314 313 312 313 315 316 313 314 312 310 310 309 308 309 309 309 310 310 309 308
303 304 305 304 304 304 307 309 310 308 312 313 315 314 315 314 315 314 314 312 312 313 312 315 318 313 314 313 313 313 312 313 311 308 312 313 311 312 312 312 310 309 310 309 310
303 304 305 304 304 306 308 311 309 310 312 313 313 313 312 314 313 314 314 313 311 312 312 312 314 313 312 313 313 314 315 312 312 311 311 314 313 312 312 311 310 309 308 309 312
301 305 305 304 305 305 311 309 310 312 313 312 312 312 312 312 313 312 313 314 312 312 313 312 314 316 313 311 311 313 313 312 309 309 311 311 314 312 310 311 312 311 309 308 310
304 304 304 305 306 307 310 312 310 313 313 313 313 312 311 312 314 314 313 311 312 313 314 312 314 313 315 313 311 311 312 312 312 312 312 315 313 311 310 312 312 312 311 309 309
304 307 306 305 307 309 311 311 314 312 314 313 313 312 312 314 313 315 313 312 311 313 313 312 314 312 314 316 315 312 313 312 313 316 314 315 313 312 313 315 315 314 313 310 310
302 305 305 310 310 311 312 312 313 314 313 313 314 314 313 314 314 314 314 313 312 312 310 312 313 313 313 313 312 313 314 314 315 314 315 314 315 316 317 315 314 313 313 313 311
304 303 303 308 310 311 312 313 314 313 314 313 315 314 314 315 315 314 313 313 313 311 312 312 313 313 311 312 313 314 314 314 316 317 319 320 321 317 315 313 314 314 314 314 312
301 302 305 309 311 312 313 313 313 312 313 313 313 313 314 314 312 312 312 312 313 312 313 314 313 315 316 314 315 319 318 318 321 321 321 323 320 317 316 316 315 314 314 314 313

GFSSW_925_thetae_051.txt.gz
Theta_e
306 307 306 307 308 312 314 315 317 320 318 317 316 315 315 315 315 319 321 319 321 325 321 323 322 321 321 319 320 319 322 324 325 324 322 319 319 321 320 320 320 321 323 331 339
306 306 306 306 306 307 310 313 314 317 318 317 316 315 315 315 315 318 320 321 325 325 325 321 322 320 319 320 320 319 323 324 323 321 320 322 322 320 321 321 320 321 324 330 338
306 306 306 305 305 306 307 309 312 314 317 317 316 314 313 312 317 318 315 322 325 326 323 321 321 319 320 319 319 320 323 324 324 322 322 324 323 322 321 322 319 320 319 324 329
307 306 306 306 305 305 305 307 308 311 315 318 315 312 313 313 317 321 323 323 325 325 324 323 323 324 320 320 319 322 321 321 322 322 322 324 323 324 323 320 319 319 320 322 322
307 307 306 306 305 305 305 305 307 309 312 315 316 311 313 314 317 318 323 325 324 324 324 324 324 322 321 320 319 319 319 320 320 320 319 321 323 323 321 319 318 318 319 321 321
307 307 306 306 305 305 305 305 306 308 311 313 317 313 313 314 312 316 317 321 324 323 324 324 324 320 322 323 322 321 320 319 319 319 318 320 320 320 320 318 316 316 316 317 318
306 306 305 305 305 305 304 304 305 307 309 311 314 313 313 312 310 315 316 315 318 322 324 324 323 322 321 322 319 321 321 319 319 319 319 318 320 319 317 317 317 316 315 316 315
305 305 305 304 304 304 304 304 305 306 307 310 312 313 312 311 311 311 312 314 318 319 320 323 322 321 322 317 319 321 320 323 319 319 319 318 321 318 317 316 317 317 317 314 315
304 304 304 304 304 304 303 304 305 306 307 309 312 312 311 311 313 312 310 313 317 319 321 322 321 321 320 321 321 318 318 320 320 317 319 319 320 318 316 315 314 315 315 316 316
303 303 303 303 303 304 304 304 303 306 306 308 312 311 312 314 312 312 311 313 317 320 321 322 321 320 317 319 322 318 319 316 316 317 317 317 316 315 315 313 312 312 312 312 315
303 303 303 303 303 303 303 302 302 306 307 313 314 313 313 313 312 312 310 312 319 320 322 322 322 320 317 316 316 317 316 317 315 314 313 314 314 312 311 311 312 312 310 313 314
302 303 303 303 303 303 303 303 303 303 306 308 311 312 312 312 313 312 311 314 319 322 316 318 320 318 316 317 318 317 315 316 315 314 313 312 313 312 312 312 312 312 310 311 313
302 302 302 303 302 303 303 303 303 303 305 307 306 314 313 312 313 313 311 313 315 316 316 316 314 314 314 315 316 316 316 315 315 313 311 311 312 312 312 311 311 312 311 310 311
302 302 302 303 303 302 302 302 303 302 308 312 311 313 312 313 314 312 312 313 315 316 316 315 314 314 315 316 314 316 312 314 314 313 315 311 315 311 311 310 311 309 309 311 310
301 301 302 303 302 302 303 303 302 302 308 312 311 313 312 314 313 313 312 313 314 316 314 315 315 314 314 315 314 314 312 312 312 312 310 311 312 310 309 312 311 309 306 307 308
301 302 302 303 302 300 302 302 303 303 305 315 313 315 314 313 314 312 313 312 312 314 313 314 312 313 313 312 312 312 312 312 312 311 311 310 312 310 311 311 310 308 307 308 308
301 301 303 303 302 302 301 303 300 300 308 313 313 314 315 315 313 314 314 313 313 316 316 313 313 311 312 313 312 312 311 306 318 316 311 311 312 310 310 310 310 308 307 308 307
301 302 303 303 304 303 302 305 303 308 310 314 316 314 317 313 314 315 314 313 312 311 310 310 313 312 311 312 312 313 311 307 311 311 315 311 314 311 308 309 307 309 309 307 309
303 303 303 304 304 302 304 306 306 309 311 315 314 316 316 314 314 314 314 312 311 310 311 312 314 312 311 311 312 314 312 310 309 309 305 309 307 306 307 307 306 307 308 306 305
303 302 304 304 304 302 304 307 309 307 307 313 316 314 316 315 314 314 313 311 311 310 311 314 315 314 313 313 313 311 310 309 302 304 309 310 309 310 311 310 308 307 307 306 307
302 304 304 303 303 303 304 308 308 305 311 314 313 314 312 314 313 313 312 312 310 310 311 312 311 314 313 314 313 314 315 311 307 306 306 310 311 307 310 310 310 309 309 307 307
300 304 303 304 302 304 309 309 305 309 312 313 311 310 311 313 313 313 313 312 310 310 312 312 313 312 310 309 310 311 312 310 302 303 303 309 312 309 309 309 309 310 312 311 310
304 305 304 303 303 304 308 308 307 313 314 314 312 311 311 312 313 312 312 311 311 311 312 311 313 312 315 312 312 311 313 310 308 307 303 309 310 308 307 309 310 313 312 312 312
303 304 304 304 305 309 310 309 311 312 314 313 312 311 312 313 313 314 312 312 311 313 314 311 312 306 310 312 311 309 311 309 312 310 311 309 311 310 310 311 313 314 310 310 311
302 305 303 309 308 310 310 311 313 315 313 312 311 313 314 315 315 314 313 312 311 312 311 311 308 311 311 311 312 312 311 311 307 311 313 312 312 311 313 315 316 315 311 314 314
304 303 304 305 309 311 311 312 314 313 313 313 313 314 312 314 313 314 313 312 312 310 310 310 308 311 308 311 312 312 312 312 312 312 313 313 314 314 316 315 316 313 314 314 314
302 302 304 307 310 311 310 311 314 312 312 311 311 313 314 313 310 310 309 310 310 310 311 312 310 310 310 312 313 313 314 313 313 314 316 320 319 319 319 317 313 313 312 312 311

GFSSW_925_thetae_054.txt.gz
Theta_e
307 307 307 306 307 306 307 307 311 314 315 318 318 317 316 316 315 314 318 319 316 325 319 322 320 320 320 318 318 316 320 323 323 320 320 319 321 318 318 318 320 319 324 331 337
308 307 307 307 307 306 306 306 306 309 312 315 318 317 316 315 315 315 313 320 321 322 326 321 323 320 318 319 318 318 320 322 321 321 321 320 322 321 319 319 319 322 326 336 338
308 308 308 308 306 306 306 305 306 307 309 312 315 318 316 314 314 315 310 317 322 324 325 325 321 319 320 319 318 318 322 321 322 322 322 323 322 321 321 321 318 320 328 327 334
307 308 308 308 307 306 306 306 304 305 308 310 313 317 314 313 313 320 321 319 324 326 325 322 322 323 320 321 318 322 319 320 321 321 321 322 322 323 322 320 319 318 317 319 325
308 308 307 307 307 306 306 306 305 305 305 308 312 315 314 312 313 312 319 323 323 325 324 322 323 323 320 318 319 318 319 319 319 319 319 318 321 322 321 319 317 316 317 318 317
306 306 306 306 306 306 305 305 305 304 305 307 310 313 313 313 308 308 317 323 324 324 324 323 323 321 320 320 319 319 318 318 318 319 318 319 318 318 318 317 316 316 316 315 316
305 305 305 305 305 305 305 305 304 304 305 306 309 311 313 310 310 315 318 321 322 323 323 323 323 321 320 322 318 320 322 319 319 319 319 319 320 318 317 316 316 315 314 315 313
305 305 304 304 304 304 304 304 304 304 305 306 308 310 313 310 310 312 316 316 318 322 322 322 323 321 321 317 318 320 319 322 319 319 318 318 322 318 315 315 315 314 314 314 314
304 304 304 304 304 304 304 304 304 305 305 306 307 309 313 310 311 310 311 314 315 318 320 323 322 322 321 320 321 317 320 319 319 317 318 318 320 317 317 313 314 312 312 313 314
303 303 303 303 303 303 304 304 303 304 305 306 307 310 311 313 312 311 311 312 316 320 321 322 323 321 321 321 325 320 319 316 317 314 316 316 318 316 313 313 313 312 310 310 312
303 303 303 303 303 303 303 303 300 303 304 306 308 310 312 312 312 312 311 311 318 319 324 322 322 323 318 320 315 316 317 316 314 314 313 312 312 312 312 310 311 311 309 310 311
303 303 302 303 303 303 303 302 302 302 305 304 306 310 310 312 313 312 310 313 320 321 319 321 322 319 317 316 318 318 318 316 314 313 313 311 311 311 311 311 311 312 312 310 309
302 303 302 303 303 303 300 302 301 303 304 304 307 307 311 312 313 313 311 315 320 320 319 320 319 316 315 315 318 315 315 315 315 312 310 310 311 310 309 309 310 311 310 310 310
302 302 302 302 302 301 301 303 303 302 305 307 307 306 313 313 314 311 311 315 315 319 316 316 314 315 315 315 313 316 312 313 313 313 313 310 313 310 309 309 308 308 307 309 309
302 302 302 303 302 301 301 302 303 302 299 310 307 306 313 314 313 313 311 313 315 316 316 315 314 314 315 315 312 314 311 312 311 311 309 310 312 309 308 311 311 309 305 304 307
301 302 303 303 303 302 301 301 302 297 301 311 310 312 314 314 313 312 313 311 313 314 313 313 311 312 312 312 312 311 311 310 310 308 305 309 311 309 310 310 309 307 306 305 306
301 303 304 303 304 303 301 303 299 301 306 312 312 314 314 314 314 314 315 313 315 317 317 314 313 311 311 312 311 310 307 303 305 305 308 309 311 310 309 309 308 308 306 305 304
303 303 303 304 304 302 302 304 303 308 308 305 315 315 317 314 315 315 314 313 311 311 311 313 314 312 310 312 312 311 308 306 307 312 312 309 313 310 308 306 305 305 304 304 304
303 302 303 304 304 301 302 302 306 308 308 311 315 317 316 314 315 314 314 312 311 310 311 311 311 311 310 311 310 313 309 308 306 303 303 308 306 304 307 306 306 306 306 306 305
303 302 303 303 302 302 302 306 308 308 305 312 316 314 314 314 316 314 313 311 311 309 310 310 311 313 313 312 312 310 309 309 299 301 306 308 308 307 309 310 308 307 307 308 310
301 304 302 302 303 303 305 307 307 305 305 314 313 312 312 312 312 313 312 311 309 309 310 312 309 316 314 313 311 313 312 307 305 304 305 308 309 305 308 309 308 307 307 309 309
301 304 303 304 301 302 307 309 304 307 311 314 310 311 312 311 312 311 311 311 308 309 311 311 310 313 315 310 309 310 311 307 302 301 299 309 309 308 307 307 307 309 310 311 309
304 302 303 303 306 306 306 307 306 311 314 314 311 310 310 311 313 311 310 310 309 309 311 310 311 309 311 310 311 311 310 309 305 303 301 305 308 306 306 309 309 309 312 311 309
298 301 301 302 304 308 308 308 312 311 313 312 310 310 310 313 311 312 313 313 310 311 314 311 309 305 308 309 308 306 310 309 310 305 307 306 308 309 308 310 312 314 314 313 309
302 304 303 306 308 309 310 312 314 315 311 311 311 312 313 315 313 313 312 312 311 313 311 309 308 307 309 310 311 311 309 309 309 310 308 310 309 309 310 311 313 316 313 314 314
304 304 303 306 309 310 311 313 314 313 313 313 314 313 312 314 313 313 311 311 312 310 311 309 306 310 307 309 311 311 311 310 310 309 310 310 310 310 311 316 317 313 311 312 310
302 302 303 306 308 311 311 312 313 312 312 312 313 313 313 312 310 309 308 308 309 309 310 310 308 309 309 310 311 311 312 311 311 310 312 314 313 314 318 318 312 306 306 306 302

GFSSW_925_thetae_057.txt.gz
Theta_e
309 308 307 308 308 308 308 306 306 306 308 310 312 315 318 316 315 315 314 314 316 318 326 325 325 325 320 318 316 314 320 322 320 320 321 318 321 319 317 316 317 317 326 328 336
309 308 309 308 309 309 307 306 306 305 307 308 311 313 317 316 315 315 312 313 318 320 324 322 320 319 318 319 317 318 319 321 319 318 321 319 321 320 320 317 318 322 329 333 335
309 309 309 309 308 308 308 307 307 305 305 305 308 312 313 316 313 311 308 311 317 322 324 322 322 319 320 317 318 318 320 319 321 321 321 321 320 321 321 321 318 319 317 322 333
307 308 308 308 307 307 307 307 307 307 305 305 306 309 313 313 311 315 322 322 317 323 322 324 320 320 320 321 318 321 318 320 320 321 320 321 320 322 321 320 318 318 317 317 323
307 307 306 306 306 307 307 306 306 306 306 305 305 307 311 313 310 313 311 324 317 323 323 322 321 321 320 319 318 319 319 319 319 319 319 318 318 320 320 318 317 316 316 316 316
307 306 306 306 306 305 305 306 305 305 305 305 305 307 310 314 311 310 308 321 319 323 323 321 320 320 321 318 320 318 318 318 317 318 318 319 318 317 317 316 316 315 316 314 314
306 305 305 305 305 305 304 304 305 305 305 304 305 307 310 313 310 310 310 321 321 323 322 322 321 321 319 321 318 320 321 319 318 318 319 317 319 317 316 315 315 315 313 313 312
304 304 304 304 304 304 304 304 304 304 304 305 305 306 311 311 312 311 318 319 320 321 322 322 322 320 320 317 317 320 319 322 319 318 318 318 320 318 315 315 315 314 313 313 312
304 303 303 303 303 303 304 304 304 304 305 305 305 305 310 311 311 312 310 313 316 320 321 321 322 322 321 319 318 317 319 320 319 317 318 318 319 317 314 313 314 312 312 311 311
303 303 303 303 303 303 304 304 303 305 304 304 304 306 307 311 311 311 310 311 315 318 321 324 324 325 323 322 326 320 319 317 317 315 316 317 316 316 315 313 313 312 312 311 311
303 303 303 303 303 304 303 302 299 300 304 303 304 305 311 311 311 311 310 310 315 319 324 323 323 325 324 322 316 315 316 317 314 313 312 312 311 311 310 309 309 310 311 311 310
303 303 303 303 302 303 303 301 301 302 304 302 304 305 305 310 313 312 311 312 317 323 321 322 323 321 320 322 320 318 318 317 314 312 312 311 310 310 310 310 310 311 311 310 308
302 302 303 303 303 302 301 301 302 302 304 303 304 304 308 311 314 313 310 313 319 321 320 322 319 317 317 318 319 317 316 315 315 312 309 309 310 310 309 309 308 309 309 309 309
301 302 302 303 302 302 301 302 302 302 303 304 307 306 308 312 314 311 311 316 318 320 318 317 314 316 315 316 315 317 312 313 312 313 314 309 312 309 308 307 307 306 305 306 306
302 301 302 302 303 302 301 301 301 302 295 306 304 305 309 314 312 312 311 314 317 317 316 318 314 316 317 315 312 314 311 311 310 310 309 310 312 309 306 310 309 307 305 303 302
301 303 305 305 303 303 302 301 302 296 302 308 306 305 308 313 313 312 313 312 315 315 314 312 312 312 312 312 312 310 309 308 308 307 305 308 310 307 308 309 306 306 303 302 301
303 304 303 303 303 302 302 303 297 297 304 310 308 305 313 314 314 314 315 315 318 317 318 313 312 311 311 312 310 308 308 306 305 304 308 308 311 309 308 308 308 306 303 304 304
304 302 303 304 303 301 301 298 302 307 307 306 309 311 317 314 315 316 314 313 310 312 313 314 317 312 310 311 312 311 308 306 306 308 310 308 312 310 306 304 303 305 306 306 305
302 302 304 304 302 301 301 301 304 308 307 307 312 315 317 315 316 315 314 313 311 310 313 310 310 310 310 310 310 312 307 307 306 302 304 307 305 302 307 306 306 306 307 307 308
301 302 302 302 301 302 302 305 309 306 303 307 316 313 316 318 318 315 314 311 311 309 309 309 311 312 311 311 310 310 308 308 300 303 307 306 306 305 308 308 307 306 305 306 309
301 300 302 301 303 299 304 306 307 304 306 313 312 312 311 314 313 312 312 310 309 309 310 309 309 316 313 313 313 311 309 305 305 304 306 309 306 303 305 308 307 305 305 307 308
299 297 302 304 300 301 305 307 305 308 311 313 310 311 310 311 312 312 311 311 307 308 311 310 309 316 315 310 308 309 310 306 303 302 299 306 306 306 306 305 307 306 307 309 309
300 299 302 302 303 305 307 309 307 311 313 313 310 310 310 310 312 310 310 309 308 309 310 309 307 304 313 311 311 311 310 305 303 300 298 303 306 304 303 305 306 310 312 314 313
297 300 300 299 303 307 308 311 313 309 310 310 309 309 310 312 310 311 312 312 308 309 312 309 307 304 307 308 308 305 310 307 309 306 305 305 306 306 307 307 309 310 312 311 312
300 302 304 307 305 309 311 313 312 312 310 310 311 311 313 313 312 312 312 311 310 314 309 308 307 307 308 309 310 309 309 309 308 308 305 308 308 308 308 308 309 313 311 310 310
304 303 304 306 308 309 310 312 314 312 312 313 312 312 311 313 312 312 311 310 312 309 310 307 306 308 306 308 309 311 310 309 309 310 310 310 310 309 309 309 316 311 307 307 305
301 302 303 303 304 309 310 311 312 312 313 313 312 312 312 311 309 308 307 307 308 309 309 310 307 308 306 308 310 310 310 310 310 308 310 312 311 311 314 317 315 307 304 303 301

GFSSW_925_thetae_060.txt.gz
Theta_e
309 311 310 310 310 309 310 309 308 307 306 306 308 311 314 315 318 317 315 313 312 317 324 321 322 325 322 317 315 312 319 320 320 320 320 317 318 318 316 316 315 316 321 327 335
308 308 309 310 310 310 309 309 309 308 307 306 306 308 310 313 315 316 314 314 315 319 318 323 325 321 319 318 317 317 318 320 317 317 318 319 320 320 320 318 318 318 321 332 341
308 308 308 308 308 308 308 308 308 308 308 307 307 306 308 311 314 313 315 316 316 316 321 321 322 319 320 317 317 317 319 317 320 319 320 320 320 319 321 321 317 319 317 326 338
309 308 308 308 307 307 307 307 307 307 307 307 306 306 307 309 317 311 321 318 317 317 321 322 319 321 321 320 317 320 318 318 319 320 320 320 319 320 320 319 317 318 317 316 330
308 307 307 307 306 306 306 306 306 306 306 306 306 306 306 313 313 314 312 311 320 317 321 322 321 321 322 320 318 319 319 318 318 318 318 318 318 319 319 317 316 316 316 317 315
306 306 305 305 305 305 305 305 305 305 305 306 305 305 305 311 311 312 313 310 321 317 322 321 320 319 318 318 319 317 319 318 317 317 317 318 317 316 316 314 315 315 315 315 315
305 304 304 304 304 304 304 304 304 305 305 305 305 304 305 308 311 310 312 310 319 318 323 322 320 320 317 320 317 318 320 318 317 317 318 316 318 317 315 315 314 313 313 313 313
304 304 304 304 304 304 304 304 304 304 304 305 305 304 305 307 308 310 311 317 318 319 322 322 321 320 318 316 317 320 319 323 319 317 317 318 318 316 314 314 315 313 311 311 312
304 304 304 303 303 303 304 304 304 305 305 305 304 304 304 308 309 310 311 311 319 320 321 320 320 321 320 317 319 320 320 320 321 317 318 317 319 316 314 313 313 312 311 311 311
303 303 304 304 304 304 304 304 303 304 304 304 303 303 303 309 310 310 312 311 315 319 320 321 322 323 322 321 322 321 319 318 320 315 315 317 315 314 313 313 312 311 310 310 310
303 303 303 303 303 303 303 302 299 299 303 302 302 303 303 307 310 311 311 310 316 320 323 322 323 326 323 322 317 316 317 317 314 313 313 312 310 310 309 308 308 309 309 310 311
303 302 302 303 303 304 303 300 300 301 304 301 302 303 303 304 312 312 310 311 316 321 321 319 317 321 322 320 317 317 317 317 314 312 312 311 310 310 310 309 309 309 309 308 308
302 303 302 302 303 303 302 300 302 302 302 302 303 303 303 303 311 313 310 311 317 320 321 321 317 321 322 321 321 318 318 316 316 311 308 308 309 309 308 308 308 307 307 306 306
302 301 302 303 301 302 301 301 301 302 303 302 304 305 304 305 314 312 310 314 318 320 319 318 317 322 321 321 318 318 313 313 312 313 315 308 314 309 307 306 306 304 302 302 301
304 305 305 304 302 299 299 300 300 301 297 303 304 304 307 308 313 312 311 314 318 319 318 318 317 317 319 317 313 314 311 310 309 309 309 310 311 309 306 309 304 303 302 302 303
304 303 303 303 302 302 302 301 301 300 302 306 305 306 307 309 313 311 313 312 314 316 313 313 312 313 312 311 311 308 308 307 305 306 304 308 309 306 307 307 307 304 304 304 304
304 303 303 303 302 302 300 302 298 302 304 305 306 305 307 315 314 314 315 316 318 318 318 314 313 310 311 312 310 309 309 304 303 304 307 308 310 308 307 307 307 306 306 305 305
302 303 303 303 303 301 301 297 301 306 309 307 308 307 313 315 315 315 315 316 312 313 313 312 316 312 310 311 312 309 309 307 304 308 309 307 311 308 304 302 304 306 305 306 307
302 301 302 302 301 301 302 302 306 307 306 308 308 313 317 316 316 314 314 311 311 310 314 311 313 310 310 310 310 310 306 305 304 301 303 307 305 302 305 306 306 305 306 305 306
301 301 301 302 300 302 303 306 307 306 304 304 315 314 317 315 316 314 314 311 310 309 308 308 311 312 311 311 309 309 306 309 301 306 306 305 305 304 307 308 306 305 305 305 306
300 299 301 301 303 300 305 306 306 306 304 312 310 312 313 313 312 311 311 310 309 309 307 308 309 315 313 313 312 310 309 305 304 303 305 308 305 302 304 306 307 305 305 305 307
297 295 301 302 302 301 307 308 306 309 309 310 309 310 310 310 310 311 310 310 308 308 311 309 311 316 314 309 308 309 309 305 304 304 302 304 306 303 304 305 305 305 306 310 310
297 298 301 302 308 308 308 310 309 311 311 310 310 310 309 309 310 309 309 308 308 309 310 309 307 310 314 311 310 311 309 304 302 300 306 304 304 303 303 302 303 306 310 310 309
297 301 301 302 304 309 310 311 311 309 310 308 308 308 310 310 309 311 311 310 308 309 312 308 305 305 308 308 307 305 309 305 304 302 304 303 305 305 305 305 305 306 311 308 309
297 301 303 308 309 309 311 312 312 312 309 309 311 311 312 312 311 312 311 310 310 313 308 308 308 306 307 309 309 308 309 307 305 305 305 306 305 306 306 307 307 309 309 307 305
303 303 303 305 305 308 310 311 312 312 311 312 311 311 310 312 311 311 310 310 311 308 309 306 306 306 305 308 309 310 309 308 308 309 307 308 310 309 309 308 309 312 306 304 302
300 302 303 302 302 306 307 310 311 311 312 312 312 311 311 310 308 307 306 305 307 308 308 308 306 305 305 307 309 310 309 309 308 307 309 310 310 309 311 312 315 308 303 301 299

GFSSW_925_thetae_063.txt.gz
Theta_e
311 310 309 309 310 310 310 311 310 310 309 309 307 307 307 310 312 313 319 315 313 315 322 321 321 325 321 318 314 313 323 323 323 321 320 316 317 317 315 317 316 316 319 325 333
310 311 310 309 309 309 309 309 309 309 309 309 309 307 307 308 309 313 317 317 317 316 316 319 322 322 323 320 317 318 321 321 318 319 318 318 318 320 320 319 319 318 322 334 339
309 309 309 308 308 308 308 308 308 308 308 308 308 308 307 307 310 313 314 319 319 318 319 317 322 322 324 318 318 318 321 318 319 317 319 321 320 319 321 322 320 319 320 333 339
308 308 308 307 307 307 307 306 307 307 307 307 308 307 307 306 314 312 316 319 320 319 317 320 320 323 324 322 318 320 318 317 319 320 320 321 319 320 320 321 317 318 318 320 337
307 307 306 306 305 305 305 305 306 306 306 306 307 306 306 305 309 312 313 312 314 319 317 321 322 323 323 322 318 320 318 318 318 318 318 318 319 320 319 318 316 316 317 318 319
306 306 305 305 305 305 304 304 305 305 305 305 306 305 304 305 307 310 311 311 313 319 317 320 321 319 320 321 321 318 319 319 318 318 317 319 318 316 317 315 316 316 317 317 317
305 305 305 304 304 304 304 304 304 304 304 305 305 305 304 304 303 309 309 309 312 317 318 320 319 320 317 319 317 316 319 319 318 317 318 317 319 318 316 315 317 316 316 315 316
304 305 304 304 304 304 304 304 304 305 305 305 305 304 303 303 303 303 306 308 313 316 317 320 320 319 318 316 317 320 319 323 319 318 317 317 318 316 315 315 317 316 314 313 314
304 304 304 304 304 304 304 304 304 305 305 305 304 303 303 302 305 303 309 310 314 316 318 319 319 321 318 318 321 321 322 321 321 318 318 318 318 316 314 314 315 314 313 312 313
304 304 304 303 304 304 304 304 303 302 303 304 303 302 302 302 307 306 310 311 315 318 319 319 320 322 322 322 321 322 320 320 320 317 317 318 318 316 313 312 314 313 313 313 312
302 303 303 303 303 304 304 302 299 299 301 300 301 301 303 303 304 310 310 310 314 319 322 319 322 324 322 320 316 317 317 318 316 313 313 314 313 312 311 309 310 310 311 311 312
303 303 303 302 302 303 303 300 299 301 301 301 301 302 302 303 306 312 310 312 317 321 320 319 321 318 320 321 317 317 317 317 314 311 313 311 311 311 311 311 311 311 311 309 308
304 305 305 305 301 303 302 300 301 301 303 301 301 302 302 301 305 313 311 312 316 320 321 319 315 318 322 322 319 317 318 315 316 311 308 309 312 310 308 307 306 305 305 305 304
305 305 304 303 302 300 300 301 300 301 301 300 303 304 303 303 308 312 311 314 316 319 320 317 317 318 318 319 318 322 315 314 313 315 319 309 318 312 307 306 305 305 306 306 305
305 305 304 302 301 300 300 300 300 301 300 304 304 303 304 305 309 313 311 314 317 318 318 317 319 319 315 314 316 318 313 311 310 310 311 311 314 311 306 306 306 306 307 307 306
304 304 303 303 302 302 301 301 301 299 294 305 304 306 307 303 309 312 312 314 313 315 314 314 313 316 314 316 315 309 309 307 306 307 311 308 310 309 308 307 307 306 307 307 308
304 302 302 303 303 300 301 301 300 302 304 302 306 304 306 312 314 314 314 316 318 317 318 314 314 311 312 312 310 309 311 311 310 312 312 307 310 309 306 307 307 308 308 307 308
302 301 302 301 302 300 300 295 303 306 308 307 308 307 309 313 315 315 316 316 312 313 314 316 318 313 310 312 313 310 313 312 309 311 309 307 312 309 304 302 305 306 305 305 308
301 301 301 301 300 301 302 299 303 307 307 308 308 309 315 314 315 315 313 315 312 309 313 312 315 310 310 309 310 310 311 304 304 301 307 308 306 304 305 306 306 306 306 307 308
301 300 300 301 301 302 302 308 307 307 305 306 313 313 315 314 316 314 314 311 312 308 307 309 316 313 310 310 309 309 306 310 304 307 311 305 305 307 307 308 307 307 307 307 308
300 298 301 302 302 301 306 308 307 308 306 311 310 312 310 312 311 310 312 310 309 309 306 307 310 314 312 313 311 310 309 305 305 305 308 308 305 302 307 307 307 306 306 308 311
296 298 301 302 306 304 309 309 308 309 308 309 309 309 310 309 309 309 310 310 308 308 310 308 310 315 314 308 308 308 309 304 306 307 304 306 307 303 302 304 304 305 305 311 309
296 296 301 302 309 309 309 311 309 310 309 309 309 309 307 308 310 309 309 308 307 309 310 308 307 313 314 311 309 311 308 304 303 303 306 307 307 302 303 304 303 304 306 310 308
296 301 301 300 303 309 311 306 309 308 309 308 308 308 309 309 308 310 312 309 308 311 311 307 305 307 310 309 309 307 309 305 305 308 307 305 305 305 306 305 306 306 309 308 304
297 301 303 306 304 306 308 309 311 311 308 308 310 310 310 311 311 311 309 309 309 310 307 307 308 306 307 309 308 308 310 306 304 305 309 307 305 306 305 305 306 307 309 307 303
300 303 303 303 301 304 307 309 311 311 310 311 310 309 309 311 310 311 308 308 310 308 308 305 308 306 307 308 308 310 309 308 307 308 306 306 308 308 308 308 308 310 307 305 302
300 301 303 301 300 305 308 308 310 310 311 311 311 310 309 308 307 306 305 305 307 308 307 307 306 306 307 307 309 310 309 309 308 307 309 311 310 309 309 310 314 309 305 302 298

GFSSW_925_thetae_066.txt.gz
Theta_e
309 311 311 311 310 310 310 310 310 310 310 310 310 309 308 308 308 310 313 318 318 316 321 319 320 323 323 320 319 319 322 322 324 324 323 321 322 321 320 321 320 321 323 328 334
310 310 310 310 309 309 309 309 309 309 309 309 309 309 310 308 306 308 312 317 319 318 317 320 320 323 325 323 320 319 320 320 319 321 321 319 320 321 321 320 321 321 324 334 337
309 309 308 308 308 307 307 306 307 308 308 308 309 309 309 308 307 306 311 315 320 320 317 317 319 323 325 324 321 320 321 320 321 319 319 320 321 322 322 323 322 322 324 335 338
308 308 307 307 307 306 305 305 306 306 306 307 308 308 308 307 308 316 314 315 319 320 318 317 320 324 324 325 322 322 319 319 319 321 322 322 321 322 323 322 321 323 322 326 339
307 307 306 306 306 305 305 305 305 305 306 306 306 307 306 307 307 308 310 311 314 318 318 318 320 323 323 323 323 323 320 319 318 320 321 320 322 321 322 322 321 321 321 322 327
306 306 305 305 305 305 305 304 305 305 305 305 306 306 305 307 305 305 306 309 312 315 319 316 319 320 321 321 322 321 321 320 319 319 320 320 320 320 320 321 321 321 321 321 321
306 305 305 305 305 305 305 305 305 305 305 305 305 305 306 305 303 304 307 307 309 311 319 315 319 319 320 321 320 320 322 321 320 319 319 319 320 320 319 319 319 319 319 320 320
305 305 305 305 305 305 305 305 305 305 305 306 306 305 305 303 303 303 303 303 306 311 318 314 319 320 319 319 321 322 321 324 320 319 319 318 317 317 318 318 318 318 318 318 319
305 303 303 304 304 304 304 305 305 305 305 305 305 304 304 303 304 303 303 306 311 314 317 316 319 321 320 320 322 321 321 320 321 319 318 319 317 316 317 317 318 318 319 318 318
303 304 304 304 304 304 304 304 304 303 304 304 304 304 304 303 303 305 305 307 311 316 318 318 320 323 322 322 322 322 321 320 319 320 319 319 318 318 318 317 319 318 318 318 318
304 305 305 306 306 304 302 303 303 303 304 303 303 302 303 302 303 306 306 309 312 318 319 318 321 323 323 321 318 317 319 319 318 316 321 321 320 318 318 318 318 317 317 317 317
305 305 306 305 305 305 301 303 301 302 302 301 302 302 302 303 304 308 309 313 315 321 316 319 321 318 320 321 319 318 320 318 316 317 316 317 318 317 317 317 316 316 316 316 315
305 305 305 303 303 302 301 302 300 300 302 302 302 302 302 302 303 308 308 312 317 319 319 319 318 319 319 322 321 320 318 318 318 314 314 315 318 318 312 310 310 309 310 311 311
305 305 304 302 302 301 301 300 301 300 304 301 303 304 304 304 306 306 308 313 316 318 316 317 316 319 318 322 321 322 318 318 316 319 322 313 319 315 310 311 312 313 313 313 313
304 304 303 301 302 302 301 300 300 301 306 305 305 303 304 305 305 312 311 314 317 320 318 315 316 315 314 321 319 321 315 317 317 318 317 316 319 314 311 313 314 314 315 314 314
304 304 302 303 302 301 301 301 301 305 306 305 305 307 307 305 306 312 313 314 315 316 314 315 315 315 316 315 315 313 312 312 313 316 322 316 316 313 311 312 313 314 314 315 315
304 303 302 302 302 300 300 302 306 309 304 306 306 306 307 309 311 312 315 317 318 321 317 314 314 313 313 313 313 313 319 322 323 322 320 311 314 313 311 310 313 314 315 315 316
303 301 301 301 300 300 301 303 308 308 308 307 307 307 308 313 313 315 316 317 315 316 318 320 319 313 311 313 315 316 317 320 319 319 315 311 315 312 308 308 311 311 311 313 316
301 301 303 301 300 301 304 310 309 308 308 309 307 311 315 315 315 315 315 315 314 313 318 318 318 312 313 311 312 314 319 309 313 309 314 313 311 309 308 309 310 311 312 315 316
301 302 302 301 301 304 308 310 309 305 305 305 314 314 316 315 316 315 315 313 313 310 310 313 318 313 311 312 310 314 310 316 316 318 316 311 311 314 311 312 312 313 313 313 315
301 306 301 301 302 307 311 310 309 308 306 312 313 314 314 314 313 314 314 313 311 310 310 312 315 315 313 315 314 312 314 311 312 311 314 311 310 311 312 313 311 311 310 313 315
301 313 303 302 311 309 313 310 309 310 309 310 311 312 313 312 312 313 314 312 309 310 313 312 314 317 316 310 310 311 313 311 318 315 311 314 311 308 312 309 308 309 310 313 313
304 305 303 305 311 311 311 311 311 311 310 311 311 311 310 311 313 312 311 309 309 311 312 311 314 316 315 312 311 313 312 309 309 312 315 315 311 307 308 308 309 309 310 313 310
304 310 308 308 307 309 311 314 313 310 311 310 310 310 311 312 311 312 312 311 310 311 310 310 311 315 315 313 313 315 312 310 315 317 313 314 310 309 310 310 311 312 312 313 309
304 305 304 309 311 308 311 313 313 314 312 311 312 312 311 312 312 312 311 311 311 310 310 311 314 311 310 311 311 312 313 310 311 313 318 312 311 311 310 311 312 312 313 311 308
304 305 304 307 305 311 311 313 314 314 313 313 313 312 312 312 312 312 311 311 312 311 311 310 315 311 311 310 311 312 311 312 311 311 310 311 312 311 311 311 311 315 312 309 305
301 302 304 306 308 311 309 310 313 312 313 312 312 312 312 310 309 309 309 309 310 311 311 311 312 313 315 310 312 315 313 312 311 310 311 314 313 312 311 311 312 313 309 306 303

GFSSW_925_thetae_069.txt.gz
Theta_e
310 311 311 310 310 310 310 310 310 310 309 310 310 311 311 310 309 309 309 315 318 319 318 319 319 323 325 325 321 319 323 326 327 326 325 324 326 325 324 324 323 322 322 331 342
310 310 310 309 309 309 308 308 308 308 309 309 309 309 309 310 309 309 308 311 317 320 318 319 318 323 325 324 322 321 323 322 323 324 324 324 323 324 322 322 322 321 323 331 337
310 309 308 308 308 308 307 307 306 306 307 308 308 309 309 309 309 309 309 309 317 320 319 316 317 321 326 324 322 321 321 321 319 320 321 321 320 321 322 322 321 321 322 329 333
309 308 307 307 306 306 306 306 306 306 306 307 307 306 308 307 310 315 313 309 313 319 319 316 316 321 324 327 324 322 320 320 321 320 320 320 319 320 322 322 322 322 324 328 335
307 307 307 306 306 306 306 306 306 306 306 305 306 306 306 307 308 308 307 307 311 317 319 319 316 319 322 322 323 323 320 320 320 321 321 320 321 319 322 323 323 324 323 324 329
307 307 306 306 306 306 306 306 306 305 305 305 305 306 306 307 305 305 306 305 309 314 317 319 316 317 319 321 324 323 322 320 320 320 321 322 320 321 322 322 322 322 323 323 324
306 306 306 305 305 305 306 306 306 306 306 306 306 305 306 306 305 305 305 305 306 308 310 319 316 316 319 320 321 322 323 322 320 320 320 320 322 322 321 321 322 322 321 321 322
305 305 305 305 305 305 305 305 305 306 306 306 306 306 306 304 304 304 304 304 304 305 307 315 318 318 318 319 319 323 321 323 322 320 319 319 320 319 320 320 320 320 320 320 319
305 305 305 306 306 306 305 305 305 305 305 305 305 306 306 304 304 304 304 304 304 304 309 316 318 321 319 323 324 322 325 321 320 319 320 320 318 317 318 318 319 319 319 318 318
305 305 306 306 306 306 306 305 304 304 304 304 305 305 304 304 304 304 304 304 306 308 315 318 319 322 322 322 329 323 322 320 319 320 319 320 320 318 317 318 318 319 319 319 318
304 306 306 306 306 306 305 302 305 304 304 304 304 304 304 303 303 304 305 305 306 311 321 320 321 319 322 319 320 317 318 318 318 319 320 319 318 318 317 318 318 318 318 318 318
304 305 305 306 303 303 303 303 303 303 303 302 303 303 303 303 304 304 306 306 306 312 317 319 320 319 320 318 319 318 317 318 318 317 318 319 319 318 318 318 318 317 317 317 317
305 305 305 305 302 302 302 302 301 301 304 303 303 303 303 303 303 305 308 307 311 317 318 318 317 317 319 321 321 322 318 318 318 318 317 317 318 318 317 317 316 315 314 315 315
305 305 304 302 304 303 302 300 301 301 304 304 304 304 303 304 304 304 307 309 316 318 317 316 317 317 319 321 321 322 318 317 317 318 317 316 316 317 317 314 312 313 314 315 314
304 305 304 302 304 302 302 301 301 302 306 306 306 304 304 305 304 307 307 311 317 316 318 316 319 321 322 319 318 322 319 319 318 319 320 318 319 318 314 314 314 315 316 315 315
303 304 302 305 304 303 302 301 302 307 306 307 306 307 307 305 307 307 310 309 312 314 316 317 315 315 316 316 317 314 318 318 319 320 325 320 319 315 315 315 315 315 316 316 316
303 304 303 304 303 302 301 302 311 311 306 308 308 308 308 310 308 307 311 315 317 317 318 314 314 312 312 313 314 316 320 325 327 325 323 316 317 316 312 314 315 315 316 317 317
302 302 304 303 303 302 302 305 311 309 309 307 308 311 310 310 308 315 316 318 317 317 320 321 319 311 311 315 316 318 320 329 326 324 320 313 318 316 311 311 314 315 315 317 318
302 304 305 305 303 303 306 314 310 307 308 309 310 310 315 315 315 316 315 316 316 316 319 320 319 312 312 312 315 318 320 313 315 314 317 314 313 311 309 311 313 313 314 317 318
303 305 306 304 304 304 311 309 309 307 307 307 316 313 316 315 316 315 317 315 315 312 313 315 319 314 314 313 313 316 313 318 321 319 318 315 314 315 310 312 313 314 315 316 317
305 310 305 304 305 311 312 313 310 309 309 312 314 313 314 314 315 315 316 314 312 311 313 315 317 317 315 318 317 315 316 314 314 315 318 314 312 314 312 313 314 314 313 315 316
306 315 307 306 311 311 314 312 309 312 311 312 312 313 314 313 314 315 315 315 311 312 314 314 316 318 317 312 312 313 316 315 320 319 315 318 313 312 313 313 311 312 312 315 315
308 310 309 309 313 314 313 313 312 313 312 312 313 312 312 313 314 314 314 311 311 312 314 313 316 318 316 314 313 314 314 313 312 317 319 317 313 312 313 311 310 311 313 314 314
308 311 312 312 309 309 311 314 314 312 312 312 312 312 312 313 312 314 314 312 312 312 311 311 314 317 318 316 316 318 314 312 313 319 316 316 311 310 312 311 311 313 313 315 313
307 308 306 314 313 311 312 314 314 314 313 312 312 313 312 312 313 314 313 313 312 310 311 313 315 313 312 312 313 314 314 313 313 315 321 313 313 311 311 312 312 315 315 316 313
305 305 304 310 311 312 312 313 314 314 315 313 313 313 312 312 313 313 312 313 313 312 312 312 316 313 314 312 312 314 313 313 313 312 312 312 312 312 311 313 314 315 316 314 311
302 302 305 310 312 312 312 311 312 314 314 314 313 313 313 312 311 311 311 311 312 312 313 313 314 315 317 312 313 316 314 313 313 312 313 314 313 313 313 313 313 314 313 312 307

GFSSW_925_thetae_072.txt.gz
Theta_e
311 311 311 310 310 310 310 310 309 309 309 310 310 310 311 310 310 310 310 309 316 318 319 320 315 321 325 326 325 321 324 327 327 327 326 324 326 325 324 323 322 321 324 340 346
310 310 310 309 309 308 308 308 308 308 308 308 309 310 309 309 309 309 309 310 311 318 320 319 317 321 324 325 326 323 322 323 323 324 325 323 323 324 324 323 321 321 328 339 344
309 309 309 308 308 308 307 307 307 307 307 307 307 308 309 309 307 308 309 310 311 316 319 319 317 319 323 323 325 323 324 321 321 321 321 322 322 322 323 322 321 320 322 329 342
308 308 308 308 308 307 307 307 307 307 307 307 307 307 306 307 309 312 310 313 312 313 318 319 317 319 323 324 323 323 321 321 320 321 321 321 320 320 320 320 320 319 321 330 331
308 307 307 307 307 307 306 307 307 306 306 306 305 305 305 307 308 308 308 307 310 313 318 319 318 317 320 322 324 325 321 320 320 320 320 319 319 318 318 320 322 322 322 324 330
308 307 307 306 306 306 306 306 306 306 307 306 306 305 305 307 306 306 305 306 307 310 314 318 319 314 318 319 321 323 323 321 319 320 321 321 320 319 317 318 322 322 322 322 323
307 306 306 306 307 307 307 306 306 306 306 306 306 306 305 306 305 306 305 305 304 306 309 316 318 315 315 320 319 321 324 323 320 320 321 321 322 320 318 320 320 320 320 320 321
306 306 306 307 307 307 307 307 306 305 306 306 307 306 306 305 305 305 305 305 304 304 305 308 311 318 315 318 319 322 322 326 322 320 319 319 322 320 319 319 319 319 318 317 317
305 305 306 306 306 306 307 307 306 306 305 306 306 306 305 305 305 304 304 304 304 304 304 306 312 320 319 319 322 323 325 323 322 320 320 319 320 317 317 318 318 317 316 316 316
305 306 306 306 306 305 305 305 305 304 305 305 305 305 304 304 304 304 304 305 305 306 308 312 319 321 321 320 324 321 322 320 320 321 320 320 319 317 316 317 317 316 316 315 315
304 306 306 306 305 302 305 304 304 304 304 304 304 304 304 304 304 304 305 306 305 304 313 317 320 322 320 318 320 322 320 319 318 317 321 320 320 318 316 316 316 316 315 315 316
304 305 306 306 304 303 302 304 303 301 304 304 303 303 303 303 303 303 304 306 305 307 308 316 320 317 317 318 320 321 320 320 318 318 318 319 319 318 317 316 316 316 315 314 314
304 305 305 305 303 304 302 301 301 301 303 303 303 303 303 303 303 304 306 306 305 307 309 317 316 315 320 319 320 319 319 320 318 318 317 316 316 318 316 316 315 316 315 313 313
304 305 305 302 304 303 302 301 301 301 305 305 305 304 304 303 304 304 306 306 307 308 307 317 317 318 320 321 319 321 318 320 319 318 319 315 317 316 317 317 317 313 311 311 313
304 305 305 303 304 302 302 302 300 302 307 306 305 303 305 305 305 306 306 307 308 310 317 317 318 319 319 319 320 320 320 320 320 317 316 316 315 317 315 316 313 310 311 313 313
303 305 303 305 304 303 302 302 302 308 308 308 308 306 307 306 306 308 308 306 307 316 316 317 314 316 317 317 316 316 317 321 320 319 323 317 315 315 314 314 312 313 313 314 313
303 304 303 304 304 303 301 302 308 311 308 309 310 308 307 311 310 310 309 311 315 317 317 314 314 313 313 317 315 314 316 324 324 323 319 317 317 315 312 313 313 314 314 314 315
303 303 305 304 304 302 303 305 310 310 309 308 310 310 311 311 309 311 313 318 315 317 318 317 316 314 312 315 316 315 320 326 325 320 317 314 317 312 311 312 313 314 315 316 315
305 305 306 306 304 303 306 308 309 309 309 308 309 313 316 313 312 311 313 317 315 317 318 316 315 311 312 313 316 318 320 316 316 313 314 313 312 309 309 313 313 313 314 316 316
305 307 307 305 305 304 312 311 310 309 307 307 313 314 317 316 315 316 317 315 314 312 314 315 317 314 313 314 313 317 315 317 319 321 321 313 312 312 308 312 312 312 313 316 315
306 311 306 306 306 310 311 311 312 311 310 312 315 314 314 314 315 315 315 313 312 312 314 315 317 318 315 318 318 316 317 315 314 315 319 313 311 310 309 310 311 312 313 314 315
308 314 308 308 310 311 314 313 310 313 312 313 313 313 314 313 315 315 315 313 311 312 315 315 315 319 318 313 312 313 317 316 314 315 314 314 309 309 308 309 311 312 312 313 313
308 311 311 310 312 313 311 314 313 313 313 313 313 312 312 313 314 314 314 311 312 313 313 313 315 316 315 314 313 314 314 314 312 316 319 315 310 310 308 308 309 310 310 313 313
308 308 310 310 309 310 313 314 315 313 313 312 312 312 312 313 313 314 314 313 312 310 312 312 314 314 313 316 315 313 314 313 312 315 316 314 310 311 309 309 308 309 310 313 312
306 306 305 312 313 312 312 313 313 315 314 312 313 313 312 313 313 314 313 313 312 310 311 313 312 312 312 312 313 315 314 313 307 312 310 312 311 309 310 309 308 312 312 313 311
305 304 304 307 311 311 311 312 313 312 314 314 314 313 313 314 313 313 312 312 313 311 312 312 313 313 311 312 312 313 313 313 312 311 311 311 312 309 309 309 312 312 314 314 311
300 301 304 307 311 311 312 310 312 312 314 314 314 314 314 312 311 310 310 310 311 312 312 313 312 312 313 312 312 313 313 313 313 311 311 312 311 312 312 312 312 313 313 312 309

GFSSW_925_thetae_075.txt.gz
Theta_e
310 310 310 309 310 309 309 308 308 309 309 309 309 310 311 311 311 310 310 309 308 313 318 319 316 319 322 325 324 321 326 330 330 328 328 327 326 325 320 322 321 319 338 343 346
309 309 309 309 309 309 308 308 308 308 308 308 308 308 309 310 310 308 308 310 311 311 318 318 317 318 323 323 325 321 324 325 324 324 325 324 326 326 326 322 320 333 342 345 345
309 309 308 308 308 308 308 308 308 308 308 308 308 308 308 308 308 306 309 310 311 313 313 318 319 318 322 321 323 323 323 322 321 320 320 322 325 323 325 321 319 329 343 342 343
308 309 308 308 307 307 307 307 307 307 307 307 307 307 306 306 307 310 310 309 313 312 312 318 318 318 321 324 321 323 322 322 321 319 320 319 319 323 324 319 320 317 327 337 340
309 308 308 307 307 307 307 307 307 307 307 307 307 305 305 306 306 306 307 307 310 313 312 317 318 317 319 319 320 322 322 321 320 320 318 318 318 318 317 317 320 320 323 328 334
307 307 307 307 307 308 308 308 307 307 307 307 306 305 304 306 304 305 306 306 307 310 312 316 318 316 317 318 320 321 322 322 319 320 319 321 319 319 317 316 319 319 320 320 323
306 306 306 306 307 307 307 307 307 307 307 306 306 305 305 304 304 305 305 305 304 306 308 312 316 318 313 317 317 319 323 322 321 318 319 319 321 320 317 317 317 316 318 319 320
306 306 307 307 307 306 306 306 307 307 306 306 306 305 305 303 304 304 305 305 304 305 305 305 310 315 318 316 317 320 321 325 322 318 319 318 322 320 318 317 317 317 315 316 317
305 305 306 306 306 304 304 305 306 306 306 305 305 305 306 305 305 304 304 304 304 304 305 306 311 318 317 318 319 320 325 322 323 319 318 317 320 318 318 317 316 316 315 314 313
304 304 306 306 306 304 303 304 305 304 304 305 304 303 304 304 304 303 304 304 305 306 308 309 313 320 319 318 322 319 321 320 320 320 318 318 318 318 315 316 316 314 314 313 312
304 305 305 306 305 304 301 304 303 303 303 304 304 304 304 304 303 304 304 304 303 305 310 313 317 321 318 316 316 317 319 319 318 316 318 318 319 318 316 314 314 313 313 313 313
304 305 305 306 305 304 300 302 302 301 303 303 304 304 303 303 303 304 304 306 306 306 305 311 318 316 318 316 319 319 318 317 316 317 319 318 319 318 317 315 314 314 314 313 312
304 305 305 305 304 303 300 301 301 302 301 303 302 303 303 303 303 303 305 305 305 307 308 312 315 317 318 318 319 321 318 319 319 317 316 315 316 317 317 316 313 315 314 313 312
304 304 305 304 304 302 301 301 300 300 298 306 305 304 304 303 305 305 305 305 306 307 307 309 311 317 318 318 318 322 317 319 320 318 321 313 316 312 315 317 314 314 313 310 310
304 305 304 304 304 302 302 302 300 301 305 305 305 303 305 304 304 305 306 306 307 308 308 311 316 317 320 318 317 318 319 320 321 322 315 316 313 310 312 316 316 312 309 309 309
304 305 302 304 304 303 301 301 301 303 307 309 306 305 306 305 306 306 307 304 305 308 309 315 314 316 317 317 316 315 318 319 320 321 322 315 313 310 313 316 313 309 309 310 310
304 303 302 304 303 303 302 301 301 307 306 309 311 308 307 309 309 309 308 307 310 312 314 315 313 313 315 317 315 316 318 323 323 324 316 314 314 311 310 312 311 311 311 310 310
304 305 305 304 304 302 303 298 303 307 307 307 308 309 312 311 309 310 309 309 306 312 315 317 317 315 313 315 317 316 317 323 325 317 316 314 316 314 307 309 312 313 312 312 312
305 305 306 305 304 303 305 304 309 308 307 308 306 312 315 312 311 311 311 315 315 316 315 313 316 311 314 314 315 318 319 315 316 314 312 312 311 308 308 311 312 315 315 313 313
305 306 306 305 304 304 304 309 307 309 308 309 310 313 317 316 315 314 317 314 314 313 311 311 316 314 313 314 313 317 314 319 315 320 318 312 311 311 309 312 312 314 315 314 313
306 306 307 306 305 303 308 309 309 310 309 311 314 314 311 315 314 315 314 312 312 312 312 312 312 317 314 317 316 317 319 317 315 317 317 311 310 306 308 311 311 310 313 314 313
303 306 309 308 305 306 313 313 311 313 311 313 311 312 312 311 313 313 313 312 311 311 315 314 315 318 318 315 313 315 318 315 313 315 312 309 312 307 305 308 308 310 312 313 311
302 304 309 309 304 310 308 311 313 312 313 312 312 311 311 311 313 313 312 311 311 311 312 312 312 314 315 313 312 312 315 315 311 312 313 314 310 307 307 308 309 309 311 312 310
303 303 302 305 307 310 312 312 314 311 312 312 312 311 311 312 311 313 313 312 311 309 312 311 312 308 311 312 310 310 313 310 306 306 312 310 310 310 309 308 307 308 309 311 310
300 306 304 306 307 310 311 312 313 312 312 312 312 312 311 311 312 313 312 312 311 310 310 310 309 310 311 312 313 312 313 310 304 310 309 312 310 310 309 307 306 306 308 311 310
300 302 302 303 305 310 309 311 311 312 312 314 314 313 311 312 311 311 311 311 312 310 311 309 309 309 307 311 311 312 312 312 310 311 310 310 311 307 308 307 307 308 310 312 309
299 300 302 305 306 310 310 310 311 312 312 313 313 313 311 310 309 308 308 308 309 310 310 310 308 307 308 311 311 311 311 311 311 310 310 311 309 311 309 309 310 310 312 312 309

GFSSW_925_thetae_078.txt.gz
Theta_e
307 310 310 310 309 310 310 309 309 309 308 309 309 309 309 311 311 310 310 309 309 307 312 315 317 316 321 323 324 319 324 329 327 326 326 324 325 324 323 323 319 325 338 341 342
309 309 310 309 309 308 309 309 308 308 308 308 308 308 308 309 310 310 309 310 311 313 312 313 317 316 321 323 324 326 322 325 325 324 324 325 327 326 324 324 322 342 341 343 342
309 310 309 309 308 308 308 308 308 308 308 308 308 308 308 307 307 306 307 310 311 313 313 313 317 317 321 321 322 322 324 322 322 323 320 325 325 323 324 325 322 339 343 339 341
307 308 308 308 308 308 308 308 308 308 307 308 307 307 307 306 305 307 310 310 311 311 313 313 316 318 319 323 320 323 321 320 321 320 322 324 322 324 324 324 319 320 341 338 339
306 307 307 307 307 308 308 308 308 308 307 307 305 306 305 305 305 306 306 306 307 313 313 313 316 318 319 320 320 322 322 320 320 320 319 320 321 319 323 323 318 319 336 338 336
306 307 307 307 307 307 307 307 307 308 305 305 305 304 303 304 303 305 305 306 305 307 313 312 316 316 317 317 318 320 321 321 320 320 319 319 319 318 323 323 317 318 326 334 336
306 306 305 307 307 307 306 306 307 307 305 306 304 305 305 303 304 305 305 305 304 305 310 311 313 317 315 317 315 318 321 320 321 319 319 318 320 320 316 316 317 317 316 317 324
305 305 305 306 307 306 305 305 306 306 305 304 304 304 304 303 303 304 304 304 304 304 305 307 311 315 317 315 316 317 320 322 319 318 318 319 321 319 317 317 317 316 315 314 317
305 305 306 306 307 305 305 305 306 305 304 304 305 305 304 305 305 304 304 304 304 304 305 307 313 317 317 317 317 318 319 320 322 318 318 318 320 317 317 316 316 315 315 314 313
304 304 306 306 306 305 303 303 304 304 305 304 304 303 302 305 304 304 303 305 306 306 306 309 314 318 319 318 319 320 320 319 320 319 318 318 318 317 316 316 315 314 313 313 312
304 305 306 306 306 305 301 303 301 301 303 304 304 303 304 303 303 304 304 304 303 306 307 311 315 317 317 317 316 315 318 321 318 316 319 318 318 317 317 315 313 313 313 313 313
304 305 305 305 305 301 301 301 301 300 301 301 303 304 303 302 303 303 304 305 305 306 304 310 314 315 316 316 317 317 317 318 316 317 319 318 319 317 316 315 313 313 313 313 313
304 305 305 305 304 302 300 300 301 301 300 302 302 303 304 302 302 302 305 304 305 306 306 309 311 314 318 316 318 318 317 316 317 315 315 317 319 318 316 315 313 313 312 312 310
304 305 305 305 304 302 301 301 300 300 299 306 305 303 304 303 304 304 304 305 305 306 306 307 308 313 314 317 317 321 318 318 320 317 319 315 320 314 317 317 316 313 311 310 309
304 305 304 304 303 301 302 302 300 300 303 307 305 304 304 303 303 305 304 305 305 306 306 306 309 313 315 317 316 318 318 319 320 322 316 315 316 313 310 316 316 316 313 310 307
304 303 302 304 303 303 301 301 301 296 307 308 305 305 305 305 304 306 306 304 305 308 307 309 312 315 315 316 316 316 318 320 320 322 323 315 316 313 310 312 313 315 312 307 307
304 304 303 303 302 302 302 299 298 303 306 308 309 305 305 307 306 306 306 304 307 306 311 311 315 314 316 316 315 315 318 319 322 324 317 312 315 316 308 309 310 312 308 309 309
304 306 306 304 304 302 303 296 305 304 308 307 308 308 311 310 308 308 308 309 308 309 316 316 316 315 314 316 319 318 313 310 316 318 315 312 316 314 308 305 307 308 310 309 309
305 306 305 305 304 303 301 303 310 309 308 309 309 312 312 311 310 310 308 311 311 309 316 313 316 313 314 314 314 318 320 314 312 312 308 312 311 307 309 310 310 311 311 310 311
305 306 306 305 304 304 302 306 306 306 309 308 311 313 318 317 316 312 314 314 314 311 312 311 316 314 315 314 313 317 314 319 318 321 316 312 311 313 312 312 312 312 312 312 313
306 305 307 306 305 301 305 302 307 308 309 310 312 313 311 315 314 314 313 313 311 311 310 310 312 316 313 316 318 317 318 317 314 312 313 311 311 306 308 312 313 312 312 312 312
302 304 308 307 303 302 305 311 311 311 309 311 309 311 311 310 312 312 313 312 311 311 315 312 313 315 315 313 313 314 316 314 308 316 305 305 310 304 304 309 310 311 313 311 310
302 302 305 306 305 310 308 310 312 312 311 311 312 311 310 311 313 312 311 311 310 310 312 312 312 316 317 314 314 316 317 316 310 305 305 308 310 307 306 307 309 310 312 310 309
299 301 301 301 304 309 311 311 313 312 311 311 311 310 310 311 310 312 312 312 311 309 312 311 310 308 311 311 310 310 314 315 307 303 308 307 309 309 309 309 308 309 311 309 309
297 302 301 300 303 307 310 311 311 312 311 312 312 312 311 311 311 312 312 312 310 310 309 308 309 309 310 312 311 310 311 309 306 307 309 310 310 310 309 308 308 308 310 310 309
297 296 299 300 303 305 308 309 310 311 312 313 313 312 310 312 311 311 309 310 311 309 310 308 310 307 306 310 311 312 311 310 308 309 310 309 310 309 308 306 305 305 307 311 309
297 298 301 299 302 305 306 308 310 311 311 312 312 312 311 310 308 308 307 306 308 309 309 309 308 306 307 310 310 309 309 310 310 309 310 310 309 308 308 307 307 306 307 310 309

GFSSW_925_thetae_081.txt.gz
Theta_e
308 310 311 311 310 310 309 309 309 309 309 309 309 309 309 309 310 310 311 310 310 310 312 312 315 316 319 322 323 318 324 328 325 323 323 322 324 322 322 323 321 319 334 337 341
306 310 310 310 310 309 309 309 309 309 309 308 308 308 308 308 308 309 309 310 311 312 314 313 313 315 318 321 322 323 326 324 321 321 323 326 325 324 323 322 322 321 336 343 346
306 306 308 308 308 308 309 309 309 309 309 308 308 308 306 307 305 305 307 309 312 310 313 313 313 316 319 319 321 323 323 321 323 321 323 325 325 326 325 324 322 322 324 338 344
307 308 308 308 308 308 308 308 308 308 307 307 307 306 307 305 304 307 309 310 311 311 312 313 313 318 317 319 320 324 321 320 320 322 323 323 321 324 325 324 321 320 319 329 337
307 307 307 306 308 308 308 307 307 307 308 306 306 305 305 305 304 304 307 305 305 309 310 313 314 317 317 317 321 322 322 321 319 320 320 320 320 321 323 322 321 321 317 332 335
306 306 306 306 306 308 306 306 306 307 307 304 305 305 304 304 302 304 305 305 305 306 311 313 314 314 316 316 320 321 321 320 319 319 319 320 319 320 319 322 323 323 316 333 334
305 306 306 307 307 307 306 306 306 307 305 304 304 305 304 303 303 304 306 305 304 304 306 313 313 315 315 316 316 318 321 321 320 318 319 317 320 320 319 324 324 323 315 320 332
305 305 305 307 307 307 306 305 306 305 305 303 306 304 303 303 303 304 303 304 304 303 304 305 311 313 316 314 315 318 319 323 319 319 318 317 321 318 323 324 324 323 319 315 318
304 305 305 307 307 306 304 305 306 304 306 306 305 304 303 304 304 304 304 305 305 303 304 305 312 315 317 317 316 317 318 320 321 317 318 317 319 317 318 320 320 318 320 314 313
305 305 305 306 306 306 302 303 303 304 304 304 304 302 303 304 303 303 304 305 306 304 303 309 313 317 319 318 318 316 317 318 319 319 317 318 318 317 318 318 319 317 315 313 313
305 305 305 305 306 304 302 303 300 300 301 303 304 303 303 302 303 304 304 303 304 304 306 311 315 317 316 317 314 316 316 318 317 316 319 318 318 317 315 315 315 316 319 313 312
304 305 304 305 305 300 301 299 301 299 301 301 302 303 303 302 302 304 304 304 305 306 304 309 314 312 314 316 316 317 317 318 316 316 317 318 318 317 316 316 314 313 314 312 312
305 305 305 305 304 301 300 300 301 301 299 302 302 303 304 302 302 302 304 303 305 306 305 309 309 311 316 317 318 316 317 315 317 315 315 317 318 318 317 314 314 312 312 311 310
305 305 305 304 303 301 301 300 300 300 294 306 305 303 303 302 303 304 304 304 305 306 305 306 308 313 314 317 318 320 315 316 318 315 317 315 318 314 318 317 315 315 312 310 309
305 306 303 304 303 300 301 302 301 298 298 307 305 303 304 302 302 304 304 304 304 306 305 307 308 313 313 317 316 319 318 318 319 317 316 314 316 314 309 315 316 315 315 310 308
305 305 303 303 303 302 301 301 301 295 303 307 305 305 305 304 303 305 304 303 304 307 305 307 308 313 314 315 316 317 319 319 319 318 319 314 316 315 311 311 313 313 312 311 307
304 304 304 303 302 302 302 298 298 305 306 309 309 305 304 304 302 306 305 303 305 304 309 310 313 313 314 312 316 317 317 320 322 323 319 312 316 318 311 307 308 309 309 307 305
303 305 305 304 303 302 302 296 306 305 308 308 309 308 309 308 308 306 305 302 304 308 310 314 315 314 311 314 319 316 313 310 315 320 317 311 316 315 308 307 305 305 307 306 307
305 306 305 305 304 303 300 304 312 309 308 309 310 311 312 311 308 307 305 308 307 307 314 315 316 312 313 314 315 318 314 311 310 308 306 311 310 308 306 308 308 307 308 308 308
305 305 305 305 304 303 301 309 305 305 307 308 310 310 313 315 312 311 311 310 311 307 310 310 318 315 314 314 313 314 313 315 317 309 314 311 309 312 309 310 309 309 308 308 309
306 304 306 305 304 299 302 301 305 307 308 309 310 312 311 312 314 313 312 313 313 313 309 310 313 316 315 317 317 317 318 316 312 310 312 311 310 304 306 308 309 309 309 310 310
301 301 306 306 301 300 301 309 309 310 308 309 309 310 311 309 312 312 314 313 311 310 313 311 313 316 316 313 313 314 315 314 307 316 310 301 309 305 303 305 309 310 311 310 309
300 301 303 305 301 300 305 309 311 312 310 311 311 311 309 310 312 311 312 312 310 311 311 312 312 317 315 314 313 315 315 315 309 304 304 307 310 306 305 307 309 311 311 310 308
298 300 299 299 301 307 307 306 310 311 311 310 311 310 310 310 310 312 311 312 311 308 312 310 310 308 311 311 314 316 315 314 314 313 309 305 310 307 308 309 309 312 312 309 309
294 299 300 297 300 303 305 307 309 310 309 311 311 312 311 311 310 311 311 311 310 309 309 308 310 308 309 311 310 310 311 314 314 312 310 311 308 308 307 307 308 310 311 309 309
296 294 295 297 300 303 305 306 308 310 311 310 312 311 311 311 310 311 308 309 310 309 309 307 308 307 306 310 311 312 310 312 313 312 310 309 309 307 307 305 307 307 310 310 310
295 297 297 296 298 301 303 303 305 305 309 310 312 311 311 310 307 308 307 307 306 309 308 308 307 305 304 309 310 308 309 309 310 308 310 311 310 307 308 307 307 305 309 310 309

GFSSW_925_thetae_084.txt.gz
Theta_e
307 307 309 309 310 310 309 309 310 310 310 310 309 309 309 309 309 308 310 310 311 312 313 313 314 315 318 320 321 317 326 329 324 322 323 321 322 321 321 322 321 319 327 331 338
307 307 308 309 309 309 309 309 310 309 309 310 309 309 308 307 307 307 306 310 311 312 314 314 313 315 317 318 321 324 326 324 321 319 320 321 322 322 323 323 322 322 319 332 343
308 307 308 308 308 309 309 309 309 309 309 307 307 307 306 307 304 303 310 309 311 311 311 312 313 315 317 317 320 323 322 320 321 320 322 323 325 325 323 325 322 321 320 320 328
307 307 307 307 307 307 309 308 307 307 307 308 307 305 307 305 303 304 309 309 310 311 310 311 313 316 316 317 317 324 322 320 319 322 322 323 322 325 323 321 320 319 319 319 321
306 307 307 307 307 307 308 307 306 306 307 307 305 305 305 304 303 302 305 306 305 307 311 311 313 315 316 314 318 322 322 320 319 321 320 318 320 322 323 322 320 321 321 318 318
305 306 306 307 308 308 307 306 306 306 307 306 304 305 304 303 302 304 305 303 304 305 309 311 313 313 316 315 317 317 319 320 320 319 320 320 319 319 319 321 323 322 322 320 318
305 306 306 307 308 308 306 305 307 306 306 304 304 305 303 302 302 305 305 304 303 304 306 310 310 313 316 316 316 318 318 319 320 318 318 316 319 320 319 324 324 323 321 320 318
305 305 306 306 307 307 305 306 307 305 304 304 306 304 302 302 303 304 304 303 302 303 304 305 306 311 315 314 315 319 318 318 321 318 317 317 321 317 320 322 324 323 322 320 319
305 306 306 306 306 306 303 305 306 306 306 306 304 303 302 303 304 304 303 304 304 304 305 305 306 313 315 317 315 317 322 320 319 318 318 316 319 315 321 321 323 324 322 320 317
305 305 306 304 306 305 301 303 304 304 303 303 304 301 302 303 303 303 303 304 305 304 305 307 312 313 315 319 315 318 319 319 319 318 317 317 317 315 321 321 321 323 322 320 314
304 305 305 304 306 302 302 302 299 299 301 303 303 302 303 302 303 304 304 303 305 304 305 303 312 312 314 317 312 312 316 317 316 316 318 316 317 316 315 321 321 322 322 320 316
305 305 305 305 305 300 301 299 300 299 300 300 301 302 303 302 302 303 304 303 304 306 304 306 311 311 314 314 316 312 317 317 316 316 318 316 317 316 313 315 317 321 321 319 318
305 304 305 305 304 301 300 300 300 301 299 301 302 303 303 302 301 302 303 303 305 306 305 306 310 313 313 315 318 313 315 315 316 315 314 315 317 317 316 314 312 313 317 318 318
304 305 305 304 303 301 300 300 300 300 294 306 304 302 303 302 303 304 304 303 305 306 305 307 310 312 312 313 316 318 313 315 314 315 320 315 319 312 316 316 313 313 311 313 315
305 305 304 304 302 300 301 301 300 298 299 305 305 303 303 301 301 303 303 304 304 306 305 307 309 311 312 313 316 318 315 316 315 314 313 314 316 313 310 315 317 315 313 312 310
305 306 304 303 303 302 301 301 300 296 301 305 306 305 304 303 302 304 304 303 304 306 305 307 307 310 310 309 316 316 318 318 316 315 314 312 315 313 311 311 311 311 312 312 311
306 305 304 303 302 302 301 298 297 300 304 309 310 305 302 302 302 304 304 301 303 303 305 309 311 312 312 311 316 318 315 322 323 322 316 311 314 316 310 307 308 308 309 310 309
304 305 305 304 303 302 301 296 299 303 298 307 310 307 305 306 305 305 303 300 301 304 304 310 314 313 312 312 317 318 313 309 313 317 316 311 315 314 309 308 307 306 306 306 306
304 305 305 305 304 302 298 300 303 300 308 309 309 307 312 310 309 308 306 302 303 305 311 312 315 311 312 314 315 317 317 308 307 305 308 311 309 307 307 306 305 305 305 305 305
305 305 304 304 304 302 297 305 302 305 306 309 309 308 309 312 311 310 308 307 309 304 308 311 317 313 311 314 313 314 312 313 312 309 314 311 309 311 310 308 307 307 306 306 307
306 304 304 304 303 297 299 299 303 306 307 309 308 310 310 312 312 310 312 312 310 309 308 311 313 316 311 314 316 317 314 314 311 307 310 311 311 303 307 305 304 307 306 307 308
301 301 304 304 298 297 299 307 308 309 307 308 308 309 310 309 310 313 316 314 311 311 311 311 314 316 316 313 312 313 314 313 309 312 307 302 310 305 303 302 303 307 308 308 308
299 299 302 302 300 298 303 307 309 310 310 311 312 310 309 309 311 311 313 311 311 313 312 311 312 317 316 313 313 315 313 311 306 305 311 308 311 305 305 305 307 308 308 308 307
296 297 296 297 299 305 306 304 308 308 310 310 311 310 310 309 309 311 312 312 311 310 313 311 310 310 312 311 312 314 313 312 306 304 309 306 308 308 307 307 308 309 309 307 307
292 298 298 295 296 299 302 306 308 308 308 309 312 312 311 310 309 310 310 312 311 310 309 309 310 308 309 310 311 312 312 312 310 310 310 310 309 309 307 305 306 309 309 308 308
294 293 293 294 296 299 301 303 302 304 306 308 311 312 311 311 310 310 308 308 310 309 309 306 310 307 307 310 310 311 309 311 312 312 310 309 308 305 305 305 306 308 309 310 309
294 296 294 295 294 297 298 296 298 299 301 307 305 305 309 310 307 307 307 306 307 308 308 308 306 305 305 309 309 308 308 310 312 310 312 312 312 309 307 306 306 306 309 311 309

GFSSW_925_thetae_087.txt.gz
Theta_e
307 308 308 311 309 310 310 311 311 310 310 310 310 309 309 307 308 308 309 309 310 312 314 313 314 316 317 318 322 318 327 329 327 325 326 321 323 321 321 323 321 323 331 331 338
307 309 308 309 309 308 308 310 310 309 309 309 309 308 307 306 306 306 304 308 311 310 313 313 313 315 318 317 321 324 327 326 322 320 323 321 321 323 323 323 322 321 322 324 336
307 308 309 308 308 307 308 309 308 307 307 308 308 307 305 305 303 302 309 311 310 312 310 311 313 314 318 318 319 322 323 321 320 320 320 322 324 324 324 325 323 323 322 323 323
307 307 308 307 309 308 309 308 307 306 307 308 306 305 305 304 302 304 308 308 310 311 311 310 312 315 317 319 317 322 321 320 320 321 322 323 323 325 323 323 321 321 321 320 321
307 306 307 306 309 309 308 307 306 307 306 306 306 305 304 303 302 303 305 305 305 305 310 310 310 313 316 316 318 321 321 320 319 321 321 320 323 323 324 322 321 321 322 321 320
307 306 306 307 308 308 307 306 307 307 306 305 304 305 303 301 302 304 304 303 304 304 306 310 310 311 315 314 317 318 319 321 319 319 320 321 320 321 321 320 323 323 323 322 322
307 306 306 307 307 308 306 307 307 306 306 306 305 303 302 301 303 305 304 304 303 305 305 308 309 312 314 316 314 318 319 319 320 320 319 317 321 321 319 322 323 323 323 322 321
307 305 306 306 307 307 305 307 307 304 305 305 306 303 301 302 303 304 304 303 302 303 305 305 306 309 312 315 314 319 317 322 318 319 319 318 325 318 317 322 322 323 323 322 321
306 306 305 305 306 306 302 305 306 306 306 305 304 302 302 303 303 303 304 304 303 303 304 306 307 311 313 315 317 318 321 318 320 319 318 318 321 317 318 321 320 322 322 322 321
305 305 305 305 305 305 300 303 303 303 303 303 303 301 302 302 303 303 303 304 305 304 306 307 309 312 313 312 317 316 319 318 319 321 318 317 317 315 319 321 321 322 323 322 321
305 305 305 305 305 302 301 301 299 298 301 302 302 301 303 303 303 304 304 303 304 303 303 304 308 314 313 312 313 315 317 319 317 316 320 319 318 317 319 321 320 322 323 322 322
305 305 305 305 304 301 300 299 299 299 299 300 301 301 302 302 302 303 303 303 304 306 303 305 308 311 311 313 316 315 317 318 316 316 320 318 319 317 315 321 321 322 322 322 321
304 305 305 305 304 301 300 300 300 301 298 301 302 302 302 302 301 301 303 302 304 305 304 305 308 310 313 312 313 314 317 316 317 316 314 317 320 318 316 314 316 318 321 320 321
304 305 306 304 302 301 300 299 299 299 293 303 304 302 303 302 301 304 304 303 304 306 305 307 309 311 311 315 313 315 314 315 317 319 321 314 321 314 317 316 315 317 315 319 319
305 305 305 304 302 300 301 300 300 297 298 304 304 302 303 301 300 302 303 303 304 305 304 308 311 313 312 312 309 317 313 315 313 314 314 316 320 316 310 318 317 314 312 312 314
305 305 305 303 302 301 301 301 299 296 299 305 305 304 303 303 302 302 303 302 304 306 304 306 306 310 311 309 309 309 316 316 316 314 318 313 318 316 313 313 316 317 314 314 313
306 305 304 303 301 301 301 297 297 299 301 307 309 305 303 302 301 303 303 299 301 299 299 310 309 312 309 311 309 309 317 321 320 319 316 310 316 317 311 309 309 311 312 312 313
304 305 305 303 303 302 300 295 297 301 296 306 310 308 306 305 304 303 302 299 300 302 299 308 310 311 311 309 313 317 313 314 316 318 316 311 318 316 310 309 307 307 306 306 310
304 305 305 304 303 302 298 298 300 297 304 310 310 309 310 309 309 306 304 301 300 303 309 312 315 310 312 310 310 318 313 307 308 305 314 314 310 308 307 307 306 306 306 306 305
304 304 303 304 303 301 296 304 301 304 305 309 310 308 313 313 310 308 307 304 307 303 306 311 314 312 312 312 313 315 312 315 310 313 317 312 310 313 310 309 306 307 307 306 306
305 302 303 303 303 297 297 297 302 305 306 309 309 310 311 312 311 310 311 309 306 306 306 311 313 314 312 313 317 316 318 312 311 310 314 314 312 306 308 306 304 303 305 306 307
300 298 303 302 297 295 297 305 306 308 306 308 309 309 311 309 310 313 312 311 310 308 309 309 314 316 314 313 313 313 314 311 312 315 303 307 313 305 304 303 302 304 307 307 308
297 298 301 301 298 299 302 304 306 309 309 310 311 311 310 310 312 311 312 312 311 310 311 311 313 317 316 312 313 315 313 308 306 307 311 314 313 304 304 306 306 308 308 308 308
293 294 295 295 296 301 301 302 306 306 307 307 310 311 310 309 308 311 310 313 311 312 313 312 310 309 310 309 311 314 313 309 307 309 311 309 311 310 309 308 305 309 308 308 308
291 297 296 293 295 297 300 304 300 302 301 304 308 306 304 310 309 309 309 308 312 312 310 310 313 308 309 309 311 312 312 311 306 308 311 309 309 310 307 306 304 306 308 308 308
294 292 292 294 294 296 298 299 298 298 299 300 304 302 303 306 309 312 309 309 310 310 310 306 311 307 308 309 310 312 310 310 311 311 310 309 310 305 305 304 305 307 309 309 309
294 295 293 294 293 295 297 296 297 297 299 299 300 301 305 307 305 306 305 306 307 309 310 308 308 307 307 308 308 307 307 309 311 309 311 312 311 307 307 306 306 306 309 310 310

GFSSW_925_thetae_090.txt.gz
Theta_e
308 308 310 309 309 309 309 309 310 310 309 309 310 310 308 307 307 308 308 308 311 311 314 314 314 317 319 320 323 324 330 331 327 326 326 326 326 325 324 325 325 331 331 338 340
309 308 309 309 308 309 309 309 310 309 307 307 308 309 307 306 307 306 306 309 310 312 312 314 316 317 319 319 322 323 328 327 325 325 325 325 326 326 326 325 325 327 327 339 342
308 308 308 308 308 310 309 310 308 307 307 307 309 307 306 306 305 304 309 310 313 311 311 312 314 316 318 319 319 322 321 323 324 324 324 325 325 324 325 326 325 325 328 333 329
308 308 308 307 308 310 309 308 307 307 307 308 305 306 306 305 306 304 308 309 309 311 311 311 312 316 317 318 317 321 320 320 323 323 323 324 323 325 324 324 324 324 326 329 330
308 307 308 307 308 309 309 307 307 308 307 305 306 307 305 305 304 303 304 306 305 309 311 310 313 314 315 315 317 319 318 320 321 322 323 323 325 324 325 324 324 324 325 326 327
308 307 307 307 307 308 308 307 307 307 305 305 305 305 304 304 303 305 304 304 305 306 307 311 310 311 313 313 316 315 317 320 320 321 323 323 323 324 324 324 325 325 326 326 325
308 307 306 306 307 308 307 307 307 307 306 307 306 304 304 303 303 306 305 305 305 305 306 308 310 311 311 314 314 315 316 320 321 320 322 323 324 325 323 324 325 325 325 325 325
307 307 307 305 307 306 305 307 305 305 306 306 305 304 304 302 304 305 304 304 304 304 305 308 309 310 313 312 315 317 317 320 320 321 320 322 325 323 323 323 325 325 325 325 325
306 306 306 305 305 305 302 304 306 307 307 304 304 304 305 305 304 304 305 305 305 305 306 307 308 311 312 311 317 316 317 317 320 321 321 323 320 321 322 323 324 323 324 325 325
306 306 305 305 305 304 300 303 303 303 303 303 304 305 303 304 304 303 304 305 305 305 306 307 310 312 314 312 320 317 316 315 319 322 322 322 321 320 321 322 323 322 322 324 325
305 305 305 305 305 303 301 302 303 303 303 303 303 303 303 303 304 304 304 305 305 305 305 305 312 313 314 313 313 313 314 315 316 320 322 321 320 320 319 321 321 321 322 323 324
305 305 305 305 305 302 300 302 301 301 303 301 302 303 303 303 303 304 304 305 305 306 305 307 311 310 311 311 315 316 314 317 315 320 321 320 321 320 320 320 320 321 320 322 324
305 305 305 305 303 301 301 301 300 300 303 302 303 303 303 303 303 303 305 304 305 305 306 308 310 309 312 314 313 316 314 316 318 319 319 320 321 319 319 319 319 320 321 321 324
304 305 306 304 303 301 301 299 300 299 306 306 305 304 303 303 303 304 305 304 305 305 308 307 309 311 313 313 312 317 313 316 318 319 320 320 319 319 319 320 320 320 321 322 324
304 305 305 304 303 302 301 300 300 299 313 306 305 303 303 303 302 304 304 305 304 303 308 310 313 313 314 313 311 317 315 315 317 318 319 321 322 318 317 321 321 320 320 321 322
305 305 305 304 302 301 301 301 301 308 314 308 306 305 304 304 303 303 304 303 305 306 306 307 308 311 312 311 312 310 315 317 317 319 321 317 320 316 317 317 319 319 320 320 319
305 305 305 303 304 302 301 301 310 314 305 310 311 306 306 305 303 304 304 305 305 307 309 308 310 311 311 313 310 309 317 321 321 321 318 314 319 317 316 315 316 317 319 320 319
304 306 304 303 302 302 301 305 312 307 309 307 310 309 307 306 304 303 303 304 303 305 307 311 311 312 310 312 314 312 316 317 315 316 314 315 319 314 315 315 315 314 314 314 318
304 305 305 304 302 302 304 312 312 311 309 313 312 312 311 309 308 306 305 304 302 304 310 314 314 311 310 308 311 317 319 312 316 313 315 315 315 314 313 314 313 313 313 313 313
304 305 304 303 302 301 306 311 310 306 308 310 314 310 314 313 310 309 308 306 306 302 307 313 315 311 312 310 309 310 314 319 319 320 317 316 315 311 314 314 312 312 313 313 312
304 308 303 302 302 303 312 310 307 307 307 310 311 311 314 314 310 310 312 309 306 304 305 309 314 315 312 313 315 315 319 315 316 318 317 317 315 312 311 312 311 310 310 310 312
304 310 302 302 307 302 307 303 306 308 308 309 309 309 312 313 312 313 312 312 307 307 308 308 314 315 317 313 313 314 317 315 320 319 313 317 315 308 310 310 310 312 312 311 311
304 305 300 301 308 304 302 303 305 303 306 305 310 311 308 311 313 312 309 310 309 309 312 312 317 318 318 315 314 314 315 313 313 316 318 317 315 309 308 310 311 312 313 312 312
301 309 300 302 300 301 301 303 301 300 305 301 305 304 304 312 310 313 309 312 311 310 312 313 313 313 316 314 315 317 317 314 317 320 317 317 314 313 311 312 312 310 313 313 313
299 303 298 302 301 300 301 302 300 300 299 302 303 302 304 307 311 313 309 311 310 310 312 313 317 312 312 312 313 314 316 314 315 316 320 315 314 314 313 312 311 310 312 313 314
302 302 297 299 298 299 299 300 299 299 299 301 301 301 305 306 307 308 307 308 309 311 310 311 314 311 312 312 313 314 314 315 315 315 314 312 313 310 311 311 310 311 312 313 314
294 296 299 297 299 300 299 298 298 298 298 299 300 302 306 305 302 303 304 307 310 312 312 311 313 314 315 310 311 312 310 313 313 313 314 316 314 312 311 310 311 312 311 314 313

GFSSW_925_thetae_093.txt.gz
Theta_e
308 309 309 311 310 309 311 309 310 311 309 308 308 309 310 310 308 308 309 309 311 312 313 312 314 315 318 320 321 324 330 331 327 326 325 325 324 324 325 326 326 330 334 338 340
308 308 308 309 309 309 311 310 310 308 308 308 308 309 309 308 309 308 309 308 311 311 312 313 313 316 319 320 322 324 329 329 325 324 324 325 326 326 326 326 328 329 337 339 342
308 308 309 308 309 309 311 310 309 307 308 308 308 308 307 307 308 307 307 311 310 313 311 312 314 316 319 318 320 322 325 325 324 324 325 325 326 327 327 326 326 327 336 341 345
309 309 309 308 308 309 310 309 308 309 308 308 306 306 306 307 308 305 306 308 309 310 311 312 313 315 318 319 317 321 320 320 323 325 325 326 325 326 327 327 326 325 329 336 341
308 309 308 308 309 308 309 308 308 308 308 305 306 307 307 307 307 305 306 307 306 309 311 312 313 314 316 318 317 318 319 318 319 322 325 324 326 326 325 325 325 325 327 331 334
308 308 308 308 308 308 308 307 308 308 305 305 306 305 306 307 304 306 306 305 306 307 310 311 311 313 315 315 316 316 317 318 319 323 323 325 324 323 324 324 325 325 326 327 329
308 308 308 307 307 308 308 307 307 306 307 307 307 305 306 305 304 306 306 305 305 306 308 309 310 312 313 314 314 315 317 317 319 319 322 322 323 324 323 324 325 325 325 327 327
307 307 307 306 307 306 305 304 307 304 305 308 306 305 306 304 305 305 305 305 305 305 305 308 308 311 313 313 313 315 317 318 317 319 319 322 323 321 322 323 325 324 325 327 327
306 306 306 306 306 306 305 301 306 307 307 304 306 305 306 305 305 305 305 305 305 305 307 306 309 308 310 316 317 316 324 316 315 319 318 322 321 319 321 323 324 324 324 325 326
305 305 306 306 306 305 302 301 305 303 304 304 305 306 304 305 304 304 305 305 305 306 307 308 309 310 312 315 320 321 320 316 315 320 320 321 321 319 322 322 322 323 323 324 325
306 305 305 306 306 305 302 304 305 306 304 305 305 304 304 304 304 305 305 305 305 306 307 306 310 314 314 313 314 317 316 315 313 318 319 321 319 320 321 322 322 321 322 323 324
305 305 305 306 305 304 302 304 304 304 304 303 304 304 303 304 304 304 305 305 305 306 307 308 310 310 311 313 315 315 318 315 313 319 319 320 320 320 320 321 321 321 321 321 322
305 305 305 306 304 303 303 303 302 303 305 305 304 304 304 304 304 304 305 305 304 305 306 308 310 309 311 314 314 315 318 317 314 319 319 320 320 320 319 320 320 320 320 320 321
304 305 305 305 305 305 305 302 302 302 308 308 306 305 303 304 303 303 304 304 304 305 306 308 308 311 313 314 313 318 315 316 316 319 319 318 321 318 318 319 319 320 320 320 321
305 305 305 304 306 307 303 302 302 302 315 308 307 304 304 304 304 305 305 304 304 305 305 311 311 311 314 314 313 318 316 315 317 318 317 319 319 317 317 319 319 319 319 319 321
305 305 305 306 306 304 303 303 303 309 317 310 308 307 307 305 304 304 305 304 305 305 307 310 309 312 313 312 312 311 317 318 317 318 323 318 317 315 319 318 319 319 319 319 320
305 305 305 304 306 303 303 304 309 314 308 313 311 309 308 308 306 304 304 305 306 309 311 311 313 312 312 312 310 311 318 323 321 322 317 315 318 317 316 316 317 319 319 319 320
305 306 305 305 303 302 303 308 315 309 316 310 310 310 309 308 307 304 304 305 304 305 310 312 313 313 312 313 315 313 317 321 320 321 317 315 316 316 315 315 315 316 317 319 320
305 307 307 304 303 303 306 315 312 310 308 311 311 312 314 310 310 307 306 306 304 305 312 312 314 312 310 310 312 315 317 315 318 315 317 315 313 314 315 315 315 316 315 315 317
307 308 305 303 303 305 308 310 305 307 309 310 312 311 312 312 310 309 309 308 304 303 308 314 314 311 311 310 310 311 311 318 321 318 317 315 312 315 315 315 315 315 315 315 315
307 311 304 303 304 307 311 306 305 307 308 309 308 310 312 314 310 310 311 309 306 303 307 310 314 314 311 312 314 314 318 319 318 320 317 317 314 314 314 313 313 313 312 313 315
308 312 303 303 310 308 306 303 305 303 305 307 309 311 310 312 314 313 312 311 307 305 309 310 314 316 317 314 312 314 316 317 321 320 318 319 316 313 313 313 313 314 314 314 314
305 308 303 303 307 306 303 303 302 302 304 303 306 306 305 310 315 316 308 311 310 308 313 313 317 319 317 316 314 315 316 318 315 320 322 321 316 312 312 313 313 313 315 315 314
305 312 303 303 302 303 303 304 302 301 302 304 303 305 306 309 311 313 309 312 310 310 313 314 316 316 319 317 316 317 317 316 317 322 317 317 315 313 312 313 313 313 314 315 315
305 307 302 304 303 302 302 303 302 302 301 302 304 304 305 309 309 309 309 309 312 311 312 314 319 314 313 314 314 316 318 316 317 317 321 316 316 314 314 314 313 313 313 315 315
305 305 301 302 301 302 301 302 301 301 301 302 302 303 305 307 306 308 307 310 311 311 311 313 316 313 314 314 314 316 315 316 315 315 315 315 315 314 313 312 313 312 313 314 315
299 299 304 300 302 302 302 301 300 300 300 300 302 304 306 305 302 303 303 305 308 312 314 313 314 315 317 312 313 316 315 315 315 315 315 317 315 313 313 313 312 313 312 313 314

GFSSW_925_thetae_096.txt.gz
Theta_e
308 309 310 309 310 310 310 313 311 311 309 308 309 309 310 311 310 309 310 310 311 312 312 313 313 313 315 318 320 323 330 331 330 327 325 324 324 324 323 324 327 333 338 346 346
308 309 310 310 309 310 310 312 311 310 308 309 310 309 309 309 310 309 310 311 311 311 311 312 314 312 316 318 320 324 327 328 327 325 324 325 324 324 325 325 328 337 337 345 345
308 310 310 309 309 309 310 311 310 308 309 309 309 309 307 308 309 309 310 310 311 310 312 310 313 313 316 318 320 321 324 324 326 325 326 328 326 324 324 326 327 335 339 342 345
309 309 310 309 308 310 309 310 308 308 309 309 308 306 306 309 309 306 304 307 308 308 311 310 313 314 317 318 318 321 319 321 324 324 326 326 327 327 325 324 325 331 337 343 345
309 309 309 309 308 309 309 309 308 309 308 306 307 306 308 309 307 306 306 306 306 307 311 312 313 313 315 316 317 319 318 318 319 322 324 325 326 326 327 325 323 330 335 337 343
308 309 309 308 307 308 309 308 308 308 307 307 305 306 308 308 304 306 306 306 306 306 309 311 312 312 311 315 317 318 317 318 318 321 323 325 326 326 325 324 323 326 327 331 333
308 307 306 307 307 307 307 307 308 307 307 307 307 306 307 306 304 306 306 305 305 305 308 309 310 311 312 313 315 315 317 318 318 322 324 323 326 327 325 322 324 324 324 325 329
307 307 307 306 306 307 306 306 306 307 306 308 306 306 307 304 305 305 305 305 305 305 305 308 309 309 310 313 313 316 316 320 318 320 322 322 327 324 322 324 324 323 322 324 325
307 306 306 306 306 306 305 304 304 306 307 305 306 307 307 304 305 305 305 305 305 305 307 306 307 307 308 316 315 315 319 319 317 318 318 322 322 320 320 320 323 322 321 323 324
307 306 306 306 306 306 304 300 305 304 304 305 305 305 306 305 305 304 305 305 305 306 307 307 308 309 308 313 316 315 316 316 316 315 319 318 318 318 318 319 319 320 319 321 324
306 305 305 306 306 305 302 304 306 306 305 306 305 305 304 304 304 305 305 305 305 306 307 306 308 310 310 310 314 315 315 315 314 315 316 319 319 318 318 319 318 319 320 319 320
306 305 305 306 306 303 303 305 305 303 303 305 304 304 304 304 303 304 305 305 305 307 306 306 306 306 309 310 314 314 319 316 316 316 317 319 320 318 317 320 319 319 318 318 319
305 305 305 306 304 305 304 304 303 304 305 305 304 304 304 304 304 304 305 305 305 305 306 308 307 308 310 312 314 313 316 318 319 318 319 318 320 320 317 318 318 319 317 317 317
305 305 305 305 306 306 306 303 303 303 306 308 306 305 304 304 304 303 304 304 304 305 305 306 306 310 312 314 314 315 314 314 317 319 325 320 323 322 319 318 318 316 316 316 317
305 305 306 304 307 306 304 303 303 303 316 308 307 304 305 304 304 304 304 305 305 305 306 308 310 310 314 315 313 315 314 317 319 319 318 320 320 319 319 317 317 317 316 316 316
305 305 306 306 306 304 304 304 304 309 313 308 308 308 308 304 306 305 305 304 304 305 305 307 309 313 312 313 312 312 316 318 318 319 322 319 317 313 314 316 316 316 316 316 315
305 305 306 306 307 303 304 304 310 313 309 311 310 308 307 308 306 304 304 305 306 307 311 313 313 312 312 313 311 312 317 321 322 321 322 317 317 313 314 315 315 316 316 315 314
305 306 305 305 304 303 305 309 312 308 310 308 309 310 309 308 306 305 305 305 305 305 310 312 311 312 311 313 314 313 316 320 317 317 314 316 322 314 313 313 314 314 315 314 315
306 307 306 304 303 304 307 312 309 308 308 310 310 310 313 309 309 308 306 306 304 304 313 313 314 311 312 312 312 314 317 314 319 315 316 313 312 311 312 313 314 314 314 314 316
308 308 306 304 303 305 310 308 306 308 307 308 310 309 313 312 308 309 309 307 303 303 309 311 313 311 311 310 310 311 310 318 319 321 324 314 311 314 313 312 313 313 313 313 314
307 311 305 303 305 308 310 305 305 305 306 310 310 311 310 313 312 309 312 309 305 303 307 310 313 314 311 311 312 311 313 316 318 318 318 315 313 312 311 312 312 311 311 312 312
309 315 305 304 310 310 308 303 303 302 304 306 308 308 307 308 313 312 312 310 307 305 308 310 314 313 313 312 311 313 313 316 320 319 317 318 313 310 311 311 312 313 313 312 312
308 309 305 304 310 310 304 304 302 302 303 304 306 305 306 309 315 311 309 310 311 307 314 311 315 317 316 315 314 315 314 317 317 316 320 323 313 311 311 311 311 311 312 312 313
307 311 305 306 302 303 304 304 302 302 302 302 303 305 306 309 310 311 309 311 312 312 313 313 315 315 319 317 314 313 314 316 315 319 317 319 312 311 310 311 311 311 313 312 312
307 311 305 308 305 302 302 303 302 302 301 302 304 305 305 308 310 310 308 311 311 312 312 313 317 315 314 314 315 315 316 316 314 316 317 316 315 312 311 311 311 311 312 313 313
306 304 301 301 301 302 302 302 302 301 301 302 303 304 306 306 305 307 305 309 310 310 311 312 316 313 313 314 314 316 317 316 315 315 314 314 315 312 310 309 310 310 311 313 314
301 301 304 302 302 302 302 301 301 300 301 301 302 304 306 305 302 302 303 304 306 310 313 313 316 314 318 313 313 315 315 315 315 314 315 316 314 311 312 311 312 310 311 312 313

GFSSW_925_thetae_099.txt.gz
Theta_e
311 310 310 310 310 310 310 311 313 311 310 309 309 310 309 310 310 310 310 308 311 312 311 310 311 313 312 315 317 320 327 331 328 326 326 323 323 322 320 324 333 337 342 344 345
310 310 311 311 310 309 310 310 311 310 309 310 310 310 309 309 309 309 309 311 311 312 310 309 311 313 313 316 317 322 326 324 324 324 325 327 324 324 327 329 338 340 344 346 345
309 310 310 311 310 309 311 310 310 308 308 309 309 309 308 307 309 309 311 310 311 310 308 310 310 313 314 314 317 319 323 322 323 323 326 326 327 326 325 329 336 342 346 345 346
309 309 310 310 309 309 309 309 309 308 309 309 308 307 306 308 309 305 307 307 308 307 307 311 311 313 314 316 315 320 319 320 322 326 326 326 326 328 326 324 332 337 344 343 345
308 309 309 309 308 308 309 308 308 308 308 307 307 306 308 310 308 306 306 305 305 306 309 311 312 310 313 315 315 317 318 318 318 323 322 325 326 327 327 325 325 338 342 343 343
308 308 308 307 308 307 308 308 307 307 308 308 306 305 307 309 304 306 305 305 305 306 308 310 311 311 312 311 313 316 316 316 318 322 322 326 327 327 327 324 325 336 339 341 342
308 308 308 307 307 308 307 307 307 307 307 308 307 306 307 307 304 305 305 305 305 305 305 308 309 311 310 311 312 315 316 317 320 322 324 324 327 328 326 326 326 329 331 334 339
307 307 307 306 307 307 307 306 307 306 307 307 306 306 305 305 303 305 305 305 305 305 306 309 308 308 309 308 314 317 316 319 318 320 322 324 325 325 325 325 325 325 321 329 332
307 307 306 306 306 307 306 305 304 305 306 307 306 306 306 305 305 304 305 305 305 306 306 308 307 308 308 308 315 314 321 318 319 318 324 323 324 323 324 325 324 322 320 324 325
307 307 306 306 306 306 305 303 303 306 304 305 305 304 305 305 304 304 304 305 305 305 307 307 307 309 308 309 315 315 317 316 318 318 323 322 321 319 324 324 323 322 320 320 322
307 306 305 306 306 306 303 303 303 304 303 304 305 304 305 304 304 304 305 305 305 305 303 304 305 305 310 308 310 313 315 316 314 315 321 323 321 319 320 323 323 322 323 316 321
306 305 305 306 306 303 304 303 303 302 302 303 305 303 304 303 304 304 304 304 305 305 304 302 304 305 309 309 310 313 315 314 313 314 315 317 319 318 316 317 319 319 319 316 316
306 305 305 305 305 305 304 303 302 303 303 305 304 304 305 304 304 304 305 304 305 304 304 303 306 305 308 311 311 312 317 314 315 316 316 316 319 320 318 315 318 317 316 315 315
305 305 305 306 307 306 304 303 302 303 305 307 306 305 305 304 305 304 304 304 305 305 304 304 306 307 310 312 312 317 315 314 318 319 321 319 322 319 318 317 316 315 315 315 314
305 305 305 304 306 304 304 303 302 302 300 305 307 303 304 305 305 304 304 304 304 304 305 305 307 309 314 314 312 316 314 317 317 318 317 321 322 318 318 318 317 316 313 313 312
305 305 306 306 306 304 303 303 303 299 298 307 308 307 308 305 304 305 305 303 304 304 305 306 306 311 312 312 313 312 317 318 318 320 318 320 320 312 319 319 316 314 313 313 313
305 305 306 306 306 303 303 302 302 299 303 304 309 307 306 306 306 305 304 303 301 306 309 310 312 312 311 312 311 312 316 321 321 322 317 318 318 313 313 315 315 314 312 312 312
305 305 306 305 304 303 305 300 299 304 301 307 309 308 309 307 305 306 304 299 303 305 307 304 313 313 311 312 311 313 314 315 321 320 314 316 318 315 310 311 313 312 311 312 312
306 306 306 304 303 304 301 298 299 301 306 307 306 304 311 309 309 306 300 302 304 304 313 307 313 312 311 311 312 314 315 314 317 316 312 316 312 309 311 311 310 311 310 311 311
307 307 305 304 303 304 299 301 302 306 303 307 303 308 310 312 308 305 304 306 305 302 309 310 313 310 311 310 308 312 310 317 314 318 319 311 311 310 311 312 312 312 311 311 311
307 307 305 303 305 300 297 298 304 303 304 308 309 311 307 310 312 302 308 308 304 303 305 309 309 312 310 311 309 309 310 315 317 313 316 312 310 310 311 309 310 309 310 311 311
306 307 305 304 299 301 297 302 303 301 302 306 305 306 306 308 313 308 309 310 309 303 310 310 311 309 310 313 310 309 311 317 313 318 310 307 310 309 309 309 311 311 311 310 310
306 302 304 304 297 297 302 303 301 301 302 303 304 305 305 308 314 309 308 308 310 310 311 310 315 312 313 314 313 314 313 316 316 312 315 318 312 309 308 308 310 312 312 310 311
302 302 300 300 297 300 302 303 302 300 301 302 303 304 305 309 309 310 308 309 311 312 311 312 313 313 311 311 311 312 313 314 310 311 319 318 313 311 310 310 310 310 312 312 311
302 304 302 301 299 300 301 302 302 301 300 301 303 304 305 305 309 309 308 310 310 310 309 312 315 313 313 313 314 313 313 315 314 315 317 317 313 313 310 309 310 309 311 312 312
300 298 297 298 299 300 300 300 301 301 301 302 302 303 306 304 305 307 305 308 308 309 309 309 312 313 309 313 314 315 315 315 315 315 314 314 314 310 309 308 309 309 311 312 312
300 300 297 300 299 298 299 299 300 300 300 300 301 301 306 303 301 301 303 303 305 309 312 312 314 312 312 311 312 314 314 315 314 314 314 315 312 310 310 311 310 309 309 311 312

GFSSW_925_thetae_102.txt.gz
Theta_e
310 311 311 312 311 310 310 311 311 312 311 309 310 310 311 310 310 308 309 307 311 312 311 310 308 310 310 313 316 317 323 323 327 328 326 323 324 319 321 325 335 338 339 342 342
309 310 310 311 311 310 310 312 310 311 309 309 309 310 310 309 308 309 307 311 312 312 311 309 308 308 312 313 316 318 320 322 321 323 325 327 325 323 333 337 341 346 343 344 344
309 309 310 311 311 310 310 311 310 309 308 308 309 309 309 307 308 309 311 311 311 311 309 308 308 307 312 312 315 316 317 318 323 321 324 327 327 327 333 336 339 346 346 343 344
309 309 309 310 310 310 310 311 310 307 308 308 308 309 307 307 308 306 308 308 308 308 307 308 310 311 311 313 313 315 317 317 322 323 326 327 326 328 326 325 328 343 343 344 342
308 308 309 309 309 310 309 310 309 308 308 308 307 308 307 309 309 306 306 305 305 306 306 310 311 311 310 311 313 316 316 316 318 322 323 324 327 328 327 325 323 335 342 342 342
308 308 308 307 308 308 309 310 308 307 307 308 308 305 307 308 305 305 305 304 304 305 305 309 309 310 311 310 312 314 316 316 316 321 322 324 327 327 326 324 324 331 338 340 341
308 308 307 307 308 308 307 309 308 307 307 307 308 306 306 305 304 305 305 305 304 304 305 307 308 310 307 310 310 312 317 316 317 320 322 321 328 328 326 325 324 322 325 337 338
308 308 307 306 307 307 307 307 307 307 307 308 307 305 305 305 303 305 304 305 305 305 306 308 307 309 308 307 312 316 316 318 319 320 322 322 324 326 325 326 325 322 320 324 337
307 307 306 307 306 307 307 306 306 305 306 307 306 305 305 305 304 304 304 304 304 305 306 307 306 308 308 308 314 315 319 318 319 320 321 320 324 323 325 326 324 323 320 320 329
307 307 306 305 306 306 306 303 304 305 305 305 305 303 303 305 304 304 304 304 304 304 306 304 305 307 309 309 314 315 316 315 319 320 322 319 320 321 325 325 325 323 321 320 324
307 306 305 305 306 306 304 303 302 303 303 303 304 303 305 304 304 303 304 304 304 304 303 302 300 302 309 309 309 311 314 316 315 318 322 321 320 325 325 324 323 323 322 322 320
306 306 305 305 306 304 304 303 303 302 300 302 302 304 303 303 304 304 304 304 304 304 303 300 302 306 305 309 310 312 313 315 315 315 320 321 321 320 324 322 321 322 321 321 320
306 305 305 305 306 305 304 303 303 303 302 304 304 304 305 304 305 304 304 304 304 304 303 301 304 305 306 311 310 312 313 314 316 317 316 318 321 321 319 320 320 320 319 319 317
306 305 305 306 306 306 303 303 302 302 297 306 306 305 305 304 305 303 304 303 304 304 304 302 305 307 308 312 311 313 313 313 314 317 322 318 321 318 318 318 316 319 320 318 316
305 305 305 305 306 304 303 303 302 301 293 301 307 304 304 305 304 304 304 303 304 303 304 300 306 309 311 311 310 314 315 314 315 317 317 321 319 317 315 318 316 315 315 315 312
305 305 305 305 305 304 303 303 302 295 293 303 307 307 308 304 303 305 304 303 303 304 304 305 305 308 312 312 312 312 316 318 318 318 317 319 319 315 318 317 316 314 313 313 312
304 305 306 306 305 303 303 301 297 296 299 301 308 307 307 306 305 305 303 301 302 302 306 307 309 312 311 312 310 312 317 320 321 321 315 318 322 318 313 315 316 315 313 313 312
304 306 306 306 303 303 303 294 295 302 301 305 308 308 310 305 304 305 302 299 303 304 306 310 312 313 311 310 309 313 314 318 321 316 318 318 320 315 310 310 314 314 312 312 311
305 305 305 304 303 304 298 293 299 299 305 304 304 298 308 307 305 304 296 300 303 304 310 308 314 311 311 311 310 313 315 314 314 312 313 317 312 308 309 310 309 311 310 310 310
306 306 305 303 303 303 296 299 303 303 303 307 304 308 307 309 303 305 302 305 304 304 309 309 312 311 310 309 308 311 311 312 311 317 315 313 310 310 312 312 310 310 310 308 308
307 306 304 303 304 296 295 296 303 301 304 307 307 309 306 308 309 299 307 307 307 302 307 308 307 310 309 309 310 311 313 314 315 309 311 310 309 308 307 310 310 309 310 310 310
306 307 304 304 298 296 296 301 302 301 301 306 305 306 304 308 310 307 307 308 308 307 310 309 308 307 307 311 309 308 310 315 307 314 305 302 310 307 306 309 309 310 309 309 308
306 301 304 303 297 295 300 302 301 302 301 302 303 304 305 308 311 307 306 306 309 310 311 310 311 310 308 313 310 312 312 314 311 307 311 305 310 308 306 307 309 310 310 309 309
301 299 299 297 295 298 301 301 301 300 301 301 303 303 305 308 307 309 303 308 310 312 311 312 313 308 304 308 309 310 312 314 307 305 313 309 314 310 308 310 309 311 311 310 310
302 300 299 299 298 299 300 301 301 301 300 301 303 304 304 307 308 308 306 307 308 309 308 312 313 313 313 312 312 311 312 313 308 314 318 317 315 312 309 308 309 309 311 312 312
302 297 294 296 297 298 300 299 300 300 300 301 302 303 303 305 304 308 306 308 307 307 308 307 311 310 308 311 313 314 313 313 315 314 315 315 314 310 309 308 308 309 311 312 312
299 299 295 298 297 297 297 298 300 299 299 300 301 300 304 302 301 301 302 303 304 307 311 311 310 310 310 309 311 310 314 313 314 313 312 314 311 310 311 310 309 308 308 310 311

GFSSW_925_thetae_105.txt.gz
Theta_e
309 310 311 311 312 311 310 311 312 311 311 310 309 310 309 310 310 309 309 306 311 312 312 310 309 307 309 311 313 315 319 319 318 323 326 323 323 321 320 325 328 332 338 341 345
309 309 310 311 312 311 311 310 311 311 309 309 309 309 309 309 308 308 307 310 313 312 311 308 308 307 307 311 312 313 318 318 316 317 324 325 326 323 325 333 340 343 341 343 343
309 309 309 311 311 311 311 311 311 310 308 308 308 308 309 309 308 308 310 311 310 309 310 308 308 306 308 311 311 312 315 315 316 319 323 324 326 325 328 330 337 342 345 344 343
309 309 309 309 309 310 310 311 311 309 308 308 308 309 308 307 308 306 308 308 308 308 308 307 308 308 309 311 311 313 312 313 315 320 322 323 326 328 328 326 323 325 342 341 344
309 308 309 309 308 309 309 310 311 308 308 308 309 307 307 308 307 306 306 305 305 305 306 307 309 309 310 309 310 312 311 312 315 318 321 320 326 328 326 324 325 328 341 343 343
309 309 307 307 307 308 309 308 308 308 308 307 309 306 307 308 304 305 305 304 304 304 304 307 308 308 310 309 310 311 313 312 313 318 317 319 323 327 326 323 324 330 338 341 342
309 308 308 307 307 308 308 310 308 308 307 307 308 306 305 305 304 304 305 305 304 305 304 306 308 308 308 309 309 310 314 315 315 317 318 317 319 330 326 324 323 322 322 329 339
309 308 307 307 306 307 307 307 308 306 306 308 308 305 304 305 304 302 304 304 304 305 306 306 306 307 308 307 307 312 314 316 315 317 318 315 319 323 326 324 323 322 320 321 325
309 308 307 306 306 306 307 307 307 305 305 307 306 305 305 305 304 304 304 304 304 304 305 307 306 307 308 308 308 314 313 316 317 318 321 317 317 319 325 326 324 321 319 320 321
309 307 307 306 306 306 307 304 304 304 305 305 305 304 302 305 304 303 303 304 303 303 305 303 303 307 308 309 310 314 315 315 317 320 320 318 318 318 320 326 324 322 319 319 319
308 307 306 305 306 307 304 303 302 302 303 303 303 303 304 303 303 303 303 304 304 303 302 301 299 300 304 309 309 310 313 314 315 319 320 319 318 317 318 317 324 322 319 319 319
308 306 306 305 306 306 304 302 302 301 301 301 302 303 303 303 304 303 304 303 303 303 303 298 300 305 305 309 310 310 313 314 315 316 320 320 320 319 318 318 322 322 320 319 318
308 306 305 305 306 305 303 303 302 302 301 304 303 303 304 304 305 304 303 303 303 303 302 301 302 304 305 310 310 311 313 314 317 319 318 321 322 322 321 320 321 320 320 319 318
307 306 305 305 306 305 303 303 301 302 294 304 306 304 304 304 304 303 303 303 303 304 303 301 303 307 307 312 310 312 311 314 316 319 323 318 323 321 320 321 321 320 320 319 318
305 305 305 305 306 304 303 302 302 299 293 299 306 304 304 305 303 304 303 302 304 303 302 299 305 308 311 310 310 314 313 313 314 319 320 320 318 317 318 320 320 318 319 320 319
305 304 305 306 305 303 303 302 301 294 291 302 306 307 308 304 303 304 303 302 302 304 304 303 305 307 311 311 311 309 315 315 316 318 315 319 318 315 319 317 316 316 319 320 319
305 305 305 305 305 303 303 300 295 292 298 300 307 307 307 306 305 305 303 300 302 301 301 307 308 308 311 312 309 309 315 319 319 318 315 318 319 315 314 314 314 314 314 318 318
304 305 306 305 304 303 302 293 290 298 298 304 307 308 308 306 305 304 301 300 304 305 306 310 312 313 311 310 310 312 314 308 317 316 318 318 319 316 312 309 311 313 314 313 313
305 306 305 303 303 303 295 289 295 297 304 303 302 297 306 307 305 304 296 300 302 304 312 309 310 311 309 309 310 312 314 314 310 310 314 316 313 308 309 309 309 312 312 311 311
305 305 304 303 303 302 294 298 301 303 303 305 301 307 304 309 306 304 301 304 304 303 306 307 308 309 310 308 308 312 311 317 305 309 318 315 310 310 309 308 309 310 311 310 310
305 306 304 303 303 294 293 295 302 301 304 306 306 308 305 309 307 305 304 306 308 304 306 308 304 306 307 308 308 309 309 314 314 307 312 313 311 307 308 307 309 308 308 309 308
305 307 303 303 297 294 295 300 302 301 302 305 304 305 305 308 309 306 304 307 306 308 309 308 304 303 306 308 310 308 309 312 309 313 307 302 312 305 305 308 309 309 309 308 307
303 303 303 303 297 293 299 301 300 302 301 303 302 304 304 308 307 306 304 305 308 309 310 310 308 301 303 310 310 311 311 312 308 305 313 303 310 306 306 307 308 310 308 308 308
301 301 300 297 293 297 300 300 300 299 300 301 303 303 305 308 306 307 302 308 309 311 311 312 313 305 303 307 308 310 311 313 302 303 313 307 312 309 307 308 308 310 309 308 308
302 300 300 299 298 298 299 299 300 300 299 300 303 304 300 305 307 307 303 307 308 308 308 311 313 315 313 311 310 310 311 313 304 310 307 314 313 310 307 307 307 307 310 310 310
302 299 294 296 296 298 300 299 300 299 300 301 303 305 304 305 301 308 305 306 303 307 308 309 311 309 307 310 312 313 311 312 314 313 314 313 314 309 309 307 306 306 309 311 311
298 296 296 297 296 297 297 297 299 298 299 300 300 301 303 302 301 301 301 302 303 306 309 310 307 306 308 306 311 309 309 312 313 312 313 315 313 310 310 309 307 306 305 305 306

GFSSW_925_thetae_108.txt.gz
Theta_e
311 310 311 311 311 312 312 311 310 311 312 309 309 309 309 309 309 308 308 305 309 311 312 310 309 307 308 309 311 312 316 316 318 317 316 321 324 322 321 320 325 335 337 340 348
311 310 310 311 311 312 311 311 312 312 309 308 308 308 308 309 308 308 305 310 312 312 311 308 307 306 306 310 310 312 313 314 313 314 314 317 323 324 326 323 329 340 341 346 346
311 310 310 310 310 310 311 312 309 311 309 308 308 309 309 308 306 306 311 310 311 310 309 309 308 306 307 308 309 310 312 311 312 314 316 317 322 323 326 328 326 338 344 346 345
311 310 309 309 310 310 310 310 310 310 309 308 309 308 309 307 305 306 309 307 308 306 308 307 307 308 308 308 309 311 310 310 312 314 314 319 321 323 323 325 325 322 340 344 343
311 310 309 309 309 309 309 309 309 309 308 308 309 308 307 307 306 306 307 304 304 305 306 306 308 308 308 307 308 311 309 310 311 312 313 317 321 321 321 319 322 325 334 340 341
310 310 309 308 308 307 307 308 310 308 307 307 308 306 306 307 304 305 305 304 304 303 303 306 307 307 308 309 310 309 310 311 311 312 313 317 318 318 320 321 323 331 337 339 341
311 310 308 308 307 307 307 308 308 307 308 308 308 306 305 305 304 304 305 304 304 304 304 305 307 307 308 308 307 309 310 311 312 311 313 317 318 317 316 318 324 327 329 335 341
311 310 309 307 307 306 307 307 307 307 306 307 308 305 303 304 305 304 303 304 304 304 305 306 306 306 307 307 307 309 310 313 313 311 311 316 318 315 316 316 322 321 322 326 331
312 310 309 307 306 306 306 307 307 307 305 307 305 304 304 304 304 304 304 304 304 304 305 306 305 306 307 307 305 309 313 313 314 311 313 316 318 315 314 315 323 321 320 323 324
311 310 308 307 306 306 307 305 304 304 305 306 305 303 302 304 304 303 304 304 303 303 303 302 301 304 304 307 298 308 312 313 315 313 313 317 317 317 314 313 317 322 320 322 322
310 309 307 306 305 306 305 304 301 302 303 303 303 302 303 303 303 303 303 303 303 302 303 300 299 298 301 304 309 309 309 311 314 317 316 319 317 316 317 312 316 321 320 321 322
311 309 307 306 306 306 304 301 302 300 301 300 302 302 303 303 304 303 303 303 303 302 302 298 299 302 305 305 309 309 310 314 314 315 318 319 318 318 315 314 315 320 319 319 320
311 308 306 305 306 305 303 303 302 302 301 303 302 303 303 304 305 303 302 302 303 303 302 301 301 302 305 306 310 310 312 314 317 319 319 320 322 321 318 318 318 318 319 318 319
310 307 305 305 305 304 303 302 301 302 293 303 305 304 304 303 303 303 302 302 302 303 302 300 301 305 308 307 310 310 311 316 318 318 323 316 323 322 320 320 319 320 319 318 317
310 307 305 305 305 305 303 302 301 299 296 298 306 304 304 304 303 304 303 302 303 302 302 297 304 306 310 311 310 314 313 314 316 316 321 319 317 320 320 321 319 317 318 319 317
310 306 306 305 304 303 302 301 300 295 292 303 306 307 306 304 303 303 303 302 302 304 302 301 304 305 308 310 309 309 314 315 315 315 316 319 316 317 321 319 318 316 318 317 317
308 305 306 305 303 303 302 298 296 294 297 301 306 306 305 305 304 303 303 300 304 302 304 307 307 307 307 312 308 307 309 314 312 312 318 316 317 314 317 316 317 316 317 318 318
308 304 306 305 303 302 300 294 296 297 296 302 306 307 304 306 302 303 301 300 303 305 303 309 311 312 310 310 311 311 308 309 317 318 319 318 319 314 310 312 314 315 314 317 317
305 306 305 302 303 303 294 292 294 296 302 303 301 296 307 307 304 300 295 300 301 305 312 310 311 311 309 309 310 313 314 312 311 309 310 314 312 309 308 307 308 310 313 313 315
305 304 303 302 303 301 295 298 300 301 302 303 299 306 305 308 305 303 299 304 307 303 305 308 301 307 310 308 309 312 312 311 308 313 319 315 310 310 309 308 307 310 312 311 310
305 304 303 303 303 297 294 295 300 300 304 306 305 306 305 308 305 299 301 305 307 307 304 307 303 304 305 309 310 312 313 313 311 309 314 314 312 307 307 306 308 308 308 308 309
304 305 302 303 301 293 295 299 301 301 303 304 303 304 305 308 307 297 303 305 305 308 309 308 303 305 310 308 310 308 309 312 308 313 305 305 312 305 304 307 308 308 309 307 307
303 304 302 301 298 294 298 300 299 301 301 303 302 303 304 307 305 305 299 304 307 309 311 310 305 296 301 304 308 310 311 312 306 305 313 310 312 306 305 307 308 309 308 308 307
300 304 302 301 294 297 299 299 300 299 300 302 302 303 305 308 305 306 301 307 308 308 311 311 312 304 306 309 307 307 310 309 300 305 311 308 311 308 306 306 305 308 308 308 307
299 301 302 304 297 297 298 299 299 300 299 301 303 303 301 305 306 306 303 306 307 306 308 310 310 312 313 311 310 310 310 312 303 309 305 311 312 309 308 306 305 305 308 309 309
301 300 295 295 296 297 300 299 299 299 299 300 303 303 302 303 300 304 304 306 302 307 309 309 308 308 307 307 311 311 310 312 311 313 312 311 312 309 307 306 305 304 305 306 307
297 295 297 297 296 297 297 297 299 298 299 299 301 302 303 302 300 300 300 301 303 306 308 309 305 304 306 305 310 307 307 311 312 311 312 314 312 309 308 307 306 305 304 303 304

GFSSW_925_thetae_111.txt.gz
Theta_e
313 312 311 310 312 312 313 312 311 311 312 310 309 309 309 308 308 307 306 304 308 313 311 311 309 307 308 309 311 312 314 314 314 317 317 315 315 319 321 322 322 323 334 337 344
313 312 311 310 311 312 311 311 312 311 311 309 308 309 308 307 306 307 304 310 312 312 312 309 308 306 306 310 311 312 313 311 310 312 314 314 315 319 320 323 325 325 332 339 345
313 313 311 310 310 311 311 312 311 311 310 308 307 308 309 306 305 305 311 310 310 310 309 308 307 306 307 307 310 311 311 309 310 310 313 315 317 316 322 324 325 325 324 336 346
314 313 311 310 310 310 310 310 311 310 309 307 308 309 308 306 303 305 309 307 308 306 308 307 306 307 306 307 308 310 310 310 309 309 312 314 316 318 320 321 320 320 320 320 342
314 312 311 310 310 309 310 310 310 309 308 306 308 307 306 306 305 306 307 304 304 304 305 305 307 308 308 306 307 309 309 309 309 311 311 312 313 315 320 321 317 317 320 322 324
314 312 311 310 308 309 308 309 309 309 308 306 307 306 306 304 304 305 305 304 304 303 303 306 306 307 308 308 308 308 309 309 309 310 311 312 313 314 319 319 319 319 319 322 325
314 311 311 309 308 308 308 309 308 308 307 306 308 306 304 304 304 304 304 304 304 304 304 304 306 307 307 307 306 307 309 308 308 310 311 312 314 313 316 316 319 318 317 318 326
315 312 311 309 308 307 307 307 308 307 306 306 308 305 301 303 304 305 303 303 304 303 304 305 306 306 307 306 306 306 306 309 308 309 311 313 314 315 317 317 319 318 314 319 325
316 312 310 309 307 306 306 307 307 307 306 307 305 304 303 304 303 304 303 303 303 303 304 305 304 305 306 305 304 305 306 308 308 311 311 313 312 316 315 318 318 314 310 320 326
317 313 311 309 306 306 306 306 305 306 306 306 304 303 302 304 303 303 303 303 302 302 302 302 301 304 303 304 303 302 307 309 308 312 311 312 312 316 317 319 316 311 310 318 323
317 312 309 308 306 305 307 305 302 302 303 302 302 302 302 303 302 303 302 303 302 302 302 300 303 303 301 302 304 305 308 308 307 308 312 313 311 315 316 314 311 311 313 316 321
315 311 309 307 305 306 306 301 301 301 301 301 302 302 302 303 304 302 302 303 302 303 301 299 302 302 302 304 306 305 310 310 309 310 313 313 314 316 314 312 311 313 315 316 318
312 310 308 305 305 307 304 303 302 301 301 302 301 302 303 304 304 303 302 302 302 303 302 302 302 302 304 306 307 307 310 310 314 315 315 316 319 320 316 314 314 315 316 316 318
311 309 306 304 305 305 302 303 301 301 295 303 304 304 303 303 303 302 302 302 302 303 302 301 301 303 307 308 307 311 311 313 316 318 321 317 323 321 318 316 317 317 317 318 319
311 308 304 304 305 304 303 302 301 299 297 298 305 303 304 303 302 303 302 301 303 302 302 299 302 305 305 311 310 313 308 314 317 320 318 320 320 321 319 318 318 319 318 318 318
310 308 304 306 305 303 303 301 299 298 296 303 305 306 305 304 302 302 302 301 301 303 303 302 302 305 306 309 308 309 313 314 316 316 320 319 317 319 321 319 318 317 318 319 318
310 307 305 305 304 303 301 298 299 298 297 301 305 305 303 303 303 302 303 300 304 305 301 307 308 306 307 310 308 310 308 311 316 316 320 317 318 315 316 317 318 317 318 318 317
307 306 305 305 305 302 299 297 298 297 296 302 306 304 300 303 301 302 301 301 302 305 299 303 308 312 310 311 311 311 308 313 315 317 320 316 319 312 307 307 314 315 317 317 318
306 306 305 305 303 302 297 297 297 296 301 304 300 293 306 305 303 300 296 300 302 303 309 309 305 310 309 307 307 313 312 313 311 309 316 314 310 308 308 308 307 310 317 317 316
305 304 303 303 302 300 298 301 300 299 301 302 298 305 302 305 301 296 298 304 307 303 304 308 305 305 309 307 309 311 312 313 311 314 320 313 311 312 309 309 308 310 313 316 313
304 305 302 302 302 299 297 295 300 300 304 305 305 305 304 305 302 293 301 304 306 308 302 306 302 306 306 311 313 311 314 312 310 309 317 316 316 308 307 307 309 309 308 312 311
303 305 302 302 303 296 295 298 300 300 303 303 303 302 304 306 305 295 303 305 304 308 310 307 303 307 309 307 310 308 310 311 310 314 306 312 315 305 305 308 309 309 309 308 309
304 303 302 300 301 294 297 299 299 300 301 302 303 303 304 305 303 303 299 303 306 309 311 311 306 302 305 306 307 309 310 310 305 307 311 312 314 306 304 306 307 309 309 308 309
302 305 303 302 296 297 299 299 300 298 299 301 302 303 305 306 303 305 298 306 308 307 310 310 312 306 314 312 309 310 310 309 302 312 312 310 310 308 307 307 307 308 308 308 308
300 303 303 303 302 296 298 298 299 300 299 301 303 303 300 304 306 305 302 304 306 307 308 308 310 312 311 311 311 310 311 311 309 309 309 311 310 309 307 306 305 304 305 307 308
299 299 294 295 296 296 299 297 299 298 299 301 303 302 301 302 300 303 303 302 301 305 308 306 306 307 306 309 309 309 309 310 312 311 311 310 311 308 306 306 306 305 304 305 306
297 295 296 296 295 296 296 296 298 298 299 299 300 301 303 302 300 300 299 300 303 305 306 307 305 304 306 305 309 307 307 311 311 309 311 313 311 307 308 307 306 305 305 304 304

GFSSW_925_thetae_114.txt.gz
Theta_e
314 314 313 312 312 312 313 313 312 313 313 311 309 308 309 309 308 308 307 306 309 311 310 311 309 309 309 310 311 311 314 313 312 311 313 314 315 315 316 320 323 324 327 326 326
315 314 313 312 311 311 312 311 312 311 311 310 308 308 310 307 307 307 306 309 311 313 312 311 309 307 309 310 311 312 312 311 310 310 311 312 315 316 317 316 319 323 323 324 327
316 315 314 312 312 311 312 311 311 311 310 309 307 309 309 307 307 308 311 311 312 311 311 309 308 307 308 309 310 311 312 309 309 309 310 310 313 314 316 318 319 320 323 326 325
318 316 314 312 311 311 310 311 311 312 309 308 305 309 306 307 305 307 309 308 309 307 308 308 308 308 308 308 308 309 308 309 309 309 309 310 311 313 315 317 317 319 322 325 324
319 316 313 312 311 310 309 310 310 311 309 307 305 308 307 307 305 306 308 304 304 305 306 307 307 307 307 306 306 308 307 307 307 309 310 310 310 312 313 315 316 318 319 323 323
317 317 313 310 310 308 308 308 309 310 309 307 305 307 306 305 305 305 305 304 304 304 305 306 306 306 307 307 307 306 307 308 308 309 309 311 311 310 312 314 318 319 319 319 321
317 317 313 310 310 309 308 308 310 308 308 306 308 306 306 305 304 304 304 305 304 304 305 305 305 306 305 305 305 307 307 307 307 308 310 310 312 312 309 312 316 319 320 319 320
313 317 313 310 308 308 307 307 308 308 307 305 308 305 304 302 304 305 304 303 304 304 305 305 306 306 306 306 306 306 306 308 305 308 309 311 314 310 310 311 313 317 320 318 319
312 312 313 310 309 307 306 307 307 307 306 307 306 304 304 304 304 304 304 304 304 304 305 305 305 306 306 306 306 305 307 305 305 306 309 311 313 312 313 313 313 317 319 317 318
311 311 313 310 308 306 306 306 306 306 306 306 304 305 304 305 304 303 303 304 304 304 305 305 305 306 306 306 306 305 306 306 307 308 311 312 312 313 316 318 319 319 318 316 316
310 313 312 309 307 305 306 306 304 304 304 303 304 304 304 304 303 303 303 304 304 304 305 305 306 306 304 304 306 305 306 307 306 306 308 313 313 313 317 318 319 319 317 316 316
309 313 310 308 306 306 306 305 303 302 304 304 304 304 303 304 305 304 303 304 304 305 305 305 306 303 303 304 304 306 306 307 306 308 310 312 314 312 315 317 318 318 316 316 316
313 311 309 306 307 306 305 304 303 301 305 304 303 303 304 305 306 305 303 304 304 304 304 305 303 303 303 305 307 307 308 308 310 312 311 314 314 314 316 315 315 315 316 315 316
311 309 307 306 306 305 304 304 302 301 308 306 305 305 305 305 305 304 303 304 304 304 303 304 303 303 304 307 308 310 309 313 314 313 319 314 319 317 315 316 317 318 318 318 317
307 309 305 306 305 305 303 302 301 301 310 303 307 304 305 305 304 304 303 303 304 303 303 306 303 304 306 306 308 313 309 311 315 316 319 317 322 319 318 319 318 318 319 319 318
307 308 306 305 305 304 303 301 300 308 309 307 306 307 307 305 304 304 304 303 303 305 305 306 304 305 306 307 308 309 313 315 314 317 324 320 321 323 323 319 320 318 318 318 319
306 308 306 305 306 302 301 300 311 311 300 307 308 306 306 306 304 305 305 305 307 309 310 308 310 308 307 309 310 310 315 319 321 323 324 321 317 315 313 317 318 318 318 319 318
308 308 305 305 304 301 300 306 307 301 303 305 307 306 309 306 305 304 306 308 304 305 308 311 313 311 310 311 312 311 314 319 320 323 323 318 320 314 311 310 311 318 316 317 318
307 306 305 304 302 301 303 310 306 304 303 307 305 307 308 307 306 305 305 308 306 305 309 311 312 308 309 307 309 313 316 314 317 313 319 319 315 314 312 312 312 318 316 317 318
305 304 303 302 302 301 306 307 303 301 304 305 310 307 308 308 307 306 307 308 310 307 305 310 311 306 309 309 310 313 312 319 318 320 323 318 319 317 314 313 312 317 315 317 317
304 306 302 302 302 303 308 306 303 302 305 307 307 308 307 308 305 305 307 307 309 310 307 308 308 313 311 313 314 314 315 315 314 313 320 320 320 310 312 312 313 314 317 316 315
303 306 302 302 305 302 306 300 301 302 305 305 306 306 306 307 306 306 308 307 307 309 310 310 309 314 313 309 311 311 314 314 320 317 314 317 317 309 311 313 313 312 314 315 313
303 303 301 300 305 305 300 301 301 302 305 304 306 305 305 307 307 306 305 307 307 311 312 312 312 314 312 311 311 312 313 312 311 314 315 319 318 310 312 312 313 313 313 312 312
304 305 303 304 301 301 302 302 302 300 302 302 304 305 307 307 307 307 308 307 308 307 310 311 312 313 315 314 313 315 315 313 312 319 316 316 315 313 311 311 310 311 312 312 311
303 305 304 304 304 301 300 302 302 302 301 303 305 306 307 307 307 307 306 307 307 308 310 311 314 312 313 313 312 314 315 314 314 313 318 314 314 312 311 311 310 309 310 311 310
302 303 300 301 304 303 300 301 302 301 303 304 305 306 305 307 306 307 306 307 308 309 310 309 314 311 312 310 312 314 313 314 314 314 314 314 314 311 311 311 311 310 310 309 308
297 297 301 300 303 304 302 300 301 301 300 301 304 306 306 305 304 304 304 304 306 308 310 311 311 311 314 309 311 314 312 314 313 312 314 316 313 312 312 310 310 309 309 308 307

GFSSW_925_thetae_117.txt.gz
Theta_e
318 316 316 314 313 312 313 313 313 312 311 312 310 309 308 310 309 309 309 308 309 309 311 310 310 310 310 311 311 312 315 316 314 313 312 312 313 314 314 315 316 319 321 323 326
320 317 316 315 313 312 312 313 312 312 311 311 309 309 307 309 308 308 307 305 310 313 311 311 312 310 312 312 311 312 313 312 311 311 311 311 311 311 314 315 315 316 318 323 324
320 319 317 314 313 312 312 312 312 311 311 310 308 307 307 308 308 308 310 313 314 313 312 312 310 309 311 311 311 312 313 312 311 311 310 310 310 311 313 315 316 315 316 320 323
317 320 318 314 312 311 312 311 311 312 311 309 307 306 306 308 309 309 309 309 311 310 310 309 309 310 309 310 310 311 310 310 310 310 310 310 310 310 311 312 313 315 317 317 322
315 316 319 315 311 310 310 310 310 311 310 308 307 306 307 308 307 308 307 305 305 306 307 308 308 308 309 308 307 308 308 308 308 307 308 308 309 310 310 310 311 313 316 318 320
313 314 318 315 311 308 309 309 309 311 310 308 307 306 307 307 306 306 306 305 305 305 306 306 306 306 307 307 307 307 307 307 307 308 308 309 309 309 310 310 310 312 314 316 320
311 313 318 314 310 309 310 309 309 309 308 308 308 307 307 307 305 305 305 305 304 305 305 305 305 306 305 305 305 305 306 306 306 306 306 307 309 309 309 309 309 311 314 316 319
310 311 313 312 310 309 309 307 308 308 307 307 308 307 306 303 304 305 305 305 305 305 305 305 305 306 306 306 306 306 306 308 306 305 305 307 311 310 310 310 310 310 314 316 318
310 311 312 313 309 308 308 307 307 308 307 307 307 306 305 304 306 305 306 305 305 304 304 305 305 306 305 308 308 305 307 304 304 304 305 307 312 311 310 311 311 311 311 314 317
309 310 310 313 309 308 307 307 307 307 306 306 305 305 304 306 305 305 305 305 305 305 305 305 305 305 306 308 308 305 306 305 304 304 307 310 311 311 311 312 311 311 312 314 317
309 308 309 313 309 307 307 306 306 306 305 305 305 305 305 305 304 304 304 305 305 305 305 305 307 307 307 305 305 305 306 306 305 305 305 306 308 313 312 314 314 314 316 316 319
308 311 311 310 307 307 308 307 307 305 306 305 305 305 304 305 307 305 304 305 305 306 305 306 307 305 304 303 304 304 304 305 305 305 306 308 309 310 312 315 317 317 317 319 318
307 312 312 308 306 307 307 307 303 302 306 304 305 305 305 305 307 307 304 305 305 306 305 306 306 304 304 304 305 305 306 307 307 308 310 312 313 310 312 314 315 316 317 318 318
306 310 309 306 307 307 307 305 303 301 311 307 306 307 306 306 307 305 304 305 305 306 305 306 305 304 304 305 306 310 307 310 310 311 314 311 318 315 313 314 316 316 317 318 318
305 306 307 307 307 307 306 304 302 302 313 307 307 306 306 307 306 305 304 305 306 306 305 307 306 306 307 308 310 310 309 312 314 314 315 316 317 318 315 317 316 317 319 319 319
305 306 306 307 306 305 303 302 302 312 315 308 308 308 307 306 305 305 306 304 305 306 306 307 306 307 308 308 309 310 312 313 312 315 319 318 317 320 318 319 318 319 319 319 320
305 307 306 307 307 303 301 302 313 315 304 309 308 308 307 307 306 306 308 308 308 310 315 310 311 309 308 311 312 311 315 322 322 320 322 320 319 319 314 313 319 318 317 319 319
305 307 307 305 304 301 302 307 314 307 306 307 308 308 308 307 308 307 309 309 308 307 307 312 316 312 311 312 312 311 316 320 322 325 322 317 321 319 314 314 316 315 316 318 317
305 306 305 303 302 301 305 313 310 309 305 309 308 308 308 308 308 307 309 310 308 307 310 312 314 310 310 309 310 314 319 315 318 318 320 321 319 316 315 318 315 315 317 318 316
305 305 304 303 301 302 307 310 304 304 306 308 312 309 311 309 309 309 309 309 310 309 307 309 312 310 310 310 312 315 314 320 321 324 324 322 318 316 317 317 315 315 318 317 315
304 306 302 302 303 304 309 308 305 304 306 308 309 310 309 309 308 309 310 309 310 310 310 308 311 316 314 315 315 316 316 315 315 314 324 322 319 315 316 314 317 316 317 316 314
303 305 301 302 306 306 309 302 303 304 307 307 307 308 308 308 308 310 310 309 309 309 311 310 311 317 314 311 311 313 315 314 323 319 319 317 318 314 315 314 315 315 316 314 313
303 303 301 302 308 308 303 303 303 305 307 306 308 307 307 308 309 309 309 308 308 310 313 312 313 319 318 313 313 315 314 314 314 319 319 318 320 312 312 314 314 315 314 313 313
303 305 303 303 304 306 304 304 304 303 306 304 306 307 307 308 307 309 309 308 308 309 310 312 311 315 317 315 314 317 315 315 317 320 318 319 316 314 313 312 313 313 313 313 312
305 307 305 306 305 303 303 303 304 304 304 305 306 308 309 309 308 309 308 309 308 309 311 312 313 312 313 314 314 315 315 315 317 316 319 316 315 314 313 312 311 311 311 310 311
305 306 305 304 304 305 302 303 303 303 305 305 307 308 307 309 308 308 308 309 310 310 311 311 314 312 313 312 314 314 315 315 315 315 315 315 315 313 312 311 311 310 310 310 309
301 301 305 304 305 305 305 303 303 303 303 303 306 308 308 307 306 306 307 307 308 310 311 312 313 314 315 312 312 314 314 314 315 314 315 316 314 312 312 311 311 310 310 309 309